[[{"header":{"parameterUnit":"m.s-1","parameterCategory":1,"la1":30.6,"la2":29.2853,"lo1":-89.7004,"lo2":-87.6739,"dy":0.0162,"dx":0.0183,"nx":112,"ny":82,"refTime":"2026-04-13T00:00:00:Z","depth":0,"parameterNumber":2,"parameterNumberName":"U-component_of_WINDS"},"data":[0.0,0.0,0.0,0.0,0.0,0.0,0.0,0.0,0.0,0.0,0.0,0.0,0.0,0.0,0.0,0.0,0.0,0.0,0.0,0.0,0.0,0.0,0.0,0.0,0.0,0.0,0.0,0.0,0.0,0.0,0.0,0.0,0.0,0.0,0.0,0.0,0.0,0.0,0.0,0.0,0.0,0.0,0.0,0.0,0.0,0.0,0.0,0.0,0.0,0.0,0.0,0.0,0.0,0.0,0.0,0.0,0.0,0.0,0.0,0.0,0.0,0.0,0.0,0.0,0.0,0.0,0.0,0.0,0.0,0.0,0.0,0.0,0.0,0.0,0.0,0.0,0.0,0.0,0.0,0.0,0.0,0.0,0.0,0.0,0.0,0.0,0.0,0.0,0.0,0.0,0.0,-3.0897,-3.5482,-3.7221,-3.4796,-3.2942,-3.0127,-2.5972,0.0,0.0,0.0,0.0,0.0,0.0,0.0,0.0,0.0,0.0,0.0,0.0,0.0,0.0,0.0,0.0,0.0,0.0,0.0,0.0,0.0,0.0,0.0,0.0,0.0,0.0,0.0,0.0,0.0,0.0,0.0,0.0,0.0,0.0,0.0,0.0,0.0,0.0,0.0,0.0,0.0,0.0,0.0,0.0,0.0,0.0,0.0,0.0,0.0,0.0,0.0,0.0,0.0,0.0,0.0,0.0,0.0,0.0,0.0,0.0,0.0,0.0,0.0,0.0,0.0,0.0,0.0,0.0,0.0,0.0,0.0,0.0,0.0,0.0,0.0,0.0,0.0,0.0,0.0,0.0,0.0,0.0,0.0,0.0,0.0,0.0,0.0,0.0,0.0,0.0,0.0,0.0,0.0,0.0,0.0,0.0,0.0,0.0,0.0,0.0,0.0,0.0,0.0,0.0,-2.7862,-3.5059,-3.7822,-3.8414,-3.6563,-3.4186,-3.1284,-2.7744,0.0,0.0,0.0,0.0,0.0,0.0,0.0,0.0,0.0,0.0,0.0,0.0,0.0,0.0,0.0,0.0,0.0,0.0,0.0,0.0,0.0,0.0,0.0,0.0,0.0,0.0,0.0,0.0,0.0,0.0,0.0,0.0,0.0,0.0,0.0,0.0,0.0,0.0,0.0,0.0,0.0,0.0,0.0,0.0,0.0,0.0,0.0,0.0,0.0,0.0,0.0,0.0,0.0,0.0,0.0,0.0,0.0,0.0,0.0,0.0,0.0,0.0,0.0,0.0,0.0,0.0,0.0,0.0,0.0,0.0,0.0,0.0,0.0,0.0,0.0,0.0,0.0,0.0,0.0,0.0,0.0,0.0,0.0,0.0,0.0,0.0,0.0,0.0,0.0,0.0,0.0,0.0,0.0,0.0,0.0,0.0,0.0,0.0,0.0,0.0,0.0,0.0,0.0,-2.7305,-3.1894,-3.6325,-3.8729,-3.936,-3.7662,-3.5162,-3.2022,-2.8135,-2.3522,0.0,0.0,0.0,0.0,0.0,0.0,0.0,0.0,0.0,0.0,0.0,0.0,0.0,0.0,0.0,0.0,0.0,0.0,0.0,0.0,0.0,0.0,0.0,0.0,0.0,0.0,0.0,0.0,0.0,0.0,0.0,0.0,0.0,0.0,0.0,0.0,0.0,0.0,0.0,0.0,0.0,0.0,0.0,0.0,0.0,0.0,0.0,0.0,0.0,0.0,0.0,0.0,0.0,0.0,0.0,0.0,0.0,0.0,0.0,0.0,0.0,0.0,0.0,0.0,0.0,0.0,0.0,0.0,0.0,0.0,0.0,0.0,0.0,0.0,0.0,0.0,0.0,0.0,0.0,0.0,0.0,0.0,0.0,0.0,0.0,0.0,0.0,0.0,0.0,0.0,0.0,0.0,0.0,0.0,0.0,0.0,0.0,0.0,0.0,0.0,0.0,0.0,-3.1962,-3.5257,-3.6935,-3.9226,-3.9882,-3.799,-3.5495,-3.2276,-2.8188,-2.369,0.0,0.0,0.0,0.0,0.0,0.0,0.0,0.0,0.0,0.0,0.0,0.0,0.0,0.0,0.0,0.0,0.0,0.0,0.0,0.0,0.0,0.0,0.0,0.0,0.0,0.0,0.0,0.0,0.0,0.0,0.0,0.0,0.0,0.0,0.0,0.0,0.0,0.0,0.0,0.0,0.0,0.0,0.0,0.0,0.0,0.0,0.0,0.0,0.0,0.0,0.0,0.0,0.0,0.0,0.0,0.0,0.0,0.0,0.0,0.0,0.0,0.0,0.0,0.0,0.0,0.0,0.0,0.0,0.0,0.0,0.0,0.0,0.0,0.0,0.0,0.0,0.0,0.0,0.0,0.0,0.0,0.0,0.0,0.0,0.0,0.0,0.0,0.0,0.0,0.0,0.0,0.0,0.0,0.0,0.0,0.0,0.0,0.0,0.0,0.0,0.0,0.0,-3.2855,-3.6167,-3.7938,-3.9708,-3.9759,-3.7207,-3.4632,-3.1718,-2.8198,-2.3226,0.0,0.0,0.0,0.0,0.0,0.0,0.0,0.0,0.0,0.0,0.0,0.0,0.0,0.0,0.0,0.0,0.0,0.0,0.0,0.0,0.0,0.0,0.0,0.0,0.0,0.0,0.0,0.0,0.0,0.0,0.0,0.0,0.0,0.0,0.0,0.0,0.0,0.0,0.0,0.0,0.0,0.0,0.0,0.0,0.0,0.0,0.0,0.0,0.0,0.0,0.0,0.0,0.0,0.0,0.0,0.0,0.0,0.0,0.0,0.0,0.0,0.0,0.0,0.0,0.0,0.0,0.0,0.0,0.0,0.0,0.0,0.0,0.0,0.0,0.0,0.0,0.0,0.0,0.0,0.0,0.0,0.0,0.0,0.0,0.0,0.0,0.0,0.0,0.0,0.0,0.0,0.0,0.0,0.0,0.0,0.0,0.0,0.0,0.0,0.0,0.0,0.0,-3.4069,-3.7067,0.0,-4.0075,-3.9727,-3.7135,-3.456,-3.1414,-2.7439,0.0,0.0,0.0,0.0,0.0,0.0,0.0,0.0,0.0,0.0,0.0,0.0,0.0,0.0,0.0,0.0,0.0,0.0,0.0,0.0,0.0,0.0,0.0,0.0,0.0,0.0,0.0,0.0,0.0,0.0,0.0,0.0,0.0,0.0,0.0,0.0,0.0,0.0,0.0,0.0,0.0,0.0,0.0,0.0,0.0,0.0,0.0,0.0,0.0,0.0,0.0,0.0,0.0,0.0,0.0,0.0,0.0,0.0,0.0,0.0,0.0,0.0,0.0,0.0,0.0,0.0,0.0,0.0,0.0,0.0,0.0,0.0,0.0,0.0,0.0,0.0,0.0,0.0,0.0,0.0,0.0,0.0,0.0,0.0,0.0,0.0,0.0,0.0,0.0,0.0,0.0,0.0,0.0,0.0,0.0,0.0,0.0,0.0,0.0,0.0,0.0,0.0,-3.1144,-3.5013,-3.7885,0.0,-4.0274,-3.9727,-3.7135,-3.4295,-3.096,-2.6945,0.0,0.0,0.0,0.0,0.0,0.0,0.0,0.0,0.0,0.0,0.0,0.0,0.0,0.0,0.0,0.0,0.0,0.0,0.0,0.0,0.0,0.0,0.0,0.0,0.0,0.0,0.0,0.0,0.0,0.0,0.0,0.0,0.0,0.0,0.0,0.0,0.0,0.0,0.0,0.0,0.0,0.0,0.0,0.0,0.0,0.0,0.0,0.0,0.0,0.0,0.0,0.0,0.0,0.0,0.0,0.0,0.0,0.0,0.0,0.0,0.0,0.0,0.0,0.0,0.0,0.0,0.0,0.0,0.0,0.0,0.0,0.0,0.0,0.0,0.0,0.0,0.0,0.0,0.0,0.0,0.0,0.0,0.0,0.0,0.0,0.0,0.0,0.0,0.0,0.0,0.0,0.0,0.0,0.0,0.0,0.0,0.0,0.0,0.0,0.0,0.0,0.0,-3.1149,-3.5532,-3.8528,-3.9423,-4.0274,-3.9727,-3.7135,-3.3764,-3.0361,0.0,0.0,0.0,0.0,0.0,0.0,0.0,0.0,0.0,0.0,0.0,0.0,0.0,0.0,0.0,0.0,0.0,0.0,0.0,0.0,0.0,0.0,0.0,0.0,0.0,0.0,0.0,0.0,0.0,0.0,0.0,0.0,0.0,0.0,0.0,0.0,0.0,0.0,0.0,0.0,0.0,0.0,0.0,0.0,0.0,0.0,0.0,0.0,0.0,0.0,0.0,0.0,0.0,0.0,0.0,0.0,0.0,0.0,0.0,0.0,0.0,0.0,0.0,0.0,0.0,0.0,0.0,0.0,0.0,0.0,0.0,0.0,0.0,0.0,0.0,0.0,0.0,0.0,0.0,0.0,0.0,0.0,0.0,0.0,0.0,0.0,0.0,0.0,0.0,0.0,0.0,0.0,0.0,0.0,0.0,0.0,0.0,0.0,0.0,0.0,0.0,0.0,0.0,-3.1975,-3.5925,-3.876,-4.0274,-4.0661,-3.9727,-3.7135,-3.4345,-3.1018,-2.6953,0.0,0.0,0.0,0.0,0.0,0.0,0.0,0.0,0.0,0.0,0.0,0.0,0.0,0.0,0.0,0.0,0.0,0.0,0.0,0.0,0.0,0.0,0.0,0.0,0.0,0.0,0.0,0.0,0.0,0.0,0.0,0.0,0.0,0.0,0.0,0.0,0.0,0.0,0.0,0.0,0.0,0.0,0.0,0.0,0.0,0.0,0.0,0.0,0.0,0.0,0.0,0.0,0.0,0.0,0.0,0.0,0.0,0.0,0.0,0.0,0.0,0.0,0.0,0.0,0.0,0.0,0.0,0.0,0.0,0.0,0.0,0.0,0.0,0.0,0.0,0.0,0.0,0.0,0.0,0.0,0.0,0.0,0.0,0.0,0.0,0.0,0.0,0.0,0.0,0.0,0.0,0.0,0.0,0.0,0.0,0.0,0.0,0.0,0.0,0.0,0.0,0.0,-3.2295,-3.6085,-3.8876,-4.0623,-4.0816,-3.9727,-3.7135,-3.4577,-3.1289,-2.6953,0.0,0.0,0.0,0.0,0.0,0.0,0.0,0.0,0.0,0.0,0.0,0.0,0.0,0.0,0.0,0.0,0.0,0.0,0.0,0.0,0.0,0.0,0.0,0.0,0.0,0.0,0.0,0.0,0.0,0.0,0.0,0.0,0.0,0.0,0.0,0.0,0.0,0.0,0.0,0.0,0.0,0.0,0.0,0.0,0.0,0.0,0.0,0.0,0.0,0.0,0.0,0.0,0.0,0.0,0.0,0.0,0.0,0.0,0.0,0.0,0.0,0.0,0.0,0.0,0.0,0.0,0.0,0.0,0.0,0.0,0.0,0.0,0.0,0.0,0.0,0.0,0.0,0.0,0.0,0.0,0.0,0.0,0.0,0.0,0.0,0.0,0.0,0.0,0.0,0.0,0.0,0.0,0.0,0.0,0.0,0.0,0.0,0.0,0.0,0.0,0.0,0.0,-3.2217,-3.6085,-3.8876,-4.0623,-4.0739,-3.9688,-3.7212,-3.4615,-3.1328,-2.7189,0.0,0.0,0.0,0.0,0.0,0.0,0.0,0.0,0.0,0.0,0.0,0.0,0.0,0.0,0.0,0.0,0.0,0.0,0.0,0.0,0.0,0.0,0.0,0.0,0.0,0.0,0.0,0.0,0.0,0.0,0.0,0.0,0.0,0.0,0.0,0.0,0.0,0.0,0.0,0.0,0.0,0.0,0.0,0.0,0.0,0.0,0.0,0.0,0.0,0.0,0.0,0.0,0.0,0.0,0.0,0.0,0.0,0.0,0.0,0.0,-2.6164,0.0,0.0,0.0,0.0,0.0,0.0,0.0,0.0,0.0,0.0,0.0,0.0,0.0,0.0,0.0,0.0,0.0,0.0,0.0,0.0,0.0,0.0,0.0,0.0,0.0,0.0,0.0,0.0,0.0,0.0,0.0,0.0,0.0,0.0,0.0,0.0,0.0,0.0,0.0,0.0,0.0,-3.2295,-3.6085,-3.8876,-4.0623,-4.0197,-3.9268,-3.8019,-3.4963,-3.1835,-2.8917,-2.3783,0.0,0.0,0.0,0.0,0.0,0.0,0.0,0.0,0.0,0.0,0.0,0.0,0.0,0.0,0.0,0.0,0.0,0.0,0.0,0.0,0.0,0.0,0.0,0.0,0.0,0.0,0.0,0.0,0.0,0.0,0.0,0.0,0.0,0.0,0.0,0.0,0.0,0.0,0.0,0.0,0.0,0.0,0.0,0.0,0.0,0.0,0.0,0.0,0.0,0.0,0.0,0.0,0.0,0.0,0.0,0.0,0.0,0.0,0.0,0.0,-2.8709,0.0,0.0,0.0,0.0,0.0,0.0,0.0,0.0,0.0,0.0,0.0,0.0,0.0,0.0,0.0,0.0,0.0,0.0,0.0,0.0,0.0,0.0,0.0,0.0,0.0,0.0,0.0,0.0,0.0,0.0,0.0,0.0,0.0,0.0,0.0,0.0,0.0,0.0,0.0,0.0,-3.1753,-3.5814,-3.856,-3.9456,-3.9539,-3.8804,-3.7135,-3.5007,-3.2469,-2.9485,-2.5289,0.0,0.0,0.0,0.0,0.0,0.0,0.0,0.0,0.0,0.0,0.0,0.0,0.0,0.0,0.0,0.0,0.0,0.0,0.0,0.0,0.0,0.0,0.0,0.0,0.0,0.0,0.0,0.0,0.0,0.0,0.0,0.0,0.0,0.0,0.0,0.0,0.0,0.0,0.0,0.0,0.0,0.0,0.0,0.0,0.0,0.0,0.0,0.0,0.0,0.0,0.0,0.0,0.0,-4.1557,-4.23,-4.2493,-4.3199,-4.39,-4.4285,-3.8549,-3.5584,-3.4609,-3.3034,0.0,0.0,0.0,0.0,0.0,0.0,0.0,0.0,0.0,0.0,0.0,0.0,0.0,0.0,0.0,0.0,0.0,0.0,0.0,0.0,0.0,0.0,0.0,0.0,-3.303,-3.1952,0.0,0.0,0.0,0.0,0.0,0.0,0.0,0.0,0.0,0.0,0.0,0.0,-3.1599,-3.5737,-3.8251,-3.8411,-3.8914,-3.8379,-3.6091,-3.4974,-3.3059,-2.9966,-2.6864,-2.4325,0.0,0.0,0.0,0.0,0.0,0.0,0.0,0.0,0.0,0.0,0.0,0.0,0.0,0.0,0.0,0.0,0.0,0.0,0.0,0.0,0.0,0.0,0.0,0.0,0.0,0.0,0.0,0.0,0.0,0.0,0.0,0.0,-2.4397,-2.5258,0.0,0.0,0.0,0.0,0.0,0.0,0.0,0.0,0.0,0.0,0.0,0.0,0.0,-3.9663,-4.1537,-4.4036,-4.5641,-4.6428,-4.6631,-4.714,-4.7881,-4.792,-4.8035,-4.8069,-4.7165,0.0,-3.9996,-3.9018,0.0,0.0,0.0,0.0,0.0,0.0,0.0,0.0,0.0,0.0,0.0,0.0,0.0,0.0,0.0,0.0,0.0,0.0,0.0,0.0,0.0,0.0,-3.7361,-3.7361,-3.7947,-3.8108,0.0,-3.3532,-3.0477,-2.878,-2.7073,0.0,0.0,0.0,0.0,0.0,0.0,0.0,-3.3388,-3.6477,-3.8489,-3.9268,-3.876,-3.7947,-3.6826,-3.5317,-3.3596,-3.1663,-2.9765,-2.7621,-2.5191,-2.2529,0.0,0.0,0.0,0.0,0.0,0.0,0.0,0.0,0.0,0.0,0.0,0.0,0.0,0.0,0.0,0.0,0.0,0.0,0.0,0.0,0.0,0.0,0.0,0.0,0.0,0.0,0.0,0.0,0.0,-2.607,-2.8302,-2.9201,-2.9318,-2.9084,0.0,0.0,0.0,0.0,0.0,0.0,0.0,0.0,0.0,-4.0249,-4.3255,-4.5948,-4.8174,-5.0789,-5.2275,-5.2669,-5.3102,-5.3533,-5.3922,-5.439,-5.4584,-5.4543,-5.4071,-5.2319,-4.948,-4.5155,-4.1431,-3.8245,0.0,0.0,0.0,0.0,-3.3876,-3.5123,-3.59,-3.5935,0.0,-3.4575,0.0,0.0,0.0,0.0,0.0,0.0,0.0,0.0,0.0,0.0,-4.037,-4.0352,-4.0616,-4.081,-4.0423,-3.8489,-3.5936,0.0,-3.1139,-2.9162,-2.5642,0.0,0.0,0.0,0.0,0.0,-3.3852,-3.7063,-3.8682,-3.8102,-3.8141,-3.7671,-3.6323,-3.5549,-3.4603,-3.3368,-3.2201,-3.0372,-2.7843,-2.5303,-2.2471,0.0,0.0,0.0,0.0,0.0,0.0,0.0,0.0,0.0,0.0,0.0,0.0,0.0,0.0,0.0,0.0,0.0,0.0,0.0,0.0,0.0,0.0,0.0,0.0,0.0,0.0,0.0,0.0,-2.9624,-3.2207,-3.33,-3.3614,-3.3496,0.0,0.0,0.0,0.0,0.0,0.0,-3.9585,-4.0991,-4.2982,-4.5597,-4.8564,-5.1297,-5.3678,-5.6059,-5.7231,-5.727,-5.7855,-5.8128,-5.8168,-5.8792,-5.8987,-5.8714,-5.8089,-5.7237,-5.5842,-5.0429,-4.6674,-4.4118,-4.1677,-4.0418,-3.9922,-3.8827,-3.9237,-4.0407,-4.0873,-4.0873,-4.0558,-3.9936,-3.8533,-3.6626,-3.4093,0.0,0.0,0.0,0.0,-3.6338,-3.8678,-4.0986,-4.2711,-4.2686,-4.2828,-4.2937,-4.2705,-4.2202,-4.05,0.0,-3.4659,-3.2836,-2.9007,0.0,0.0,0.0,0.0,-3.141,-3.4626,-3.7644,-3.8998,-3.7715,-3.7947,-3.7599,-3.6129,-3.582,-3.5222,-3.4139,-3.3507,-3.207,-2.9518,-2.7179,-2.4546,-2.1542,0.0,0.0,0.0,0.0,0.0,0.0,0.0,0.0,0.0,0.0,0.0,0.0,0.0,0.0,0.0,0.0,0.0,0.0,0.0,0.0,0.0,0.0,0.0,0.0,0.0,0.0,0.0,0.0,0.0,-3.6852,-3.7752,0.0,0.0,0.0,0.0,-4.0524,-4.3099,-4.4972,-4.5792,-4.6729,-4.8367,-5.0945,-5.278,-5.4615,-5.6372,-5.8128,-5.8985,-5.8985,-5.9024,-5.9024,-5.9024,-5.9063,-5.8636,-5.7855,-5.7816,-5.6885,-5.5254,-5.402,-5.1992,-4.9527,-4.7677,-4.5949,-4.4561,-4.5259,-4.5536,-4.5846,-4.7512,-4.755,-4.6851,-4.6807,-4.4005,-4.0189,-3.7622,-3.6172,0.0,0.0,-3.8631,-3.9756,-4.1457,-4.3206,-4.4454,-4.4454,-4.5053,-4.5413,-4.4639,-4.4439,-4.3124,0.0,-3.7328,-3.5853,-3.3223,0.0,-3.052,-3.1405,-3.2333,-3.3842,-3.6439,-3.8379,-3.9462,-3.9385,-3.8682,-3.7825,-3.6903,-3.6129,-3.4979,-3.3263,-3.3175,-3.205,-2.9502,-2.7756,-2.6026,-2.4243,-2.0816,0.0,0.0,0.0,0.0,0.0,0.0,0.0,0.0,0.0,0.0,0.0,0.0,0.0,0.0,0.0,0.0,0.0,0.0,0.0,0.0,0.0,0.0,0.0,0.0,0.0,0.0,0.0,0.0,-4.2045,-4.3997,0.0,-4.4426,-4.4387,-4.4855,-4.5987,-4.8486,-5.0321,-5.1219,-5.2624,-5.4068,-5.5474,-5.7192,-5.8402,-5.9026,-6.0198,-6.0781,-6.0781,-6.0781,-6.0781,-6.0781,-6.0781,-6.0315,-5.9456,-5.887,-5.7975,-5.6846,-5.5995,-5.4097,-5.1639,-5.0443,-4.9555,-4.8941,-4.8698,-4.895,-4.9417,-4.9487,-4.9283,-4.8837,-4.7748,-4.5934,-4.3933,-4.2495,-4.1053,-4.0155,-4.131,-4.1854,-4.2359,-4.3463,-4.461,-4.5485,-4.5441,-4.5654,-4.5486,-4.4066,-4.375,-4.2976,-4.0384,-3.9611,-3.876,-3.6742,-3.5007,-3.4156,-3.4969,-3.535,-3.6284,-3.8301,-3.9617,-4.012,-3.9578,-3.923,-3.845,-3.7019,-3.6632,-3.5748,-3.4056,-3.3442,-3.224,-3.0302,-2.8607,-2.6889,-2.5273,-2.2361,-2.0017,0.0,0.0,0.0,0.0,0.0,0.0,0.0,0.0,0.0,0.0,0.0,0.0,0.0,0.0,0.0,0.0,0.0,0.0,0.0,0.0,0.0,0.0,0.0,0.0,0.0,0.0,-4.4032,-4.6025,-4.8291,-4.9462,-4.8915,-4.8601,-4.8915,-5.0048,-5.1999,-5.3522,-5.4381,-5.5825,-5.7113,-5.8207,-5.9378,-6.0237,-6.0822,-6.1408,-6.1718,-6.1718,-6.1718,-6.1718,-6.1718,-6.1718,-6.1213,-6.0354,-5.9807,-5.9026,-5.8168,-5.7348,-5.596,-5.4335,-5.3473,-5.2913,-5.2544,-5.1929,-5.1915,-5.2032,-5.1164,-5.0672,-5.017,-4.8729,-4.7826,-4.7167,-4.6346,-4.5064,-4.4054,-4.4637,-4.4559,-4.4476,-4.5004,-4.5576,-4.5986,-4.5944,-4.5912,-4.5506,-4.404,-4.3524,-4.2976,-4.1854,-4.139,-4.0655,-3.8953,-3.7947,-3.7406,-3.7367,-3.7599,-3.8179,-3.9346,-4.0274,-4.0584,-4.0004,-3.9694,-3.892,-3.7444,-3.7058,-3.6057,-3.4095,-3.3166,-3.1973,-3.0351,-2.8617,-2.7215,-2.6144,-2.3267,-2.0923,-1.9183,0.0,0.0,0.0,0.0,0.0,0.0,0.0,0.0,0.0,0.0,0.0,0.0,0.0,0.0,0.0,0.0,0.0,0.0,0.0,0.0,0.0,0.0,0.0,-3.8311,-4.2418,-4.6095,-4.864,-5.0516,-5.157,-5.157,-5.0787,-5.0984,-5.2704,-5.3561,-5.442,-5.5318,-5.6138,-5.7387,-5.9063,-5.9102,-5.9922,-6.164,-6.1679,-6.1718,-6.1718,-6.1718,-6.1718,-6.1718,-6.1718,-6.1213,-6.0393,-6.0393,-5.9924,-5.9024,-5.8168,-5.7783,-5.7716,-5.6834,-5.5976,-5.5232,-5.5178,-5.4623,-5.3801,-5.2969,-5.2035,-5.1125,-5.0326,-5.0038,-4.9776,-4.8955,-4.8061,-4.7356,-4.7356,-4.6701,-4.6007,-4.6007,-4.6025,-4.6003,-4.6003,-4.5956,-4.5674,-4.4776,-4.3931,-4.3292,-4.3253,-4.2596,-4.1512,-3.9887,-4.0313,-4.0307,-3.856,-3.903,0.0,-3.9539,-4.0274,-4.0816,-4.0816,-4.0042,-3.9191,-3.829,-3.7444,-3.5831,-3.3263,-3.2313,-3.1127,-2.9416,-2.7749,-2.6882,-2.6936,-2.3578,-2.0998,-1.9228,0.0,0.0,0.0,0.0,0.0,0.0,0.0,0.0,0.0,0.0,0.0,0.0,0.0,0.0,0.0,0.0,0.0,0.0,0.0,0.0,0.0,0.0,-3.9992,-4.1922,-4.596,-4.9642,-5.2257,-5.4101,-5.5162,-5.5162,-5.4381,-5.4342,-5.5435,-5.5162,-5.5591,-5.7035,-5.6801,-5.7387,-5.9063,-5.9102,-5.9612,-6.0744,-6.1369,-6.1718,-6.1718,-6.1718,-6.1718,-6.1718,-6.1718,-6.1213,-6.0393,-6.0393,-5.9924,-5.9024,-5.8168,-5.7818,-5.7707,-5.6905,-5.6442,-5.621,-5.6205,-5.5663,-5.488,-5.4638,-5.3528,-5.2174,-5.1954,-5.1445,-5.0854,-5.062,-4.9491,-4.8323,-4.8323,-4.7276,-4.6146,-4.6146,-4.6142,-4.6134,-4.6078,-4.6051,-4.5828,-4.4948,-4.4067,-4.3269,-4.2609,-4.2804,-4.2892,-4.2338,-4.2434,-4.2241,-4.1119,-4.1158,0.0,-4.0507,-4.0661,-4.0816,-4.0816,-4.0584,-3.9843,-3.8328,-3.798,-3.6494,-3.3364,-3.1766,-3.0224,-2.8581,-2.6913,-2.5729,-2.5116,-2.3551,-2.1909,0.0,0.0,0.0,0.0,0.0,0.0,0.0,0.0,0.0,0.0,0.0,0.0,0.0,0.0,0.0,0.0,0.0,0.0,0.0,0.0,0.0,0.0,-4.0718,-4.4504,-4.6544,-4.9334,-5.1968,-5.4242,-5.5733,-5.656,-5.6604,-5.5474,-5.5279,-5.6528,-5.5786,-5.5864,-5.7231,-5.7153,-5.7738,-5.9063,-5.9102,-5.969,-6.0939,-6.1444,-6.1718,-6.1718,-6.1718,-6.1718,-6.1718,-6.1718,-6.1405,-6.0939,-6.0939,-6.0666,-6.0117,-5.9261,-5.8675,0.0,0.0,0.0,0.0,0.0,-5.6035,-5.5308,-5.5312,-5.41,-5.2606,-5.2594,-5.2023,-5.1249,-5.0859,-4.9806,-4.8557,-4.7852,-4.6683,-4.5669,-4.5669,-4.5669,-4.5747,-4.6053,-4.6115,-4.5868,-4.5,-4.4125,-4.3335,-4.2829,-4.3133,0.0,-4.3878,-4.3922,-4.3479,-4.2228,-4.2022,-4.1699,-4.0893,-4.0816,-4.0816,-4.0816,-4.0816,-4.0075,-3.8367,-3.8212,0.0,0.0,0.0,-3.0251,-2.8308,-2.7324,0.0,0.0,0.0,0.0,0.0,0.0,0.0,0.0,-2.0228,-2.063,0.0,0.0,0.0,0.0,0.0,0.0,0.0,0.0,0.0,0.0,0.0,0.0,0.0,0.0,0.0,0.0,-4.4618,-4.8748,-5.1125,-5.2387,-5.3621,-5.5173,-5.6038,-5.6511,-5.6563,-5.512,-5.4888,-5.6606,-5.5942,-5.5864,-5.684,0.0,0.0,0.0,0.0,-5.9883,-6.1522,-6.164,-6.1718,-6.1718,-6.1718,-6.1718,-6.1718,-6.1718,-6.1718,-6.1718,-6.1718,-6.1718,-6.164,-6.0744,-5.9846,-5.8792,-5.7231,-5.6606,-5.6606,-5.6606,-5.6098,-5.5437,-5.5446,0.0,0.0,-5.2773,-5.2179,-5.1302,-5.0404,-4.9467,-4.8413,-4.6926,-4.5794,-4.5052,-4.5052,-4.5052,-4.5249,-4.6032,-4.6183,-4.5902,-4.5125,-4.43,-4.3667,-4.3667,-4.3658,-4.3911,-4.4695,-4.4817,-4.4277,-4.2658,-4.2267,-4.1854,-4.1048,-4.0855,-4.0816,-4.0816,0.0,0.0,-3.8489,-3.8334,-3.6964,-3.3683,-3.2411,-3.0706,-2.8378,-2.8312,-2.8357,-2.8437,-2.7695,-2.7343,-2.7459,-2.6747,-2.6378,-2.6309,-2.5179,-2.5,0.0,0.0,0.0,0.0,0.0,0.0,0.0,0.0,0.0,0.0,0.0,0.0,0.0,0.0,0.0,-4.3346,-4.7646,-5.0969,-5.2177,-5.4324,-5.5857,-5.6191,-5.6413,-5.6509,-5.6511,-5.5623,-5.5747,-5.7426,-5.6801,-5.6996,-5.8556,-5.8089,-5.8207,-5.9063,-5.9102,-5.9612,-6.0627,-6.1369,-6.1718,-6.1718,0.0,0.0,-6.1718,-6.1718,-6.1718,-6.1718,-6.1718,-6.1718,-6.164,-6.0744,-5.9456,-5.7933,-5.6996,-5.6606,-5.6606,-5.6606,-5.6489,-5.6335,-5.6344,-5.5651,-5.4643,-5.3944,-5.3125,-5.2264,-5.1405,-5.0038,0.0,-4.8397,-4.7186,-4.6014,-4.6014,-4.6014,-4.6054,-4.6249,-4.6286,-4.6205,-4.605,-4.5266,-4.4638,-4.4638,-4.4672,-4.4738,-4.4872,-4.5355,-4.5382,-4.4354,-4.3557,-4.2744,-4.1893,-4.1203,-4.0816,-4.0816,-4.0816,-4.039,-3.9346,-3.9268,-3.8086,-3.5384,-3.2534,-3.0122,-2.8298,-2.8272,-2.8631,-2.9336,-2.918,-2.9453,-3.0156,-3.0622,-3.0849,-3.0794,-2.8454,-2.7411,0.0,0.0,0.0,0.0,0.0,0.0,0.0,0.0,0.0,0.0,0.0,-3.5772,-3.8878,0.0,-4.3665,-4.6303,-4.9694,-5.2255,-5.3112,-5.5147,-5.6488,-5.6507,-5.6485,-5.6503,-5.6555,-5.6172,-5.645,-5.7699,-5.7816,-5.8204,-5.9063,-5.9104,-5.93,-5.9729,-5.9768,-6.0159,-6.1056,-6.1483,-6.1718,-6.1718,-6.1718,-6.1718,-6.1718,-6.1718,-6.1718,-6.1718,-6.1718,-6.1718,-6.164,-6.0744,-5.9612,-5.8363,-5.7543,-5.6957,-5.6606,-5.6606,-5.6606,-5.6606,-5.6612,-5.6032,-5.5215,-5.479,-5.3779,-5.2531,-5.1672,-5.05,-4.9288,-4.843,-4.761,-4.6945,-4.6945,-4.6633,-4.6399,-4.6868,-4.6635,-4.6285,-4.6285,-4.5935,-4.5584,-4.5584,-4.5624,-4.5625,-4.562,-4.5894,-4.5655,-4.4307,-4.4045,-4.3379,-4.1656,-4.1451,-4.1284,-4.0834,-4.0784,-4.0468,-3.9578,-3.8324,-3.7084,-3.5843,-3.3382,-3.1423,-3.0211,-3.0186,-3.0427,-3.0898,-3.0898,-3.1328,-3.2148,-3.2538,-3.2769,-3.2724,-3.1781,-3.1307,0.0,0.0,0.0,0.0,0.0,0.0,0.0,0.0,-3.3593,-3.5154,-3.7977,-4.0723,-4.2557,-4.4802,-4.6912,-4.8588,-5.1078,-5.3112,-5.381,-5.5385,-5.6496,-5.6521,-5.6485,-5.6575,-5.6794,-5.6838,-5.7231,-5.8246,-5.8948,-5.9417,-5.961,-6.0276,-6.0666,-6.0666,-6.0666,-6.0978,-6.1679,-6.1718,-6.1718,-6.1718,-6.1718,-6.1718,-6.1718,-6.1718,-6.1718,-6.1718,-6.1718,-6.1718,-6.164,-6.0939,-6.0041,-5.9024,-5.8324,-5.7465,-5.6606,-5.6606,-5.6606,-5.6606,-5.6606,-5.6138,-5.5513,-5.5357,-5.4344,-5.3016,-5.196,-5.1023,-5.0046,-4.8523,-4.7977,-4.782,-4.782,-4.7315,-4.6924,-4.7469,-4.7042,-4.6495,-4.6339,-4.63,-4.63,-4.63,-4.6308,-4.6316,-4.6286,-4.6249,-4.5675,-4.4023,-4.4314,-4.3841,-4.1476,-4.1722,-4.1768,-4.0909,-4.0796,-4.0507,-3.981,-3.7577,-3.6154,-3.6039,-3.4643,-3.3379,-3.24,-3.2686,-3.2888,-3.293,-3.3086,-3.3516,-3.4141,-3.4179,-3.4061,-3.3904,-3.4742,-3.4876,-2.8007,-2.9605,-3.2241,-3.3203,-3.5152,-3.6871,0.0,0.0,-3.9593,-4.0557,-4.2296,-4.4181,-4.6014,-4.7301,-4.8457,-4.9493,-5.1964,-5.3771,-5.3888,-5.5416,-5.6484,-5.6517,-5.6497,-5.6818,-5.7604,-5.7653,-5.8363,-6.0002,-6.0198,-6.0588,-6.1366,-6.1483,-6.1562,-6.1562,-6.1562,-6.1601,-6.1718,-6.1718,-6.1718,-6.1718,-6.1718,-6.1718,-6.1718,-6.1718,-6.1718,-6.1718,-6.1718,-6.1718,-6.1679,-6.1601,-6.0586,-5.9102,-5.8987,-5.7972,-5.6606,-5.6606,-5.6606,-5.6606,-5.6606,-5.6528,-5.6333,-5.5552,-5.5164,-5.4695,-5.3055,-5.196,-5.1063,-5.0085,-4.9267,-4.8681,-4.8681,-4.8603,-4.8369,-4.7742,-4.7547,-4.7237,-4.6456,-4.63,-4.63,-4.63,-4.6308,-4.6315,-4.6282,-4.6289,-4.5929,-4.4916,-4.4757,-4.4129,-4.2287,-4.2096,-4.1781,-4.0909,-4.0814,-4.0777,-4.0661,-3.9049,-3.7667,-3.6902,-3.609,-3.4902,-3.33,-3.4758,-3.5584,-3.5586,-3.6328,-3.6758,-3.6875,-3.6875,-3.6484,-3.5742,-3.6589,-3.6109,-3.1171,-3.3043,-3.584,0.0,-3.9164,-4.138,-4.138,-4.2335,-4.3453,-4.4266,-4.5854,-4.7294,-4.8087,-4.9101,-5.0136,0.0,-5.2757,-5.4082,-5.4589,-5.5268,-5.5747,-5.5723,-5.4892,-5.5028,-5.6909,-5.7541,-5.8324,-5.9534,-6.0588,-6.133,-6.1679,-6.1718,-6.1718,-6.1718,-6.1718,-6.1718,-6.1718,-6.1718,-6.1718,-6.1718,-6.1718,-6.1718,-6.1718,-6.1718,-6.1718,-6.1718,-6.1718,-6.1718,-6.1718,-6.1718,-6.0978,-5.9807,-5.93,-5.8363,-5.7231,-5.6762,-5.6606,-5.6606,-5.6606,-5.6606,-5.6528,-5.6177,-5.5708,-5.5164,-5.4422,-5.3249,-5.2078,-5.1726,-5.0984,-5.0321,-5.0321,-4.993,-4.946,-4.9148,-4.8328,-4.7508,-4.7159,-4.6651,-4.63,-4.63,-4.6303,-4.6306,-4.6311,-4.6281,-4.5818,-4.4414,-4.4629,-4.4116,-4.186,-4.1516,-4.1116,-4.0184,-4.0542,-4.0842,-4.0842,-3.9335,-3.8213,-3.7828,-3.6637,-3.5433,-3.4208,-3.4879,-3.5233,-3.5234,-3.6094,-3.6797,-3.7305,-3.7812,-3.7851,-3.7539,-3.7882,-3.762,-3.354,0.0,0.0,-3.9775,-4.2555,-4.5038,-4.5038,-4.5736,-4.6462,-4.6806,-4.8067,-4.9067,-4.8917,-4.9735,-5.0782,-5.1791,-5.3058,-5.4199,-5.5095,-5.5424,-5.5475,-5.5244,-5.3907,-5.3772,-5.5658,-5.6602,-5.766,-5.8985,-6.051,-6.1444,-6.1679,-6.1718,-6.1718,-6.1718,-6.1718,-6.1718,-6.1718,-6.1718,-6.1718,-6.1718,-6.1718,-6.1718,-6.1718,-6.1718,-6.1718,-6.1718,-6.1718,-6.1718,-6.1718,-6.1718,-6.1174,-6.0354,-5.9729,-5.8792,-5.7738,-5.7153,-5.6801,-5.6606,-5.6606,-5.6606,-5.6606,-5.6606,-5.6177,-5.5591,-5.5357,-5.4264,-5.3014,-5.2782,-5.2078,-5.1414,-5.1414,-5.0945,-5.0397,-5.0163,-4.8992,-4.7859,-4.7664,-4.6924,-4.63,-4.63,-4.63,-4.63,-4.63,-4.6308,-4.5726,-4.3968,-4.4258,-4.3697,-4.1065,-4.0489,-4.0247,-4.0018,-4.0321,-4.0671,-4.0909,-3.9583,-3.8643,-3.8438,-3.7343,-3.6312,-3.5466,-3.5897,-3.6132,-3.6133,-3.6992,-3.7617,-3.8008,-3.8633,-3.8828,-3.8594,-3.8823,-3.8887,0.0,0.0,-4.0607,-4.2259,-4.5201,-4.7674,-4.7674,-4.8372,-4.8754,-4.7941,-4.8487,-4.8876,-4.8189,-4.8926,-4.9938,-5.0875,-5.263,-5.4199,-5.5095,-5.5918,-5.6164,-5.5283,-5.439,-5.3894,0.0,-5.4836,-5.6411,-5.8907,-5.9924,-6.0822,-6.164,-6.1718,-6.1718,-6.1718,-6.1718,-6.1718,-6.1718,-6.1718,-6.1718,-6.1718,-6.1718,-6.1718,-6.1718,-6.1718,-6.1718,-6.1718,-6.1718,-6.1718,-6.1718,-6.1718,-6.1174,-6.0393,-6.0354,-5.93,-5.7816,-5.7777,-5.727,-5.6606,-5.6606,-5.6606,-5.6606,-5.6606,-5.6567,-5.6411,-5.5552,-5.4654,-5.3795,-5.2938,-5.2078,-5.1414,-5.1414,-5.1375,-5.1141,-5.0319,-4.9423,-4.8564,-4.7781,-4.6924,-4.63,-4.63,-4.63,-4.63,-4.63,-4.6308,-4.5726,-4.3968,-4.37,-4.2809,-4.0195,-3.9086,-3.9202,-4.0799,-4.0205,-4.0088,-4.0948,-4.0198,-3.9327,-3.8566,-3.8504,-3.8122,-3.7266,-3.8828,-3.9726,-3.9726,-4.0586,-4.0625,-3.9805,-3.9844,-3.9414,-3.8633,-3.9411,-3.9754,-3.6337,0.0,-4.2374,-4.4055,-4.6577,-4.864,-4.864,-4.9289,-4.9519,-4.8094,-4.757,-4.7144,-4.6416,-4.716,-4.8372,-4.9873,-5.2246,-5.4199,-5.5095,-5.545,-5.5528,-5.5225,-5.3405,0.0,0.0,0.0,0.0,-5.7219,-5.8702,-5.9917,-6.0783,-6.1408,-6.1718,-6.1718,-6.1718,-6.1718,-6.1718,-6.1718,-6.1718,-6.1718,-6.1718,-6.1718,-6.1718,-6.1718,-6.1718,-6.1718,-6.1718,-6.1718,-6.1718,-6.1718,-6.1522,-6.1213,-6.0627,-5.969,-5.8597,-5.8011,-5.7309,-5.6606,-5.6606,-5.6606,-5.6606,-5.6606,-5.6606,-5.6567,-5.6255,-5.5162,-5.3951,-5.3639,-5.2507,-5.1414,-5.1414,-5.1414,-5.1336,-5.1023,-4.9852,-4.872,-4.8447,-4.7276,-4.63,-4.63,-4.63,-4.63,-4.63,-4.6303,-4.5914,-4.4742,-4.2647,-4.0858,-3.9922,-3.9055,-3.8923,-4.0077,-3.9956,-4.0112,-4.097,-3.9774,-3.8848,-3.8582,-3.7495,-3.6991,-3.7305,-3.7851,-3.8437,-3.9023,-3.9883,-4.0195,-3.9883,-4.0469,-4.0625,-4.0312,-4.0545,-4.0659,-3.8897,-4.1762,-4.4475,-4.5851,-4.7876,-4.9442,-4.9186,-4.948,-4.9328,-4.7341,-4.5965,-4.5041,-4.4576,-4.5139,-4.6447,-4.8832,-5.1575,-5.3765,-5.4942,-5.5419,-5.5502,-5.519,-5.3684,0.0,0.0,0.0,0.0,-5.5915,-5.7367,-5.8816,-6.0307,-6.1249,-6.1718,-6.1718,-6.1718,-6.1718,-6.1718,-6.1718,-6.1718,-6.1718,-6.1718,-6.1718,-6.1718,-6.1718,-6.1718,-6.1718,-6.1718,-6.1718,-6.1718,-6.1718,-6.1718,-6.164,-6.1095,-6.0159,-5.9024,-5.848,-5.7543,-5.6606,-5.6606,-5.6606,-5.6606,-5.6606,-5.6606,-5.6606,-5.6606,-5.5591,-5.4381,-5.4108,-5.2975,-5.1804,-5.1492,-5.1414,-5.1414,-5.1414,-5.0321,-4.9189,-4.8876,-4.7744,-4.6651,-4.6378,-4.63,-4.63,-4.63,-4.6027,-4.5636,-4.5088,-4.233,-4.0426,-4.0702,-3.9453,-3.8983,-4.0152,-3.9722,-3.972,-4.0618,-3.9409,-3.8473,-3.8161,-3.7069,-3.6875,-3.7734,-3.7773,-3.832,-3.9492,-4.0078,-4.0351,-4.0351,-4.0937,-4.1211,-4.1211,-4.1171,-4.1132,-4.2068,-4.4781,-4.6844,-4.7712,-4.9137,-5.0092,-4.9289,-4.911,-4.8345,-4.5708,-4.3787,-4.2594,-4.2621,0.0,-4.4088,-4.7625,-5.05,-5.2918,-5.4663,-5.5703,-5.603,0.0,0.0,0.0,0.0,0.0,0.0,-5.5223,0.0,-5.7679,-6.0216,-6.1203,-6.1718,-6.1718,-6.1718,-6.1718,-6.1718,-6.1718,-6.1718,-6.1718,-6.1718,-6.1718,-6.1718,-6.1718,-6.1718,-6.1718,-6.1718,-6.1718,-6.1718,-6.1718,-6.1718,-6.1718,-6.1718,-6.0664,-5.9141,-5.9102,-5.8089,-5.6645,-5.6606,-5.6606,-5.6606,-5.6606,-5.6606,-5.6606,-5.6606,-5.5981,-5.5123,-5.4303,-5.3405,-5.2509,-5.1687,-5.1414,-5.1414,-5.1414,-5.0748,-4.985,-4.9032,-4.8213,-4.7352,-4.6534,-4.6339,-4.63,-4.63,-4.5597,-4.501,-4.5049,-4.2825,-4.1464,-4.2212,-4.0103,-3.9168,-4.0853,-3.9525,-3.8902,-3.9802,-3.91,-3.8242,-3.7422,-3.7383,-3.7773,-3.8633,-3.8672,-3.9453,-4.1172,-4.1211,-4.1211,-4.1211,-4.1211,-4.1211,-4.1211,-4.1211,-4.1211,-4.4819,-4.6959,-4.864,-4.948,-4.9977,-5.0092,-4.9289,-4.911,-4.8028,-4.4208,-4.1571,-3.9794,-3.9206,0.0,0.0,-4.4693,-4.8624,0.0,-5.3628,-5.5217,0.0,-5.6783,0.0,-5.6058,-5.6459,-5.5353,0.0,0.0,-5.7251,-5.8038,-5.9378,-6.0828,-6.1654,-6.1705,-6.1705,-6.171,-6.1718,-6.1718,-6.1718,-6.1718,-6.1718,-6.1718,-6.1718,-6.1718,-6.1718,-6.1718,-6.1718,-6.1718,-6.1718,-6.1718,-6.1718,-6.1718,-6.1718,-6.1017,-6.0002,-5.9339,-5.8402,-5.7426,-5.6801,-5.6606,-5.6606,-5.6606,-5.6606,-5.6606,-5.6606,-5.5981,-5.524,-5.5044,-5.3873,-5.2665,-5.2431,-5.1882,-5.1414,-5.1414,-5.0748,-5.0046,-4.9811,-4.864,-4.7547,-4.7313,-4.6729,-4.63,-4.63,-4.5597,-4.5207,-4.587,-4.3723,-4.1892,-4.1508,-3.9205,-3.8309,-4.0032,-3.8666,-3.8238,-3.9763,-3.91,-3.8515,-3.8281,-3.8281,-3.8672,-3.9531,-3.957,-4.0078,-4.1172,-4.1211,-4.1211,-4.1211,-4.1211,-4.1211,-4.1211,-4.1211,-4.1211,-4.7073,-4.8602,-4.9748,-5.0206,-5.0015,-4.9442,-4.822,-4.7379,-4.5774,-4.1915,-3.882,0.0,-3.7198,0.0,0.0,0.0,0.0,0.0,-5.2128,-5.4157,-5.5722,0.0,-5.6133,0.0,-5.7273,-5.6823,-5.69,0.0,-5.7907,-5.8336,-5.9552,-6.0889,-6.1602,-6.1651,-6.1696,-6.1705,-6.1718,-6.1718,-6.1718,-6.1718,-6.1718,-6.1718,-6.1718,-6.1718,-6.1718,-6.1718,0.0,-6.1718,-6.1718,-6.1718,-6.1718,-6.1718,-6.1718,-6.1174,-6.0276,-5.9417,-5.8558,-5.766,-5.6879,-5.6606,-5.6606,-5.6606,-5.6606,-5.6606,-5.6606,-5.6255,-5.5786,-5.5396,-5.4303,-5.3171,-5.2782,-5.2038,-5.1414,-5.1414,-5.1023,-5.0553,-5.0163,-4.907,-4.79,-4.7159,-4.6612,-4.63,-4.63,-4.587,-4.5753,-4.6222,-4.4738,-4.2944,-4.1309,-3.9513,-3.8772,-3.9753,-3.8661,-3.8545,-4.0267,-3.9292,-3.8747,-3.914,-3.8828,-3.8984,-3.9844,-3.9883,-4.0312,-4.1172,-4.1211,-4.1211,-4.1211,-4.1211,-4.1367,-4.1719,-4.1719,-4.1914,-4.9022,-4.9939,-5.0436,-5.0206,-4.9633,-4.8613,-4.6615,-4.4847,-4.2669,-3.9202,0.0,-3.3983,-3.5629,-3.5446,-3.6719,-4.181,0.0,-4.9433,-5.0574,-5.2794,-5.4431,-5.4779,-5.5504,-5.6384,-5.7466,-5.8317,-5.8827,-5.8983,-5.8492,-5.8802,-6.0179,-6.1101,-6.1584,-6.1591,-6.1648,-6.1702,-6.1674,-6.1674,-6.1674,-6.1674,-6.1674,-6.1674,-6.1674,-6.1715,-6.1715,-6.1715,-6.1718,0.0,-6.1718,-6.1718,-6.1718,-6.1718,-6.1718,-6.1252,-6.0432,-5.9456,-5.8636,-5.7855,-5.6918,-5.6606,-5.6606,-5.6606,-5.6606,-5.6606,-5.6606,-5.6606,-5.645,-5.5708,-5.4771,-5.3834,-5.3053,-5.2156,-5.1414,-5.1414,-5.1414,-5.118,-5.0436,-4.9501,-4.8291,-4.6612,-4.63,-4.63,-4.63,-4.63,-4.63,-4.63,-4.5558,-4.4075,-4.1422,-4.0327,-3.9741,-3.9663,-3.8923,-3.916,-4.0961,-3.9674,-3.9132,-3.9998,-3.9334,-3.9257,-4.0039,-4.0078,-4.043,-4.1172,-4.1211,-4.1211,-4.1211,-4.1211,-4.1601,-4.2383,-4.2383,-4.2851,-5.1085,-5.1276,-5.1047,-4.9633,-4.9213,-4.8258,-4.5152,-4.3138,0.0,0.0,0.0,-3.1186,-3.2187,-3.2798,0.0,-3.9927,0.0,0.0,0.0,0.0,-5.3147,0.0,0.0,0.0,0.0,0.0,0.0,0.0,0.0,-6.0329,-6.0137,-6.0995,-6.1544,-6.1608,-6.163,-6.1602,-6.1605,-6.1605,-6.1605,-6.1605,-6.1605,-6.1605,-6.1605,-6.1657,-6.1702,-6.1702,-6.1715,0.0,-6.1718,-6.1718,-6.1718,-6.1718,-6.1718,-6.1601,-6.1288,-5.9688,-5.8985,-5.8675,-5.7113,-5.6606,-5.6606,-5.6606,-5.6606,-5.6606,-5.6606,-5.6606,-5.6567,-5.6411,-5.524,-5.3951,-5.3795,-5.2585,-5.1414,-5.1414,-5.1414,-5.1375,-5.1219,-4.993,-4.8291,-4.6612,-4.63,-4.63,-4.63,-4.63,-4.63,-4.63,-4.5558,-4.4075,-4.1422,-4.0327,-3.9546,-3.8884,-3.8025,-3.8495,-4.0883,-4.022,-4.003,-4.0857,-4.074,-4.0741,-4.0976,-4.0976,-4.1055,-4.1211,-4.1211,-4.1211,-4.1211,-4.1211,-4.1601,-4.2383,-4.2383,-4.2851,-5.1047,-5.1238,-5.12,-4.9519,-4.8411,-4.6844,-4.3482,0.0,0.0,0.0,-3.0949,-2.9153,-2.9987,0.0,0.0,0.0,0.0,0.0,0.0,0.0,0.0,0.0,0.0,0.0,0.0,0.0,0.0,0.0,0.0,-6.0838,-6.0647,-6.1136,-6.1507,-6.1599,-6.1612,-6.1584,-6.1595,-6.1595,-6.1595,-6.1595,-6.1595,-6.1595,-6.1595,-6.1644,-6.1651,-6.1699,-6.1705,0.0,-6.1718,-6.1718,-6.1718,-6.1718,-6.1718,-6.1718,-6.1483,-5.9727,-5.9102,-5.8868,-5.7192,-5.6606,-5.6606,-5.6606,-5.6606,-5.6606,-5.6606,-5.6606,-5.6606,-5.6606,-5.5357,-5.399,-5.399,-5.2702,-5.1414,-5.1414,-5.1414,-5.1297,-5.0828,-4.9696,-4.8447,-4.7198,-4.6612,-4.63,-4.63,-4.63,-4.63,-4.63,-4.5948,-4.4894,-4.2749,-4.1693,-4.0483,-3.8767,-3.822,-3.9198,-4.2207,-4.1699,-4.1742,-4.3038,-4.2687,-4.2456,-4.2499,-4.2499,-4.25,-4.25,-4.25,-4.25,-4.25,-4.25,-4.293,-4.375,-4.375,-4.4219,-5.1085,-5.1353,-5.1429,-4.9557,-4.7646,-4.5316,-4.1762,-3.8247,0.0,0.0,-2.8924,-2.7396,-2.823,0.0,0.0,0.0,0.0,0.0,0.0,0.0,0.0,0.0,0.0,0.0,0.0,0.0,0.0,0.0,0.0,0.0,-6.1086,-6.1252,-6.1421,-6.1564,-6.1564,-6.1573,-6.1556,-6.1556,-6.1556,-6.1556,-6.156,-6.1564,-6.1569,-6.158,-6.1634,-6.1693,-6.1696,0.0,0.0,-6.1718,-6.1718,-6.1718,-6.1718,-6.1601,-6.121,-5.9688,-5.8987,-5.8597,-5.7113,-5.6606,-5.6606,-5.6606,-5.6606,-5.6606,-5.6606,-5.6606,-5.6606,-5.6606,-5.5357,-5.399,-5.399,-5.2702,-5.1414,-5.1414,-5.1414,-5.118,-5.028,-4.9577,-4.8798,-4.7781,-4.7042,-4.6534,-4.6339,-4.63,-4.63,-4.63,-4.63,-4.5675,-4.392,-4.3099,-4.1693,-3.9118,-3.8689,-3.9899,-4.3138,-4.263,-4.2946,-4.4866,-4.4163,-4.37,-4.3709,-4.3709,-4.371,-4.3711,-4.3711,-4.3711,-4.3711,-4.3711,-4.4141,-4.5,-4.5,-4.5469,-5.2805,-5.2614,-5.2117,-4.9721,-4.7237,-4.4322,-4.0157,0.0,0.0,-2.9674,-2.7166,-2.5682,-2.6479,-2.7358,-2.9032,-3.2508,0.0,0.0,0.0,0.0,0.0,0.0,0.0,0.0,0.0,0.0,0.0,0.0,0.0,0.0,-6.107,-6.1186,-6.1283,-6.1408,-6.1408,-6.1415,-6.1415,-6.1415,-6.1415,-6.1415,-6.1408,-6.1433,-6.1501,-6.1554,-6.1599,-6.1598,-6.1654,0.0,0.0,-6.1718,-6.1718,-6.1718,-6.1718,-6.1213,-6.0393,-5.9456,-5.8597,-5.7777,-5.6918,-5.6606,-5.6606,-5.6606,-5.6606,-5.6606,-5.6606,-5.6606,-5.6606,-5.6606,-5.5357,-5.399,-5.399,-5.2702,-5.1414,-5.1414,-5.1414,-5.118,-5.028,-5.0046,-4.9499,-4.7899,-4.7547,-4.7237,-4.6456,-4.63,-4.63,-4.63,-4.63,-4.5675,-4.392,-4.3645,-4.2591,-3.9976,-3.904,-3.9665,-4.2318,-4.1732,-4.2283,-4.4827,-4.4163,-4.37,-4.3709,-4.3709,-4.371,-4.3711,-4.3711,-4.3711,-4.3711,-4.3711,-4.4141,-4.5,-4.5,-4.5469,-5.0677,-5.1314,-5.1353,-4.8296,-4.6003,-4.3291,-3.8582,0.0,-3.1209,-2.8688,-2.6599,-2.5306,-2.5606,-2.637,-2.7854,-3.072,-3.3586,-3.6642,0.0,0.0,0.0,0.0,0.0,0.0,0.0,0.0,0.0,0.0,0.0,0.0,-6.0804,-6.0882,-6.1022,-6.1148,-6.1156,-6.1156,-6.1156,-6.1156,-6.1156,-6.1156,-6.1205,-6.1267,-6.1389,-6.1433,-6.1515,-6.1598,-6.1644,0.0,0.0,-6.1718,-6.1408,-6.0939,-6.0939,-6.0393,-5.9495,-5.8636,-5.8089,-5.766,-5.6879,-5.6606,-5.6606,-5.6606,-5.6606,-5.6606,-5.6606,-5.6606,-5.6606,-5.6606,-5.5708,-5.4654,-5.4147,-5.2702,-5.1414,-5.1414,-5.1414,-5.1297,-5.0945,-5.0475,-4.9889,-4.9226,-4.8289,-4.7508,-4.7159,-4.6651,-4.63,-4.63,-4.63,-4.6066,-4.5363,-4.4348,-4.3099,-4.1537,-4.0132,-3.9937,-4.1498,-4.1304,-4.2202,-4.4821,-4.4663,-4.4708,-4.5226,-4.4757,-4.4487,-4.4491,-4.3984,-4.3945,-4.4492,-4.4492,-4.4922,-4.5781,-4.5781,-4.5976,-4.8919,-5.0321,-5.0844,-4.7674,-4.5048,-4.202,0.0,-3.3272,-3.0032,-2.7778,-2.6179,-2.5191,-2.5191,-2.5644,-2.6791,-2.9077,-3.1377,-3.4044,-3.7406,0.0,0.0,0.0,0.0,0.0,0.0,0.0,0.0,0.0,0.0,0.0,0.0,-6.0622,-6.075,-6.0943,-6.0943,-6.0943,-6.0943,-6.0943,-6.0943,-6.0943,-6.1022,-6.1122,-6.1237,-6.1327,-6.1439,-6.156,-6.1569,0.0,0.0,-6.1392,-6.0966,-6.0383,-6.0112,-5.949,-5.8631,-5.8011,-5.766,-5.7348,-5.6801,-5.6606,-5.6606,-5.6606,-5.6606,-5.6606,-5.6606,-5.6606,-5.6606,-5.6606,-5.5981,-5.5044,-5.3912,-5.2702,-5.1726,-5.1453,-5.1414,-5.1414,-5.1414,-5.0906,-5.0397,-5.0163,-4.9148,-4.8172,-4.7703,-4.7081,-4.6612,-4.6339,-4.63,-4.63,-4.63,-4.5246,-4.4036,-4.2903,-4.1693,-4.0991,-4.1109,-4.1109,-4.2123,-4.4465,-4.4855,-4.5288,-4.5883,-4.557,-4.5381,-4.5389,-4.4764,-4.4765,-4.5391,-4.5391,-4.5703,-4.6289,-4.6289,-4.6289,-4.8422,-5.0321,-5.0997,-4.8437,-4.4628,-4.0425,0.0,-3.1943,-2.8434,-2.6746,-2.5759,-2.5191,-2.5191,-2.5191,-2.5759,-2.7434,-2.9153,-3.1408,-3.477,0.0,0.0,0.0,0.0,0.0,0.0,0.0,0.0,0.0,0.0,0.0,0.0,-6.0384,-6.052,-6.0781,-6.0793,-6.0793,-6.0793,-6.0793,-6.0793,-6.0793,-6.0877,-6.0982,-6.1089,-6.1178,-6.1313,0.0,0.0,0.0,0.0,-6.0733,-6.0428,-6.0314,-5.9469,-5.8577,-5.7799,-5.7812,-5.7309,-5.6606,-5.6606,-5.6606,-5.6606,-5.6606,-5.6606,-5.6606,-5.6606,-5.6606,-5.6606,-5.6606,-5.5981,-5.489,-5.3173,-5.2704,-5.247,-5.1609,-5.1414,-5.1414,-5.1414,-5.1375,-5.1141,-5.028,-5.0085,-4.9538,-4.7899,-4.7586,-4.7276,-4.6417,-4.63,-4.63,-4.63,-4.6261,-4.5597,-4.3881,-4.3686,-4.2944,-4.1265,-4.1109,-4.1851,-4.3608,-4.4504,-4.5015,-4.5022,-4.5844,-4.6279,-4.6287,-4.6287,-4.6288,-4.6289,-4.6289,-4.6289,-4.6289,-4.6289,-4.6289,-4.3365,-4.5562,-4.6691,-4.4131,-4.1648,-3.8706,-3.4456,-3.1095,-2.8421,-2.6746,-2.5759,-2.5191,-2.5191,-2.5191,-2.5759,-2.7434,-2.8618,0.0,0.0,0.0,0.0,0.0,0.0,0.0,0.0,0.0,0.0,0.0,0.0,0.0,0.0,-6.0422,-6.0464,-6.0506,-6.052,-6.052,-6.052,-6.052,-6.052,-6.052,-6.061,-6.0695,-6.0817,-6.0892,-6.1002,0.0,0.0,0.0,0.0,-6.0351,-5.9611,-5.8595,-5.8325,-5.7671,-5.6899,-5.6904,-5.6794,-5.6606,-5.6606,-5.6606,-5.6606,-5.6606,-5.6606,-5.6606,-5.6606,-5.6606,-5.6606,-5.6606,-5.5981,-5.5044,-5.3873,-5.3132,-5.247,-5.1609,-5.1414,-5.1414,-5.1414,-5.1414,-5.1336,-5.1023,-5.0514,-4.9928,-4.9382,-4.8367,-4.7508,-4.7237,-4.669,-4.63,-4.63,-4.5792,-4.5207,-4.466,-4.3528,-4.2357,-4.1187,-4.1109,-4.1578,-4.2747,-4.3645,-4.4389,-4.4976,-4.5249,-4.5411,-4.542,-4.4834,-4.4838,-4.5429,-4.5429,-4.5703,-4.6289,-4.6289,-4.6289,-3.8347,-4.0731,-4.1877,-3.9661,-3.7865,-3.5679,-3.2088,-2.9567,-2.758,-2.6217,-2.5535,-2.5191,-2.5191,-2.5191,-2.5644,-2.6975,-2.7892,0.0,0.0,0.0,0.0,0.0,0.0,0.0,0.0,0.0,0.0,0.0,0.0,0.0,0.0,-6.0422,-6.0422,-6.0422,-6.0422,-6.0422,-6.0422,-6.0422,-6.0422,-6.0422,-6.0491,-6.0559,-6.0671,-6.0742,-6.0839,0.0,0.0,0.0,0.0,-5.9419,-5.8587,-5.7667,-5.7334,-5.6925,-5.6471,-5.6485,-5.6539,-5.6553,-5.6558,-5.656,-5.656,-5.6604,-5.6606,-5.6606,-5.6606,-5.6606,-5.6606,-5.6606,-5.6216,-5.5513,-5.4303,-5.36,-5.2897,-5.1687,-5.1414,-5.1414,-5.1414,-5.1414,-5.1414,-5.1414,-5.0945,-5.0475,-5.0163,-4.9226,-4.8328,-4.7703,-4.7159,-4.6651,-4.6339,-4.5831,-4.5363,-4.5049,-4.4034,-4.3021,-4.2163,-4.15,-4.1343,-4.1888,-4.3021,-4.3957,-4.4504,-4.5129,-4.5483,-4.5492,-4.4945,-4.4951,-4.5506,-4.5507,-4.5781,-4.6289,-4.6289,-4.6289,0.0,-3.5857,-3.7016,-3.5335,-3.3769,-3.1935,-2.9407,-2.7542,0.0,-2.5382,-2.5191,-2.5191,-2.5191,-2.5191,-2.5497,-2.6447,-2.7319,0.0,0.0,0.0,0.0,0.0,0.0,0.0,0.0,0.0,0.0,0.0,0.0,0.0,0.0,-6.0422,-6.0422,-6.0422,-6.0422,-6.0422,-6.0422,-6.0422,-6.0422,-6.0422,-6.0439,-6.0506,-6.0495,-6.0559,-6.058,0.0,0.0,0.0,0.0,-5.8087,-5.7448,-5.7295,-5.658,-5.6319,-5.6393,-5.6472,-5.6503,-5.6485,-5.65,-5.6506,-5.6509,-5.6563,-5.6606,-5.6606,-5.6606,-5.6606,-5.6606,-5.6606,-5.6606,-5.6216,-5.4459,-5.399,-5.3561,-5.1804,-5.1414,-5.1414,-5.1414,-5.1414,-5.1414,-5.1414,-5.1414,-5.1141,-5.0319,-5.0124,-4.9577,-4.8016,-4.7664,-4.7313,-4.6495,-4.6339,-4.5987,-4.5088,-4.4932,-4.4543,-4.3684,-4.2163,-4.1265,-4.1265,-4.2866,-4.3801,-4.3801,-4.5402,-4.6305,-4.6312,-4.6312,-4.6318,-4.6287,-4.6289,-4.6289,-4.6289,-4.6289,-4.6289,-2.6809,0.0,-3.4391,-3.2699,-3.2035,-3.1102,0.0,-2.7166,-2.6179,-2.5382,-2.5191,-2.5191,-2.5191,-2.5191,-2.5879,-2.7975,-2.9045,0.0,0.0,0.0,0.0,0.0,0.0,0.0,0.0,0.0,0.0,0.0,0.0,0.0,0.0,-6.0422,-6.0422,-6.0422,-6.0422,-6.0422,-6.0422,-6.0422,-6.0422,-6.0422,-6.0436,-6.0067,-5.9456,-5.9483,-5.9165,0.0,0.0,0.0,-5.7569,-5.7265,-5.6789,-5.6272,-5.6133,-5.6149,-5.6253,-5.6324,-5.6429,-5.6485,-5.6488,-5.6497,-5.6509,-5.6563,-5.6606,-5.6606,-5.6606,-5.6606,-5.6606,-5.6606,-5.6606,-5.6216,-5.4459,-5.399,-5.3561,-5.1804,-5.1414,-5.1414,-5.1414,-5.1414,-5.1414,-5.1414,-5.1414,-5.1336,-5.1141,-5.0553,-4.9967,-4.9577,-4.8406,-4.7547,-4.7313,-4.6729,-4.5987,-4.5088,-4.4387,-4.3645,-4.2786,-4.2942,-4.31,-4.31,-4.4114,-4.4699,-4.4699,-4.5714,-4.6302,-4.6303,-4.6309,-4.6313,-4.6317,-4.6283,-4.6285,-4.6285,-4.6287,-4.6288,-2.502,-2.7711,-3.0091,-2.8803,-2.8852,-2.8695,-2.6943,-2.6179,-2.572,-2.5306,0.0,-2.5191,-2.5191,-2.5497,-2.6447,-2.8542,-3.03,0.0,0.0,0.0,0.0,0.0,0.0,0.0,0.0,0.0,0.0,0.0,0.0,0.0,0.0,-5.9262,-5.9262,-5.9262,-5.9262,-5.9606,-6.0384,-6.0422,-6.0422,-6.0422,-5.9988,-5.9568,-5.9095,-5.8727,-5.8307,0.0,0.0,0.0,-5.6844,-5.6489,-5.6123,-5.5808,-5.5882,-5.5993,-5.6107,-5.6162,-5.6286,-5.6359,-5.6411,-5.6437,-5.6464,-5.6485,-5.6533,-5.6536,-5.6536,-5.6548,-5.6558,-5.6604,-5.6606,-5.6216,-5.4459,-5.399,-5.3561,-5.1804,-5.1414,-5.1414,-5.1414,-5.1414,-5.1414,-5.1414,-5.1414,-5.1414,-5.1414,-5.1023,-5.0553,-5.0163,-4.8992,-4.8017,-4.7664,-4.6495,-4.5363,-4.4504,-4.3606,-4.2903,-4.2435,-4.3216,-4.3528,-4.3138,-4.4309,-4.501,-4.501,-4.5831,-4.63,-4.63,-4.6309,-4.6312,-4.6312,-4.6319,-4.6282,-4.6282,-4.6286,-4.6287,-2.542,-2.6097,-2.6365,-2.5614,-2.6232,-2.6714,-2.5797,0.0,0.0,0.0,0.0,0.0,0.0,-2.6332,0.0,0.0,0.0,0.0,0.0,0.0,0.0,0.0,0.0,0.0,0.0,0.0,0.0,0.0,0.0,0.0,0.0,-5.7886,-5.7886,-5.7886,-5.7886,-5.8574,-5.9988,-6.004,-6.004,-6.0002,-5.9262,-5.8842,-5.8689,-5.8001,-5.7619,-5.7466,0.0,0.0,-5.6522,-5.5853,-5.5604,-5.566,-5.5728,-5.5837,-5.5938,-5.6024,-5.6071,-5.6149,-5.622,-5.6269,-5.6319,-5.6344,-5.6368,-5.6429,-5.6437,-5.6468,-5.6497,-5.6558,-5.6604,-5.6216,-5.4459,-5.399,-5.3561,-5.1804,-5.1414,-5.1414,-5.1414,-5.1412,-5.1412,-5.141,-5.1408,-5.1408,-5.1408,-5.141,-5.1139,-5.0397,-4.9579,-4.8759,-4.8055,-4.6454,-4.5051,-4.4192,-4.3333,-4.2708,-4.2435,-4.3333,-4.3528,-4.2669,-4.4231,-4.5207,-4.5207,-4.5909,-4.63,-4.63,-4.6308,-4.6311,-4.6311,-4.6317,-4.6319,-4.6319,-4.6284,-4.6286,-2.5338,-2.6821,-2.7909,-2.7222,-2.8325,-2.9192,-2.7663,-2.7319,0.0,0.0,0.0,0.0,0.0,0.0,0.0,0.0,0.0,0.0,0.0,0.0,0.0,0.0,0.0,0.0,0.0,0.0,0.0,0.0,0.0,0.0,0.0,-5.7886,-5.7886,-5.7886,-5.7886,-5.8001,-5.8268,-5.8268,-5.8268,-5.8268,-5.8154,-5.7695,-5.6969,-5.6855,-5.6434,-5.5785,0.0,-5.5607,-5.5619,-5.5479,-5.5454,-5.5428,-5.5463,-5.5527,-5.5689,-5.575,-5.5825,-5.5938,-5.5947,-5.5971,-5.5986,-5.6022,-5.6064,-5.611,-5.623,-5.6271,-5.6351,-5.6497,-5.6558,-5.6216,-5.4459,-5.399,-5.3561,-5.1804,-5.1414,-5.1414,-5.1414,-5.1408,-5.1396,-5.1383,-5.138,-5.138,-5.138,-5.1394,-5.1364,-5.1217,-5.0475,-4.985,-4.9733,-4.825,-4.6885,-4.5987,-4.5129,-4.3995,-4.2513,-4.3879,-4.4426,-4.3567,-4.5129,-4.6105,-4.6105,-4.6222,-4.63,-4.63,-4.6302,-4.6303,-4.6303,-4.6303,-4.6305,-4.6305,-4.6312,-4.6316,-2.5223,-2.6842,-2.8342,-2.8524,-2.9763,-3.0682,-2.9879,-2.9726,0.0,0.0,0.0,0.0,0.0,0.0,0.0,0.0,0.0,0.0,0.0,0.0,0.0,0.0,0.0,0.0,0.0,0.0,0.0,0.0,0.0,0.0,0.0,-5.6549,-5.6549,-5.6549,-5.6549,-5.6549,-5.6549,-5.6549,-5.7008,-5.7886,-5.7428,-5.6969,-5.6587,-5.6129,-5.5747,-5.5403,0.0,-5.5403,-5.5403,-5.5403,-5.5403,-5.5403,-5.539,-5.5461,-5.5538,-5.5675,-5.5748,-5.5779,-5.5836,-5.5855,-5.5864,-5.587,-5.593,-5.6002,-5.6075,-5.6149,-5.6264,-5.6377,-5.6478,-5.6167,-5.4457,-5.399,-5.3561,-5.1804,-5.1414,-5.1414,-5.1414,-5.1401,-5.1378,-5.1314,-5.1307,-5.1346,-5.1307,-5.133,-5.1394,-5.1412,-5.067,-5.0085,-5.0085,-4.864,-4.743,-4.7042,-4.6222,-4.5207,-4.3918,-4.4972,-4.5519,-4.5129,-4.587,-4.63,-4.63,-4.63,-4.63,-4.63,-4.63,-4.63,-4.63,-4.63,-4.63,-4.63,-4.6309,-4.6312,-2.5124,-2.6605,-2.8128,-2.9269,-3.0624,-3.173,-3.189,-3.2165,-3.2371,0.0,0.0,0.0,0.0,0.0,0.0,0.0,0.0,0.0,0.0,0.0,0.0,0.0,0.0,0.0,0.0,0.0,0.0,0.0,0.0,0.0,-5.5403,-5.5403,-5.5403,-5.5403,-5.5403,-5.5403,-5.5403,-5.5403,-5.6052,-5.7313,-5.6625,-5.632,-5.6282,-5.567,-5.5403,-5.5403,-5.5403,-5.5403,-5.5403,-5.5403,-5.5403,-5.5403,-5.5415,-5.5427,-5.5488,-5.5581,-5.5626,-5.5626,-5.5682,-5.5692,-5.5703,-5.5707,-5.5778,-5.5865,-5.59,-5.6001,-5.6107,-5.6194,-5.6295,-5.6028,-5.4627,-5.4131,-5.3587,-5.2069,-5.1525,-5.1412,-5.1414,-5.1394,-5.1359,-5.1234,-5.1222,-5.1256,-5.117,-5.1285,-5.1362,-5.1355,-5.0813,-5.0386,-5.0389,-4.9105,-4.8209,-4.8172,-4.7237,-4.6339,-4.5673,-4.6027,-4.6378,-4.6573,-4.6417,-4.63,-4.63,-4.63,-4.63,-4.63,-4.63,-4.63,-4.63,-4.63,-4.63,-4.63,-4.6308,-4.6309,-2.5053,-2.6033,-2.7217,-2.8883,-3.0847,-3.2546,-3.3332,-3.422,0.0,-3.5878,0.0,0.0,0.0,0.0,0.0,0.0,0.0,0.0,0.0,0.0,0.0,0.0,0.0,0.0,0.0,0.0,0.0,0.0,0.0,0.0,-5.5403,-5.5403,-5.5403,-5.5403,-5.5403,-5.5403,-5.5403,-5.5403,-5.5479,-5.5594,-5.5517,-5.5479,-5.5479,-5.5441,-5.5403,-5.5403,-5.5403,-5.5403,-5.5403,-5.5403,-5.5403,-5.5403,-5.5403,-5.5403,-5.5416,-5.5428,-5.5428,-5.5428,-5.5428,-5.5441,-5.5441,-5.5441,-5.5453,-5.5461,-5.5605,-5.5661,-5.576,-5.5899,-5.5955,-5.579,-5.5181,-5.4461,-5.366,-5.2737,-5.1935,-5.1403,-5.1412,-5.1347,-5.1296,-5.1191,-5.1196,-5.1169,-5.1103,-5.1185,-5.1239,-5.1281,-5.1268,-5.1245,-5.1297,-5.0491,-4.9918,-4.9928,-4.8484,-4.7469,-4.743,-4.6729,-4.6651,-4.7469,-4.6768,-4.63,-4.63,-4.63,-4.63,-4.63,-4.63,-4.63,-4.63,-4.63,-4.63,-4.63,-4.6302,-4.6302,-2.434,-2.511,-2.6371,-2.857,-3.0549,0.0,0.0,-3.6244,-3.7718,-3.9147,-3.9719,0.0,0.0,0.0,0.0,0.0,0.0,0.0,0.0,0.0,0.0,0.0,0.0,0.0,0.0,0.0,0.0,0.0,0.0,0.0,0.0,-5.5403,-5.5403,-5.5403,-5.5403,-5.5403,-5.5403,-5.5403,-5.5403,-5.5403,-5.5403,-5.5403,-5.5403,-5.5403,-5.5403,-5.5403,-5.5403,-5.5403,-5.5403,-5.5403,-5.5403,-5.5403,-5.5403,-5.5403,-5.5403,-5.5403,-5.5403,-5.5403,-5.5403,-5.5403,-5.5403,-5.5403,-5.5403,-5.5401,-5.552,-5.5599,-5.5675,-5.5789,-5.5827,-5.5706,-5.5068,-5.473,-5.4198,-5.2844,-5.2337,-5.2013,-5.1527,-5.1339,-5.1269,-5.1097,-5.108,-5.1063,-5.1009,-5.1018,-5.108,-5.1102,-5.1186,-5.1265,-5.1261,-5.1054,-5.0923,-5.0904,-4.985,-4.9148,-4.9148,-4.7899,-4.7237,-4.7586,-4.6768,-4.63,-4.63,-4.63,-4.63,-4.63,-4.63,-4.63,-4.63,-4.63,-4.63,-4.63,-4.63,-4.63,-2.3858,-2.4356,-2.5413,-2.7858,0.0,0.0,-3.56,-3.8128,-4.0252,-4.2036,-4.3183,0.0,0.0,0.0,0.0,0.0,0.0,0.0,0.0,0.0,0.0,0.0,0.0,0.0,0.0,0.0,0.0,0.0,0.0,0.0,0.0,-5.5403,-5.5403,-5.5403,-5.5403,-5.5403,-5.5403,-5.5403,-5.5403,-5.5403,-5.5403,-5.5403,-5.5403,-5.5403,-5.5403,-5.5403,-5.5403,-5.5403,-5.5403,-5.5403,-5.5403,-5.5403,-5.5403,-5.5403,-5.5403,-5.5403,-5.5403,-5.5403,-5.5403,-5.5403,-5.5403,-5.5403,-5.539,-5.5402,-5.5439,-5.5488,-5.5547,-5.5626,-5.566,-5.556,-5.513,-5.4901,-5.4569,-5.3501,-5.2897,-5.2395,-5.189,-5.1498,-5.122,-5.1035,-5.0998,-5.0959,-5.089,-5.0929,-5.0988,-5.0972,-5.1074,-5.1136,-5.1152,-5.1277,-5.1239,-5.0998,-5.0686,-5.0377,-5.0106,-4.9057,-4.8398,-4.8402,-4.7586,-4.6846,-4.6339,-4.63,-4.63,-4.63,-4.63,-4.63,-4.63,-4.63,-4.63,-4.63,-4.63,-4.63,-2.3806,-2.3842,-2.4411,-2.6826,0.0,0.0,-3.6376,-3.989,-4.2649,-4.4449,0.0,-4.6069,-4.527,0.0,0.0,0.0,0.0,0.0,0.0,0.0,0.0,0.0,0.0,0.0,0.0,0.0,0.0,0.0,0.0,0.0,0.0,-5.5403,-5.5403,-5.5403,-5.5403,-5.5403,-5.5403,-5.5403,-5.5403,-5.5403,-5.5403,-5.5403,-5.5403,-5.5403,-5.5403,-5.5403,-5.5403,-5.5403,-5.5403,-5.5403,-5.5403,-5.5403,-5.5403,-5.5403,-5.5403,-5.5403,-5.5403,-5.5403,-5.5403,-5.5403,-5.5403,-5.5403,-5.5403,-5.5403,-5.5403,-5.5403,-5.5403,-5.5403,-5.5403,-5.5416,-5.5402,-5.507,-5.4722,-5.4879,-5.3623,-5.243,-5.2589,-5.1887,-5.1181,-5.1037,-5.0952,-5.0874,-5.0791,-5.0855,-5.0888,-5.089,-5.0966,-5.1004,-5.1074,-5.1175,-5.0879,-5.0104,-5.0774,-5.0934,-5.0098,-5.0079,-5.0093,-5.0106,-4.9261,-4.8057,-4.6378,-4.6339,-4.6339,-4.6339,-4.6339,-4.6339,-4.6339,-4.6339,-4.6339,-4.6339,-4.6339,-4.6339,-2.4483,-2.5063,0.0,-2.9192,0.0,0.0,0.0,-4.1408,0.0,0.0,0.0,0.0,0.0,0.0,0.0,0.0,0.0,0.0,0.0,0.0,0.0,0.0,0.0,0.0,0.0,0.0,0.0,0.0,0.0,0.0,0.0,-5.3569,-5.3569,-5.3569,-5.3569,-5.3569,-5.3569,-5.3569,-5.3569,-5.3569,-5.3569,-5.4218,-5.5403,-5.5403,-5.5403,-5.5403,-5.5403,-5.5403,-5.5403,-5.5403,-5.5403,-5.5403,-5.5403,-5.5403,-5.5403,-5.5403,-5.5403,-5.5403,-5.5403,-5.5403,-5.5403,-5.5403,-5.5403,-5.5403,-5.5403,-5.5403,-5.5403,-5.5403,-5.5403,-5.5416,-5.5402,-5.5293,-5.5105,-5.4725,-5.4257,-5.3645,-5.255,-5.2046,-5.1668,-5.1036,-5.0874,-5.0829,-5.073,-5.0769,-5.074,-5.0758,-5.0838,-5.0906,-5.0998,-5.1035,-5.0959,-5.0742,-5.0941,-5.104,-5.0849,-4.9796,-4.94,-5.0054,-4.8749,-4.7978,-4.8057,-4.8057,-4.8057,-4.8057,-4.8057,-4.8057,-4.8057,-4.8057,-4.8057,-4.8057,-4.8057,-4.8057,-2.5099,-2.6077,0.0,-3.1075,-3.438,-3.7976,-4.2404,0.0,0.0,0.0,0.0,0.0,0.0,0.0,0.0,0.0,0.0,0.0,0.0,0.0,0.0,0.0,0.0,0.0,0.0,0.0,0.0,0.0,0.0,0.0,0.0,-5.2755,-5.2768,-5.2768,-5.2792,-5.2805,-5.2805,-5.2805,-5.2805,-5.2805,-5.2805,-5.3339,-5.4371,-5.4371,-5.4371,-5.4371,-5.4371,-5.4562,-5.4868,-5.4868,-5.5097,-5.5403,-5.5403,-5.5403,-5.5403,-5.5403,-5.5403,-5.5403,-5.5403,-5.5403,-5.5403,-5.5403,-5.5403,-5.5403,-5.5403,-5.5403,-5.5403,-5.5403,-5.5403,-5.5403,-5.5415,-5.5377,-5.5336,-5.5032,-5.4757,-5.4185,-5.2926,-5.2361,-5.1802,-5.1021,-5.0799,-5.0767,-5.0721,-5.0712,-5.0712,-5.0712,-5.0758,-5.0825,-5.0937,-5.0963,-5.0966,-5.0966,-5.0966,-5.0992,-5.1097,-4.9907,-4.953,-5.0474,-4.9298,-4.8928,-4.9752,-4.9144,-4.8798,-4.8798,-4.8798,-4.8798,-4.8798,-4.8798,-4.8798,-4.8798,-4.8798,-4.8798,-2.5631,0.0,0.0,-3.2632,-3.6198,0.0,0.0,0.0,0.0,0.0,0.0,0.0,0.0,0.0,0.0,0.0,0.0,0.0,0.0,0.0,0.0,0.0,0.0,0.0,0.0,0.0,0.0,0.0,0.0,0.0,0.0,-5.2437,-5.2463,-5.2476,-5.2538,-5.2575,-5.2575,-5.2575,-5.2575,-5.2575,-5.2575,-5.2575,-5.2575,-5.2728,-5.2805,-5.2805,-5.2805,-5.3263,-5.3989,-5.4065,-5.4562,-5.5288,-5.5365,-5.5403,-5.5403,-5.5403,-5.5403,-5.5403,-5.5403,-5.5403,-5.5403,-5.5403,-5.5403,-5.5403,-5.5403,-5.5403,-5.5403,-5.5403,-5.5403,-5.5403,-5.5403,-5.5403,-5.5466,-5.5626,-5.5083,-5.428,-5.3513,-5.2693,-5.1817,-5.0939,-5.071,-5.0664,-5.0712,-5.0702,-5.0702,-5.0712,-5.0749,-5.0821,-5.0855,-5.0897,-5.0874,-5.0874,-5.0874,-5.0914,-5.0995,-5.0254,-5.0165,-5.1113,-5.0426,-5.0385,-5.1264,-4.983,-4.9031,-4.9031,-4.9032,-4.9032,-4.9032,-4.9032,-4.9032,-4.9032,-4.9032,-4.9032,-2.6319,-2.8178,0.0,0.0,-3.9184,0.0,0.0,0.0,0.0,0.0,0.0,0.0,0.0,0.0,0.0,0.0,0.0,0.0,0.0,0.0,0.0,0.0,0.0,0.0,0.0,0.0,0.0,0.0,0.0,0.0,-5.0609,-5.0634,-5.0659,-5.0722,-5.0746,-5.077,-5.0856,-5.0856,-5.0856,0.0,-5.0856,-5.0856,-5.0894,-5.2193,-5.2805,-5.2805,-5.2805,-5.2919,-5.311,-5.3836,-5.4218,-5.4448,-5.5135,-5.5403,-5.5403,-5.5403,-5.5403,-5.5403,-5.5403,-5.5403,-5.5403,-5.5403,-5.5403,-5.5403,-5.5403,-5.5403,-5.5403,-5.5403,-5.5403,-5.5403,-5.5403,-5.5403,-5.5416,-5.5428,-5.5326,-5.4776,-5.3338,-5.285,-5.2275,-5.0832,-5.0563,-5.0563,-5.0594,-5.0642,-5.0653,-5.0702,-5.0731,-5.075,-5.076,-5.073,-5.073,-5.073,-5.073,-5.0776,-5.0825,-5.0094,-5.0051,-5.0985,-5.0309,-5.0252,-5.1195,-5.0959,-5.0842,-5.0855,-5.0824,-5.0828,-5.0828,-5.0828,-5.0828,-5.0828,-5.0828,-5.0828,-2.6898,0.0,0.0,-3.7703,0.0,0.0,0.0,0.0,0.0,0.0,0.0,0.0,0.0,0.0,0.0,0.0,0.0,0.0,0.0,0.0,0.0,0.0,0.0,0.0,0.0,0.0,0.0,0.0,0.0,-4.9959,-4.9986,-5.0025,-5.005,-5.0089,-5.0126,-5.0151,-5.0188,-5.0188,-5.0188,-5.0188,-5.0188,-5.0188,-5.0226,-5.1176,-5.1582,-5.1582,-5.1582,-5.1849,-5.227,-5.2728,-5.3148,-5.3531,-5.3989,-5.4142,-5.4142,-5.4142,-5.4142,-5.4142,-5.4142,-5.4142,-5.4142,-5.4142,-5.4448,-5.4791,-5.4791,-5.5059,-5.5403,-5.5403,-5.5403,-5.5403,-5.5403,-5.5403,-5.5403,-5.5403,-5.5403,-5.5072,-5.3795,-5.3501,-5.3142,-5.1946,-5.1689,-5.171,-5.1802,-5.1834,-5.1711,-5.1308,-5.1279,-5.1125,-5.075,-5.0712,-5.0712,-5.0712,-5.0712,-5.0702,-5.0738,-5.0027,-4.9938,-5.0898,-5.0174,-5.0125,-5.1086,-5.1211,-5.1285,-5.1386,-5.1406,-5.1414,-5.1414,-5.1414,-5.1414,-5.1414,-5.1414,-5.1414,-2.7152,0.0,-3.3951,0.0,0.0,0.0,0.0,0.0,0.0,0.0,0.0,0.0,0.0,0.0,0.0,0.0,0.0,0.0,0.0,0.0,0.0,0.0,0.0,0.0,0.0,0.0,0.0,0.0,0.0,-4.9893,-4.9893,-4.9946,-4.9973,-4.9986,-5.0038,-5.0114,-5.0076,-5.0076,-5.0076,-5.0076,-5.0076,-5.0076,-5.0089,-5.02,-5.0259,-5.0271,-5.0271,-5.0691,-5.1391,-5.1532,-5.2002,-5.2614,-5.2728,-5.2805,-5.2805,-5.2805,-5.2805,-5.2805,-5.2805,-5.2805,-5.2805,-5.2957,-5.3492,-5.4142,-5.4295,-5.483,-5.5403,-5.5403,-5.5403,-5.5403,-5.5403,-5.5403,-5.5403,-5.5403,-5.5403,-5.5186,-5.4357,-5.4178,-5.3922,-5.31,-5.297,-5.2992,-5.3075,-5.3129,-5.2902,-5.221,-5.198,-5.1644,-5.0962,-5.0779,-5.0712,-5.0712,-5.0712,-5.0683,-5.0682,-5.0103,-5.0032,-5.0808,-5.0185,-5.0124,-5.0942,-5.1011,-5.1169,-5.1335,-5.1383,-5.1364,-5.1367,-5.1408,-5.141,-5.1412,-5.1414,-5.1414,0.0,0.0,0.0,0.0,0.0,0.0,0.0,0.0,0.0,0.0,0.0,0.0,0.0,0.0,0.0,0.0,0.0,0.0,0.0,0.0,0.0,0.0,0.0,0.0,0.0,0.0,0.0,0.0,-4.9893,-4.9893,-4.9893,-4.9893,-4.9933,-4.9986,-4.9999,-5.0025,-5.0076,-5.0076,-5.0076,-5.0076,-5.0076,-5.0076,-5.0076,-5.0139,-5.0151,-5.02,-5.02,-5.0312,-5.055,-5.1314,-5.1658,-5.1849,-5.2537,-5.2805,-5.2805,-5.2805,-5.2805,-5.2805,-5.2805,-5.2805,-5.2919,-5.3683,-5.4027,-5.4256,-5.5021,-5.5326,-5.5403,-5.5403,-5.5403,-5.5403,-5.5403,-5.5403,-5.5403,-5.5403,-5.5403,-5.5174,-5.4307,-5.4116,-5.3849,-5.2982,-5.2877,-5.2912,-5.2912,-5.297,-5.2976,-5.2861,-5.2252,-5.1785,-5.167,-5.1105,-5.0712,-5.0712,-5.0712,-5.0712,-5.0721,-5.0606,-5.0577,-5.0741,-5.0625,-5.0642,-5.0808,-5.0898,-5.0988,-5.1037,-5.1234,-5.1307,-5.1323,-5.1375,-5.1389,-5.1401,-5.141,-5.1414,-2.7308,0.0,0.0,0.0,0.0,0.0,0.0,0.0,0.0,0.0,0.0,0.0,0.0,0.0,0.0,0.0,0.0,0.0,0.0,0.0,0.0,0.0,0.0,0.0,0.0,0.0,0.0,0.0,-4.9893,-4.9893,-4.9893,-4.9893,-4.9906,-4.9933,-4.9933,-4.9946,-4.9973,-4.9973,-4.9973,-4.9973,-4.9973,-4.9973,-4.9973,-4.9973,-5.0038,-5.0139,-5.0175,-5.0212,-5.0274,-5.0691,-5.0856,-5.0932,-5.1276,-5.1391,-5.1391,-5.1391,-5.1391,-5.1391,-5.1391,-5.1735,-5.2193,-5.2575,-5.3339,-5.418,-5.4562,-5.5021,-5.5403,-5.5403,-5.5403,-5.5403,-5.5403,-5.5403,-5.5403,-5.5403,-5.5403,-5.5288,-5.4906,-5.483,-5.4715,-5.4333,-5.4268,-5.4305,-5.4305,-5.4364,-5.4258,-5.3798,-5.3459,-5.308,-5.257,-5.2287,-5.2087,-5.2087,-5.1664,-5.1356,-5.1356,-5.1356,-5.1356,-5.1356,-5.1818,-5.1896,-5.1509,-5.1533,-5.136,-5.096,-5.108,-5.1181,-5.1261,-5.1253,-5.132,-5.1386,-5.1406,-5.1414,0.0,0.0,0.0,0.0,0.0,0.0,0.0,0.0,0.0,0.0,0.0,0.0,0.0,0.0,0.0,0.0,0.0,0.0,0.0,0.0,0.0,0.0,0.0,0.0,0.0,0.0,0.0,0.0,-4.9589,-4.9514,-4.9286,-4.9248,-4.9248,-4.9248,-4.9248,-4.9248,-4.9248,-4.9476,-4.9703,-4.9893,-4.9893,-4.9893,-4.9893,-4.9893,-4.9946,-5.0038,-5.0114,-5.0151,-5.0175,-5.0212,-5.0248,-5.0259,-5.0259,-5.0271,-5.0283,-5.0283,-5.0283,-5.0283,-5.0283,-5.0856,-5.1608,-5.1849,-5.2919,-5.4142,-5.4371,-5.4868,-5.5403,-5.5403,-5.5403,-5.5403,-5.5403,-5.5403,-5.5403,-5.5403,-5.5403,-5.5403,-5.5403,-5.5403,-5.5403,-5.5403,-5.5403,-5.539,-5.539,-5.5439,-5.5284,-5.4659,-5.445,-5.41,-5.3448,-5.3234,-5.3161,-5.3161,-5.2364,-5.1941,-5.2172,-5.2028,-5.2,-5.2231,-5.2856,-5.2954,-5.2339,-5.2136,-5.1749,-5.1177,-5.0983,-5.0992,-5.1164,-5.1181,-5.123,-5.1349,-5.1383,-5.1357,0.0,0.0,0.0,0.0,0.0,0.0,0.0,0.0,0.0,0.0,0.0,0.0,0.0,0.0,0.0,0.0,0.0,0.0,0.0,0.0,0.0,0.0,0.0,0.0,0.0,0.0,0.0,0.0,-4.8755,-4.8414,-4.7567,-4.7529,-4.7529,-4.7529,-4.7529,-4.7529,-4.7529,-4.8338,-4.9134,-4.9893,-4.9893,-4.9893,-4.9893,-4.9893,-4.9893,-4.9906,-4.9973,-5.0038,-5.0127,-5.0127,-5.0139,-5.02,-5.02,-5.0236,-5.0283,-5.0283,-5.0283,-5.0283,-5.0283,-5.0856,-5.1735,-5.2499,-5.3339,-5.4256,-5.5097,-5.5365,-5.5403,-5.5403,-5.5403,-5.5403,-5.5403,-5.5403,-5.5403,-5.5403,-5.5403,-5.5403,-5.5403,-5.5403,-5.5403,-5.5403,-5.5403,-5.5403,-5.5403,-5.5403,-5.5403,-5.5326,-5.4701,-5.4202,-5.4164,-5.3495,-5.3004,-5.3004,-5.228,-5.212,-5.2965,-5.2354,-5.2231,-5.3087,-5.3164,-5.3164,-5.3126,-5.2356,-5.1895,-5.1856,-5.1116,-5.0799,-5.0991,-5.1062,-5.1125,-5.122,-5.1265,-5.1324,0.0,0.0,0.0,0.0,0.0,0.0,0.0,0.0,0.0,0.0,0.0,0.0,0.0,0.0,0.0,0.0,0.0,0.0,0.0,0.0,0.0,0.0,0.0,0.0,0.0,0.0,0.0,0.0,0.0,-4.8272,-4.7453,-4.7378,-4.7378,-4.7378,-4.7378,-4.7681,-4.8225,-4.8528,-4.9097,-4.9893,-4.9893,-4.9893,-4.9893,-4.9893,-4.9893,-4.9893,-4.992,-4.9959,-5.0025,-5.0063,-5.0101,-5.0126,-5.0175,-5.0212,-5.0224,-5.0271,-5.0283,-5.0283,-5.0283,-5.12,-5.2422,-5.269,-5.376,-5.4982,-5.5326,-5.5403,-5.5403,-5.5403,-5.5403,-5.5403,-5.5403,-5.5403,-5.5403,-5.5403,-5.5403,-5.5403,-5.5403,-5.5403,-5.5403,-5.5403,-5.5403,-5.5403,-5.5403,-5.5403,-5.5403,-5.5403,-5.5148,-5.4955,-5.4955,-5.4748,-5.4603,-5.4603,-5.3931,-5.3618,-5.3925,-5.371,-5.3703,-5.401,-5.4511,-5.4587,-5.4049,-5.3741,-5.3049,-5.1923,-5.1625,-5.1288,-5.0874,-5.0959,-5.0991,-5.1056,-5.1081,-5.1108,-2.2672,0.0,0.0,0.0,0.0,0.0,0.0,0.0,0.0,0.0,0.0,0.0,0.0,0.0,0.0,0.0,0.0,0.0,0.0,0.0,0.0,0.0,0.0,0.0,0.0,0.0,0.0,0.0,0.0,0.0,-4.662,-4.6544,-4.6544,-4.6544,-4.6544,-4.6961,-4.7845,-4.7883,-4.8414,-4.9514,-4.9514,-4.9627,-4.9893,-4.9893,-4.9893,-4.9893,-4.9893,-4.992,-4.9959,-4.9999,-5.0063,-5.005,-5.0101,-5.0139,-5.0163,-5.02,-5.0236,-5.0248,-5.0248,-5.1379,-5.2805,-5.2805,-5.3989,-5.5403,-5.5403,-5.5403,-5.5403,-5.5403,-5.5403,-5.5403,-5.5403,-5.5403,-5.5403,-5.5403,-5.5403,-5.5403,-5.5403,-5.5403,-5.5403,-5.5403,-5.5403,-5.5403,-5.5403,-5.5403,-5.5403,-5.5403,-5.5403,-5.539,-5.539,-5.5427,-5.5451,-5.5451,-5.4783,-5.4434,-5.4703,-5.4529,-5.4573,-5.4842,-5.5352,-5.5451,-5.4902,-5.4615,-5.3972,-5.2818,-5.2192,-5.1655,-5.1153,-5.0979,-5.0906,-5.0966,-5.0984,-5.0979,0.0,0.0,0.0,0.0,0.0,0.0,0.0,0.0,0.0,0.0,0.0,0.0,0.0,0.0,0.0,0.0,0.0,0.0,0.0,0.0,0.0,0.0,0.0,0.0,0.0,0.0,0.0,0.0,-4.5768,-4.5515,-4.4927,-4.4902,-4.4902,-4.4902,-4.4902,-4.5331,-4.6203,-4.6203,-4.7049,-4.8717,-4.8717,-4.9134,-4.9893,-4.9893,-4.9893,-4.9893,-4.9893,-4.9893,-4.9893,-4.9893,-4.992,-4.9986,-4.9986,-5.0025,-5.0114,-5.0076,-5.0126,-5.0188,-5.02,-5.1343,-5.2805,-5.2805,-5.3989,-5.5403,-5.5403,-5.5403,-5.5403,-5.5403,-5.5403,-5.5403,-5.5403,-5.5403,-5.5403,-5.5403,-5.5403,-5.5403,-5.5403,-5.5403,-5.5403,-5.5403,-5.5403,-5.5403,-5.5403,-5.5403,-5.5403,-5.5403,-5.5403,-5.5403,-5.5403,-5.5403,-5.5403,-5.5403,-5.4689,-5.4534,-5.5338,-5.4748,-5.4668,-5.5446,-5.5543,-5.5615,-5.5615,-5.4902,-5.4511,-5.4511,-5.2818,-5.1923,-5.1885,-5.1153,-5.0838,-5.088,-5.0874,-5.089,-2.1441,0.0,0.0,0.0,0.0,0.0,0.0,0.0,0.0,0.0,0.0,0.0,0.0,0.0,0.0,0.0,0.0,0.0,0.0,0.0,0.0,0.0,0.0,0.0,0.0,0.0,0.0,0.0,-4.5492,-4.5302,-4.4643,-4.4605,-4.4632,-4.4685,-4.4738,-4.5205,-4.6139,-4.6177,-4.7049,-4.8717,-4.8717,-4.9134,-4.9893,-4.9893,-4.9893,-4.9893,-4.9893,-4.9893,-4.9893,-4.9893,-4.9893,-4.992,-4.9973,-4.9999,-5.0012,-5.0063,-5.0101,-5.0114,-5.0175,-5.1306,-5.2743,-5.2792,-5.3989,-5.5403,-5.5403,-5.5403,-5.5403,-5.5403,-5.5403,-5.5403,-5.5403,-5.5403,-5.5403,-5.5403,-5.5403,-5.5403,-5.5403,-5.5403,-5.5403,-5.5403,-5.5403,-5.5403,-5.5403,-5.5403,-5.5403,-5.5403,-5.5403,-5.5403,-5.5403,-5.5403,-5.5403,-5.5403,-5.5186,-5.5147,-5.5376,-5.5258,-5.5255,-5.5485,-5.5543,-5.5615,-5.5615,-5.544,-5.5088,-5.4511,-5.3395,-5.2538,-5.1885,-5.1116,-5.076,-5.0769,-5.0749,-5.0749,-2.1391,-2.1456,0.0,0.0,0.0,0.0,0.0,0.0,0.0,0.0,0.0,0.0,0.0,0.0,0.0,0.0,0.0,0.0,0.0,0.0,0.0,0.0,0.0,0.0,0.0,0.0,-4.4777,-4.4465,-4.4612,-4.4585,-4.4281,-4.4258,-4.4302,-4.4374,-4.4513,-4.4847,-4.548,-4.5609,-4.6316,-4.7656,-4.7656,-4.8262,-4.94,-4.94,-4.9589,-4.9893,-4.9893,-4.9893,-4.9893,-4.9893,-4.9893,-4.9893,-4.9933,-4.9946,-4.9946,-4.9986,-5.0025,-5.005,-5.0089,-5.1243,-5.2705,-5.2755,-5.3964,-5.5403,-5.5403,-5.5403,-5.5403,-5.5403,-5.5403,-5.5403,-5.5403,-5.5403,-5.5403,-5.5403,-5.5403,-5.5403,-5.5403,-5.5403,-5.5403,-5.5403,-5.5403,-5.5403,-5.5403,-5.5403,-5.5403,-5.5403,-5.5403,-5.5403,-5.5403,-5.5403,-5.5403,-5.5403,-5.539,-5.5415,-5.5415,-5.5453,-5.5477,-5.5477,-5.5499,-5.5535,-5.5535,-5.5626,-5.544,-5.4979,-5.3808,-5.2626,-5.1395,-5.0933,-5.0712,-5.0712,-5.0712,-5.0712,-2.1765,-2.1718,0.0,0.0,0.0,0.0,-2.4592,-2.7164,0.0,0.0,0.0,0.0,0.0,0.0,0.0,0.0,0.0,0.0,0.0,0.0,0.0,0.0,0.0,0.0,0.0,-4.3012,-4.3178,-4.3372,-4.3493,-4.366,-4.3833,-4.3849,-4.3934,-4.4064,-4.4265,-4.4421,-4.4565,-4.4764,-4.5281,-4.6127,-4.6127,-4.7036,-4.8626,-4.8626,-4.9094,-4.9852,-4.9866,-4.9866,-4.9879,-4.9879,-4.9893,-4.9893,-4.9893,-4.9893,-4.9893,-4.9893,-4.992,-4.9973,-4.9986,-5.1166,-5.2679,-5.2692,-5.3926,-5.539,-5.539,-5.5403,-5.5403,-5.5403,-5.5403,-5.5403,-5.5403,-5.5403,-5.5403,-5.5403,-5.5403,-5.5403,-5.5403,-5.5403,-5.5403,-5.5403,-5.5403,-5.5403,-5.5403,-5.5403,-5.5403,-5.5403,-5.5403,-5.5403,-5.5403,-5.5403,-5.5403,-5.5403,-5.5403,-5.5403,-5.5403,-5.5403,-5.5403,-5.5403,-5.539,-5.5389,-5.5389,-5.5547,-5.5615,-5.5615,-5.4017,-5.2433,-5.0827,-5.075,-5.0712,-5.0712,-5.0712,-5.0712,-2.486,-2.4061,-2.3214,-2.333,0.0,0.0,0.0,-2.5099,0.0,0.0,0.0,0.0,0.0,0.0,0.0,0.0,0.0,0.0,0.0,0.0,0.0,0.0,0.0,0.0,0.0,-4.3012,-4.316,-4.3214,-4.3391,-4.3549,-4.3563,-4.358,-4.3647,-4.3758,-4.3986,-4.4155,-4.4302,-4.4496,-4.4992,-4.5782,-4.5782,-4.6685,-4.8317,-4.8317,-4.8798,-4.9663,-4.9721,-4.9778,-4.9835,-4.9866,-4.9893,-4.9893,-4.9893,-4.9893,-4.9893,-4.9893,-4.9893,-4.992,-4.9973,-5.1101,-5.2561,-5.2666,-5.3862,-5.5261,-5.5377,-5.5403,-5.5403,-5.5403,-5.5403,-5.5403,-5.5403,-5.5403,-5.5403,-5.5403,-5.5403,-5.5403,-5.5403,-5.5403,-5.5403,-5.5403,-5.5403,-5.5403,-5.5403,-5.5403,-5.5403,-5.5403,-5.5403,-5.5403,-5.5403,-5.5403,-5.5403,-5.5403,-5.5403,-5.5403,-5.5403,-5.5403,-5.5403,-5.5403,-5.539,-5.5389,-5.5389,-5.5547,-5.5615,-5.5615,-5.4017,-5.2702,-5.1654,-5.101,-5.0712,-5.0712,-5.0712,-5.0712,-2.6641,-2.5967,-2.5052,-2.4437,0.0,0.0,0.0,0.0,0.0,0.0,0.0,0.0,0.0,0.0,0.0,0.0,0.0,0.0,0.0,0.0,0.0,0.0,0.0,0.0,0.0,-4.2975,-4.3012,-4.3068,-4.3124,-4.3196,-4.3196,-4.3196,-4.325,-4.341,-4.3614,-4.3758,-4.3886,-4.4087,-4.4416,-4.4789,-4.4789,-4.5477,-4.671,-4.671,-4.743,-4.8721,-4.889,-4.9219,-4.9669,-4.9824,-4.9893,-4.9893,-4.9893,-4.9893,-4.9893,-4.9893,-4.9893,-4.9893,-4.992,-5.106,-5.2506,-5.2574,-5.3769,-5.5143,-5.5208,-5.5286,-5.5326,-5.539,-5.5403,-5.5403,-5.5403,-5.5403,-5.5403,-5.5403,-5.5403,-5.5403,-5.5403,-5.5403,-5.5403,-5.5403,-5.5403,-5.5403,-5.5403,-5.5403,-5.5403,-5.5403,-5.5403,-5.5403,-5.5403,-5.5403,-5.5403,-5.5403,-5.5403,-5.5403,-5.5403,-5.5403,-5.5403,-5.5403,-5.539,-5.5415,-5.5415,-5.5463,-5.5343,-5.4956,-5.4172,-5.3129,-5.1854,-5.1431,-5.1067,-5.0712,-5.0712,-5.0712,0.0,0.0,0.0,0.0,0.0,-2.4394,0.0,0.0,0.0,-2.5482,0.0,0.0,0.0,0.0,0.0,0.0,0.0,0.0,0.0,0.0,0.0,0.0,0.0,0.0,0.0,-4.2249,-4.2266,-4.2411,-4.2448,-4.2484,-4.2665,-4.2829,-4.2975,-4.3086,-4.3268,-4.3424,-4.3546,-4.3742,-4.3802,-4.3802,-4.3802,-4.4262,-4.5094,-4.5094,-4.605,-4.7748,-4.8006,-4.8611,-4.9454,-4.9712,-4.9797,-4.9811,-4.9866,-4.9893,-4.9893,-4.9893,-4.9893,-4.9893,-4.9893,-5.102,-5.2479,-5.2493,-5.3688,-5.5113,-5.5113,-5.513,-5.5197,-5.5326,-5.539,-5.5403,-5.5403,-5.5403,-5.5403,-5.5403,-5.5403,-5.5403,-5.5403,-5.5403,-5.5403,-5.5403,-5.5403,-5.5403,-5.5403,-5.5403,-5.5403,-5.5403,-5.5403,-5.5403,-5.5403,-5.5403,-5.5403,-5.5403,-5.5403,-5.5403,-5.5403,-5.5403,-5.5403,-5.5403,-5.5403,-5.5403,-5.5403,-5.539,-5.5145,-5.4553,-5.4361,-5.3629,-5.2312,-5.1966,-5.1421,-5.0712,-5.0712,-5.0712,0.0,0.0,0.0,0.0,-2.5633,0.0,0.0,0.0,-2.3682,-2.3777,0.0,0.0,0.0,0.0,0.0,0.0,0.0,0.0,0.0,0.0,0.0,0.0,0.0,0.0,0.0,-3.9804,-4.0057,-4.0727,-4.0764,-4.1089,-4.1813,-4.252,-4.2975,-4.3086,-4.3178,-4.325,-4.332,-4.3478,-4.3566,-4.3566,-4.3566,-4.397,-4.476,-4.476,-4.5731,-4.7457,-4.7664,-4.8331,-4.9262,-4.9399,-4.9461,-4.9491,-4.9783,-4.9893,-4.9893,-4.9893,-4.9893,-4.9893,-4.9893,-5.0992,-5.2433,-5.2465,-5.3688,-5.5113,-5.5113,-5.513,-5.5197,-5.5235,-5.5313,-5.5403,-5.5403,-5.5403,-5.5403,-5.5403,-5.5403,-5.5403,-5.5403,-5.5403,-5.5403,-5.5403,-5.5403,-5.5403,-5.5403,-5.5403,-5.5403,-5.5403,-5.5403,-5.5403,-5.5403,-5.5403,-5.5403,-5.5403,-5.5403,-5.5403,-5.5403,-5.5403,-5.5403,-5.5403,-5.5403,-5.5403,-5.5403,-5.539,-5.5375,-5.537,-5.4668,-5.4242,-5.4117,-5.2543,-5.1421,-5.0712,-5.0712,-5.0712,0.0,0.0,0.0,0.0,0.0,0.0,-2.365,0.0,-2.4088,0.0,0.0,0.0,0.0,0.0,0.0,0.0,0.0,0.0,0.0,0.0,0.0,0.0,0.0,0.0,0.0,0.0,0.0,0.0,-3.8898,-3.9695,-4.0945,-4.2194,-4.2956,-4.2975,-4.3031,-4.3032,-4.3069,-4.3124,-4.3142,-4.3142,-4.3142,-4.3324,-4.367,-4.367,-4.462,-4.6322,-4.6561,-4.744,-4.8766,-4.8936,-4.9073,-4.909,-4.9198,-4.9408,-4.9611,-4.9611,-4.9655,-4.9736,-4.9778,-5.0918,-5.2513,-5.3532,-5.4387,-5.4985,-5.5042,-5.5071,-5.5113,-5.5116,-5.5181,-5.5208,-5.5261,-5.5275,-5.5313,-5.539,-5.5403,-5.5403,-5.5403,-5.5403,-5.5403,-5.5403,-5.5403,-5.5403,-5.5403,-5.5403,-5.5403,-5.5403,-5.5403,-5.5403,-5.5403,-5.5403,-5.5403,-5.5403,-5.5403,-5.5403,-5.5403,-5.5403,-5.5403,-5.5403,-5.5403,-5.5403,-5.5403,-5.539,-5.5415,-5.544,-5.5096,-5.4712,-5.4273,-5.3545,-5.2543,-5.1265,-5.0865,-5.0712,-3.2542,0.0,0.0,0.0,0.0,0.0,0.0,0.0,0.0,0.0,0.0,0.0,0.0,0.0,0.0,0.0,0.0,0.0,0.0,0.0,0.0,0.0,0.0,0.0,0.0,0.0,0.0,0.0,0.0,-3.7667,-3.9441,-4.1252,-4.2339,-4.2556,-4.2792,-4.2901,-4.2901,-4.2901,-4.2901,-4.2901,-4.2901,-4.2901,-4.2901,-4.2901,-4.3864,-4.5523,-4.5717,-4.6801,-4.8364,-4.8587,-4.864,-4.864,-4.864,-4.8853,-4.9106,-4.9188,-4.9337,-4.943,-4.9589,-5.0816,-5.2611,-5.4337,-5.492,-5.4897,-5.4956,-5.4985,-5.5014,-5.5071,-5.5099,-5.5088,-5.5143,-5.517,-5.5197,-5.5326,-5.539,-5.5403,-5.5403,-5.5403,-5.5403,-5.5403,-5.5403,-5.5403,-5.5403,-5.5403,-5.5403,-5.5403,-5.5403,-5.5403,-5.5403,-5.5403,-5.5403,-5.5403,-5.5403,-5.5403,-5.5403,-5.5403,-5.5403,-5.5403,-5.5403,-5.5403,-5.5403,-5.5403,-5.5403,-5.5403,-5.5403,-5.5123,-5.4534,-5.4305,-5.346,-5.2034,-5.1313,-5.0865,0.0,0.0,0.0,-2.851,0.0,0.0,0.0,0.0,-2.4273,0.0,0.0,0.0,0.0,0.0,0.0,0.0,0.0,0.0,0.0,0.0,0.0,0.0,0.0,0.0,0.0,0.0,0.0,0.0,0.0,0.0,-3.6995,-3.9297,-4.0945,-4.1705,-4.2484,-4.2901,-4.2901,-4.2901,-4.2901,-4.2901,-4.2901,-4.2901,-4.2901,-4.2901,-4.3864,-4.5523,-4.5583,-4.6611,-4.8207,-4.8287,-4.8325,-4.8325,-4.8325,-4.8325,-4.8382,-4.8693,-4.8885,-4.9057,-4.9337,-5.0719,-5.267,-5.4352,-5.492,-5.492,-5.4882,-5.4941,-5.5,-5.5,-5.5057,-5.5113,-5.5075,-5.5143,-5.5197,-5.5197,-5.5313,-5.5403,-5.5403,-5.5403,-5.5403,-5.5403,-5.5403,-5.5403,-5.5403,-5.5403,-5.5403,-5.5403,-5.5403,-5.5403,-5.5403,-5.5403,-5.5403,-5.5403,-5.5403,-5.5403,-5.5403,-5.5403,-5.5403,-5.5403,-5.5403,-5.5403,-5.5403,-5.5403,-5.5403,-5.5403,-5.5403,-5.539,-5.535,-5.4573,-5.3766,-5.2954,-5.2072,-5.1299,0.0,0.0,-3.1978,-3.0063,0.0,0.0,0.0,0.0,0.0,0.0,0.0,0.0,0.0,0.0,0.0,0.0,0.0,0.0,0.0,0.0,0.0,0.0,0.0,0.0,0.0,0.0,0.0,0.0,-3.0713,0.0,0.0,-3.8174,-4.013,-4.0872,-4.2194,-4.2901,-4.2901,-4.2901,-4.2901,-4.2901,-4.2901,-4.2901,-4.2901,-4.2901,-4.3807,-4.5368,-4.5408,-4.6335,-4.7866,-4.7907,-4.7907,-4.7907,-4.7907,-4.7907,-4.7968,-4.8307,-4.8569,-4.8932,-5.0338,-5.1389,-5.2332,-5.4091,-5.4683,-5.473,-5.4814,-5.489,-5.4927,-5.4927,-5.4941,-5.4971,-5.5028,-5.5057,-5.5113,-5.517,-5.5248,-5.5275,-5.539,-5.5403,-5.5403,-5.5403,-5.5403,-5.5403,-5.5403,-5.5403,-5.5403,-5.5403,-5.5403,-5.5403,-5.5403,-5.5403,-5.5403,-5.5403,-5.5403,-5.5403,-5.5403,-5.5403,-5.5403,-5.5403,-5.5403,-5.5403,-5.5403,-5.5403,-5.5403,-5.5403,-5.5403,-5.5416,-5.539,-5.5123,-5.4256,-5.2877,-5.2559,-5.1759,-3.6231,-3.517,0.0,-3.219,-3.0969,0.0,-2.7813,0.0,0.0,0.0,0.0,0.0,0.0,0.0,0.0,0.0,0.0,0.0,0.0,0.0,0.0,0.0,0.0,0.0,0.0,0.0,-2.7188,-2.7695,-2.8214,0.0,0.0,0.0,-3.8717,-4.0057,-4.1904,-4.2901,-4.2901,-4.2901,-4.2901,-4.2901,-4.2901,-4.3046,-4.3317,-4.3317,-4.4186,-4.5743,-4.5743,-4.6468,-4.7699,-4.7699,-4.7699,-4.7699,-4.7699,-4.7699,-4.772,-4.7972,-4.8267,-4.8772,-5.0712,-5.1501,-5.1935,-5.3723,-5.4384,-5.4517,-5.4651,-5.4799,-5.492,-5.492,-5.492,-5.4897,-5.4941,-5.4985,-5.5028,-5.5127,-5.5157,-5.5197,-5.5313,-5.5377,-5.5403,-5.5403,-5.5403,-5.5403,-5.5403,-5.5403,-5.5403,-5.5403,-5.5403,-5.5403,-5.5403,-5.5403,-5.5403,-5.5403,-5.5403,-5.5403,-5.5403,-5.5403,-5.5403,-5.5403,-5.5403,-5.5403,-5.5403,-5.5403,-5.5403,-5.5403,-5.5403,-5.5403,-5.5403,-5.5403,-5.4677,-5.3263,-5.3263,-5.2468]},{"header":{"parameterUnit":"m.s-1","parameterCategory":1,"la1":30.6,"la2":29.2853,"lo1":-89.7004,"lo2":-87.6739,"dy":0.0162,"dx":0.0183,"nx":112,"ny":82,"refTime":"2026-04-13T00:00:00:Z","depth":0,"parameterNumber":3,"parameterNumberName":"V-component_of_WINDS"},"data":[0.0,0.0,0.0,0.0,0.0,0.0,0.0,0.0,0.0,0.0,0.0,0.0,0.0,0.0,0.0,0.0,0.0,0.0,0.0,0.0,0.0,0.0,0.0,0.0,0.0,0.0,0.0,0.0,0.0,0.0,0.0,0.0,0.0,0.0,0.0,0.0,0.0,0.0,0.0,0.0,0.0,0.0,0.0,0.0,0.0,0.0,0.0,0.0,0.0,0.0,0.0,0.0,0.0,0.0,0.0,0.0,0.0,0.0,0.0,0.0,0.0,0.0,0.0,0.0,0.0,0.0,0.0,0.0,0.0,0.0,0.0,0.0,0.0,0.0,0.0,0.0,0.0,0.0,0.0,0.0,0.0,0.0,0.0,0.0,0.0,0.0,0.0,0.0,0.0,0.0,0.0,-0.5413,-0.6177,-0.6438,-0.6018,-0.5734,-0.5278,-0.455,0.0,0.0,0.0,0.0,0.0,0.0,0.0,0.0,0.0,0.0,0.0,0.0,0.0,0.0,0.0,0.0,0.0,0.0,0.0,0.0,0.0,0.0,0.0,0.0,0.0,0.0,0.0,0.0,0.0,0.0,0.0,0.0,0.0,0.0,0.0,0.0,0.0,0.0,0.0,0.0,0.0,0.0,0.0,0.0,0.0,0.0,0.0,0.0,0.0,0.0,0.0,0.0,0.0,0.0,0.0,0.0,0.0,0.0,0.0,0.0,0.0,0.0,0.0,0.0,0.0,0.0,0.0,0.0,0.0,0.0,0.0,0.0,0.0,0.0,0.0,0.0,0.0,0.0,0.0,0.0,0.0,0.0,0.0,0.0,0.0,0.0,0.0,0.0,0.0,0.0,0.0,0.0,0.0,0.0,0.0,0.0,0.0,0.0,0.0,0.0,0.0,0.0,0.0,0.0,-0.485,-0.5867,-0.616,-0.617,-0.5873,-0.5644,-0.5235,-0.4612,0.0,0.0,0.0,0.0,0.0,0.0,0.0,0.0,0.0,0.0,0.0,0.0,0.0,0.0,0.0,0.0,0.0,0.0,0.0,0.0,0.0,0.0,0.0,0.0,0.0,0.0,0.0,0.0,0.0,0.0,0.0,0.0,0.0,0.0,0.0,0.0,0.0,0.0,0.0,0.0,0.0,0.0,0.0,0.0,0.0,0.0,0.0,0.0,0.0,0.0,0.0,0.0,0.0,0.0,0.0,0.0,0.0,0.0,0.0,0.0,0.0,0.0,0.0,0.0,0.0,0.0,0.0,0.0,0.0,0.0,0.0,0.0,0.0,0.0,0.0,0.0,0.0,0.0,0.0,0.0,0.0,0.0,0.0,0.0,0.0,0.0,0.0,0.0,0.0,0.0,0.0,0.0,0.0,0.0,0.0,0.0,0.0,0.0,0.0,0.0,0.0,0.0,0.0,-0.4631,-0.5373,-0.5875,-0.6177,-0.619,-0.5923,-0.5726,-0.5323,-0.4645,-0.4042,0.0,0.0,0.0,0.0,0.0,0.0,0.0,0.0,0.0,0.0,0.0,0.0,0.0,0.0,0.0,0.0,0.0,0.0,0.0,0.0,0.0,0.0,0.0,0.0,0.0,0.0,0.0,0.0,0.0,0.0,0.0,0.0,0.0,0.0,0.0,0.0,0.0,0.0,0.0,0.0,0.0,0.0,0.0,0.0,0.0,0.0,0.0,0.0,0.0,0.0,0.0,0.0,0.0,0.0,0.0,0.0,0.0,0.0,0.0,0.0,0.0,0.0,0.0,0.0,0.0,0.0,0.0,0.0,0.0,0.0,0.0,0.0,0.0,0.0,0.0,0.0,0.0,0.0,0.0,0.0,0.0,0.0,0.0,0.0,0.0,0.0,0.0,0.0,0.0,0.0,0.0,0.0,0.0,0.0,0.0,0.0,0.0,0.0,0.0,0.0,0.0,0.0,-0.5205,-0.5624,-0.5767,-0.6037,-0.6138,-0.5847,-0.5622,-0.522,-0.4559,-0.3991,0.0,0.0,0.0,0.0,0.0,0.0,0.0,0.0,0.0,0.0,0.0,0.0,0.0,0.0,0.0,0.0,0.0,0.0,0.0,0.0,0.0,0.0,0.0,0.0,0.0,0.0,0.0,0.0,0.0,0.0,0.0,0.0,0.0,0.0,0.0,0.0,0.0,0.0,0.0,0.0,0.0,0.0,0.0,0.0,0.0,0.0,0.0,0.0,0.0,0.0,0.0,0.0,0.0,0.0,0.0,0.0,0.0,0.0,0.0,0.0,0.0,0.0,0.0,0.0,0.0,0.0,0.0,0.0,0.0,0.0,0.0,0.0,0.0,0.0,0.0,0.0,0.0,0.0,0.0,0.0,0.0,0.0,0.0,0.0,0.0,0.0,0.0,0.0,0.0,0.0,0.0,0.0,0.0,0.0,0.0,0.0,0.0,0.0,0.0,0.0,0.0,0.0,-0.5057,-0.5365,-0.567,-0.5713,-0.5632,-0.527,-0.506,-0.474,-0.4246,-0.3679,0.0,0.0,0.0,0.0,0.0,0.0,0.0,0.0,0.0,0.0,0.0,0.0,0.0,0.0,0.0,0.0,0.0,0.0,0.0,0.0,0.0,0.0,0.0,0.0,0.0,0.0,0.0,0.0,0.0,0.0,0.0,0.0,0.0,0.0,0.0,0.0,0.0,0.0,0.0,0.0,0.0,0.0,0.0,0.0,0.0,0.0,0.0,0.0,0.0,0.0,0.0,0.0,0.0,0.0,0.0,0.0,0.0,0.0,0.0,0.0,0.0,0.0,0.0,0.0,0.0,0.0,0.0,0.0,0.0,0.0,0.0,0.0,0.0,0.0,0.0,0.0,0.0,0.0,0.0,0.0,0.0,0.0,0.0,0.0,0.0,0.0,0.0,0.0,0.0,0.0,0.0,0.0,0.0,0.0,0.0,0.0,0.0,0.0,0.0,0.0,0.0,0.0,-0.513,-0.5416,0.0,-0.5632,-0.5583,-0.5219,-0.5011,-0.466,-0.404,0.0,0.0,0.0,0.0,0.0,0.0,0.0,0.0,0.0,0.0,0.0,0.0,0.0,0.0,0.0,0.0,0.0,0.0,0.0,0.0,0.0,0.0,0.0,0.0,0.0,0.0,0.0,0.0,0.0,0.0,0.0,0.0,0.0,0.0,0.0,0.0,0.0,0.0,0.0,0.0,0.0,0.0,0.0,0.0,0.0,0.0,0.0,0.0,0.0,0.0,0.0,0.0,0.0,0.0,0.0,0.0,0.0,0.0,0.0,0.0,0.0,0.0,0.0,0.0,0.0,0.0,0.0,0.0,0.0,0.0,0.0,0.0,0.0,0.0,0.0,0.0,0.0,0.0,0.0,0.0,0.0,0.0,0.0,0.0,0.0,0.0,0.0,0.0,0.0,0.0,0.0,0.0,0.0,0.0,0.0,0.0,0.0,0.0,0.0,0.0,0.0,0.0,-0.462,-0.5155,-0.5493,0.0,-0.5615,-0.5583,-0.5219,-0.4934,-0.4524,-0.3907,0.0,0.0,0.0,0.0,0.0,0.0,0.0,0.0,0.0,0.0,0.0,0.0,0.0,0.0,0.0,0.0,0.0,0.0,0.0,0.0,0.0,0.0,0.0,0.0,0.0,0.0,0.0,0.0,0.0,0.0,0.0,0.0,0.0,0.0,0.0,0.0,0.0,0.0,0.0,0.0,0.0,0.0,0.0,0.0,0.0,0.0,0.0,0.0,0.0,0.0,0.0,0.0,0.0,0.0,0.0,0.0,0.0,0.0,0.0,0.0,0.0,0.0,0.0,0.0,0.0,0.0,0.0,0.0,0.0,0.0,0.0,0.0,0.0,0.0,0.0,0.0,0.0,0.0,0.0,0.0,0.0,0.0,0.0,0.0,0.0,0.0,0.0,0.0,0.0,0.0,0.0,0.0,0.0,0.0,0.0,0.0,0.0,0.0,0.0,0.0,0.0,0.0,-0.4586,-0.5112,-0.5415,-0.5497,-0.5615,-0.5583,-0.5219,-0.4783,-0.4301,0.0,0.0,0.0,0.0,0.0,0.0,0.0,0.0,0.0,0.0,0.0,0.0,0.0,0.0,0.0,0.0,0.0,0.0,0.0,0.0,0.0,0.0,0.0,0.0,0.0,0.0,0.0,0.0,0.0,0.0,0.0,0.0,0.0,0.0,0.0,0.0,0.0,0.0,0.0,0.0,0.0,0.0,0.0,0.0,0.0,0.0,0.0,0.0,0.0,0.0,0.0,0.0,0.0,0.0,0.0,0.0,0.0,0.0,0.0,0.0,0.0,0.0,0.0,0.0,0.0,0.0,0.0,0.0,0.0,0.0,0.0,0.0,0.0,0.0,0.0,0.0,0.0,0.0,0.0,0.0,0.0,0.0,0.0,0.0,0.0,0.0,0.0,0.0,0.0,0.0,0.0,0.0,0.0,0.0,0.0,0.0,0.0,0.0,0.0,0.0,0.0,0.0,0.0,-0.4601,-0.5129,-0.5447,-0.5615,-0.5669,-0.5583,-0.5219,-0.4865,-0.4394,-0.3848,0.0,0.0,0.0,0.0,0.0,0.0,0.0,0.0,0.0,0.0,0.0,0.0,0.0,0.0,0.0,0.0,0.0,0.0,0.0,0.0,0.0,0.0,0.0,0.0,0.0,0.0,0.0,0.0,0.0,0.0,0.0,0.0,0.0,0.0,0.0,0.0,0.0,0.0,0.0,0.0,0.0,0.0,0.0,0.0,0.0,0.0,0.0,0.0,0.0,0.0,0.0,0.0,0.0,0.0,0.0,0.0,0.0,0.0,0.0,0.0,0.0,0.0,0.0,0.0,0.0,0.0,0.0,0.0,0.0,0.0,0.0,0.0,0.0,0.0,0.0,0.0,0.0,0.0,0.0,0.0,0.0,0.0,0.0,0.0,0.0,0.0,0.0,0.0,0.0,0.0,0.0,0.0,0.0,0.0,0.0,0.0,0.0,0.0,0.0,0.0,0.0,0.0,-0.4575,-0.5112,-0.5464,-0.5664,-0.5691,-0.5583,-0.5219,-0.4898,-0.4432,-0.3848,0.0,0.0,0.0,0.0,0.0,0.0,0.0,0.0,0.0,0.0,0.0,0.0,0.0,0.0,0.0,0.0,0.0,0.0,0.0,0.0,0.0,0.0,0.0,0.0,0.0,0.0,0.0,0.0,0.0,0.0,0.0,0.0,0.0,0.0,0.0,0.0,0.0,0.0,0.0,0.0,0.0,0.0,0.0,0.0,0.0,0.0,0.0,0.0,0.0,0.0,0.0,0.0,0.0,0.0,0.0,0.0,0.0,0.0,0.0,0.0,0.0,0.0,0.0,0.0,0.0,0.0,0.0,0.0,0.0,0.0,0.0,0.0,0.0,0.0,0.0,0.0,0.0,0.0,0.0,0.0,0.0,0.0,0.0,0.0,0.0,0.0,0.0,0.0,0.0,0.0,0.0,0.0,0.0,0.0,0.0,0.0,0.0,0.0,0.0,0.0,0.0,0.0,-0.4564,-0.5112,-0.5464,-0.5664,-0.568,-0.5578,-0.523,-0.4903,-0.4438,-0.3851,0.0,0.0,0.0,0.0,0.0,0.0,0.0,0.0,0.0,0.0,0.0,0.0,0.0,0.0,0.0,0.0,0.0,0.0,0.0,0.0,0.0,0.0,0.0,0.0,0.0,0.0,0.0,0.0,0.0,0.0,0.0,0.0,0.0,0.0,0.0,0.0,0.0,0.0,0.0,0.0,0.0,0.0,0.0,0.0,0.0,0.0,0.0,0.0,0.0,0.0,0.0,0.0,0.0,0.0,0.0,0.0,0.0,0.0,0.0,0.0,-0.0628,0.0,0.0,0.0,0.0,0.0,0.0,0.0,0.0,0.0,0.0,0.0,0.0,0.0,0.0,0.0,0.0,0.0,0.0,0.0,0.0,0.0,0.0,0.0,0.0,0.0,0.0,0.0,0.0,0.0,0.0,0.0,0.0,0.0,0.0,0.0,0.0,0.0,0.0,0.0,0.0,0.0,-0.4575,-0.5112,-0.5464,-0.5664,-0.5605,-0.5475,-0.5385,-0.4953,-0.4474,-0.3903,-0.3105,0.0,0.0,0.0,0.0,0.0,0.0,0.0,0.0,0.0,0.0,0.0,0.0,0.0,0.0,0.0,0.0,0.0,0.0,0.0,0.0,0.0,0.0,0.0,0.0,0.0,0.0,0.0,0.0,0.0,0.0,0.0,0.0,0.0,0.0,0.0,0.0,0.0,0.0,0.0,0.0,0.0,0.0,0.0,0.0,0.0,0.0,0.0,0.0,0.0,0.0,0.0,0.0,0.0,0.0,0.0,0.0,0.0,0.0,0.0,0.0,-0.0313,0.0,0.0,0.0,0.0,0.0,0.0,0.0,0.0,0.0,0.0,0.0,0.0,0.0,0.0,0.0,0.0,0.0,0.0,0.0,0.0,0.0,0.0,0.0,0.0,0.0,0.0,0.0,0.0,0.0,0.0,0.0,0.0,0.0,0.0,0.0,0.0,0.0,0.0,0.0,0.0,-0.4498,-0.5073,-0.5462,-0.5545,-0.5513,-0.541,-0.5219,-0.492,-0.4455,-0.3784,-0.3021,0.0,0.0,0.0,0.0,0.0,0.0,0.0,0.0,0.0,0.0,0.0,0.0,0.0,0.0,0.0,0.0,0.0,0.0,0.0,0.0,0.0,0.0,0.0,0.0,0.0,0.0,0.0,0.0,0.0,0.0,0.0,0.0,0.0,0.0,0.0,0.0,0.0,0.0,0.0,0.0,0.0,0.0,0.0,0.0,0.0,0.0,0.0,0.0,0.0,0.0,0.0,0.0,0.0,0.068,0.06,0.0742,0.0566,0.0718,0.1015,0.0673,0.0311,-0.0151,-0.0937,0.0,0.0,0.0,0.0,0.0,0.0,0.0,0.0,0.0,0.0,0.0,0.0,0.0,0.0,0.0,0.0,0.0,0.0,0.0,0.0,0.0,0.0,0.0,0.0,-0.4679,-0.449,0.0,0.0,0.0,0.0,0.0,0.0,0.0,0.0,0.0,0.0,0.0,0.0,-0.4476,-0.5062,-0.5418,-0.5398,-0.5469,-0.5351,-0.5072,-0.4876,-0.4462,-0.3713,-0.3001,-0.2503,0.0,0.0,0.0,0.0,0.0,0.0,0.0,0.0,0.0,0.0,0.0,0.0,0.0,0.0,0.0,0.0,0.0,0.0,0.0,0.0,0.0,0.0,0.0,0.0,0.0,0.0,0.0,0.0,0.0,0.0,0.0,0.0,0.0905,0.0882,0.0,0.0,0.0,0.0,0.0,0.0,0.0,0.0,0.0,0.0,0.0,0.0,0.0,0.1385,0.1451,0.1538,0.1444,0.1266,0.0967,0.0874,0.094,0.0941,0.1048,0.1259,0.1441,0.0,0.0567,-0.0638,0.0,0.0,0.0,0.0,0.0,0.0,0.0,0.0,0.0,0.0,0.0,0.0,0.0,0.0,0.0,0.0,0.0,0.0,0.0,0.0,0.0,0.0,-0.5292,-0.5292,-0.5333,-0.5313,0.0,-0.475,-0.4317,-0.4045,-0.3835,0.0,0.0,0.0,0.0,0.0,0.0,0.0,-0.4655,-0.5127,-0.5409,-0.5475,-0.5447,-0.5333,-0.5175,-0.4963,-0.4572,-0.3993,-0.3424,-0.2903,-0.2481,-0.1996,0.0,0.0,0.0,0.0,0.0,0.0,0.0,0.0,0.0,0.0,0.0,0.0,0.0,0.0,0.0,0.0,0.0,0.0,0.0,0.0,0.0,0.0,0.0,0.0,0.0,0.0,0.0,0.0,0.0,0.111,0.1019,0.102,0.1024,0.1016,0.0,0.0,0.0,0.0,0.0,0.0,0.0,0.0,0.0,0.1406,0.151,0.1605,0.1682,0.1774,0.1768,0.1667,0.1564,0.1519,0.1589,0.1602,0.1668,0.1726,0.1829,0.1598,0.108,-0.0246,-0.1085,-0.167,0.0,0.0,0.0,0.0,-0.356,-0.3653,-0.3734,-0.3777,0.0,-0.3634,0.0,0.0,0.0,0.0,0.0,0.0,0.0,0.0,0.0,0.0,-0.5494,-0.5626,-0.5708,-0.5735,-0.5681,-0.5409,-0.505,0.0,-0.4376,-0.4131,-0.3632,0.0,0.0,0.0,0.0,0.0,-0.472,-0.5168,-0.5436,-0.5355,-0.536,-0.5336,-0.5105,-0.4996,-0.4709,-0.4208,-0.3776,-0.3259,-0.265,-0.2103,-0.1744,0.0,0.0,0.0,0.0,0.0,0.0,0.0,0.0,0.0,0.0,0.0,0.0,0.0,0.0,0.0,0.0,0.0,0.0,0.0,0.0,0.0,0.0,0.0,0.0,0.0,0.0,0.0,0.0,0.1196,0.1125,0.1163,0.1137,0.1133,0.0,0.0,0.0,0.0,0.0,0.0,0.1382,0.1431,0.1501,0.1592,0.1696,0.1791,0.1874,0.1958,0.1999,0.2,0.202,0.203,0.2031,0.2053,0.206,0.205,0.2029,0.1811,0.1401,0.022,-0.0713,-0.1396,-0.2595,-0.3225,-0.3537,-0.391,-0.4124,-0.4202,-0.4251,-0.4251,-0.4263,-0.4197,-0.4093,-0.393,-0.3734,0.0,0.0,0.0,0.0,-0.4381,-0.4878,-0.5305,-0.567,-0.5857,-0.5971,-0.6034,-0.6002,-0.5931,-0.5692,0.0,-0.4871,-0.4651,-0.4109,0.0,0.0,0.0,0.0,-0.4414,-0.4828,-0.5249,-0.5437,-0.5301,-0.5333,-0.5284,-0.5078,-0.5034,-0.4794,-0.4343,-0.404,-0.3548,-0.2777,-0.2169,-0.177,-0.1601,0.0,0.0,0.0,0.0,0.0,0.0,0.0,0.0,0.0,0.0,0.0,0.0,0.0,0.0,0.0,0.0,0.0,0.0,0.0,0.0,0.0,0.0,0.0,0.0,0.0,0.0,0.0,0.0,0.0,0.1287,0.1277,0.0,0.0,0.0,0.0,0.1371,0.1505,0.157,0.1599,0.1632,0.1742,0.1779,0.1843,0.1907,0.1969,0.203,0.2124,0.2124,0.2126,0.2126,0.2126,0.2127,0.2048,0.202,0.2019,0.18,0.1447,0.0589,0.0,-0.0648,-0.2342,-0.3112,-0.336,-0.4358,-0.4736,-0.4768,-0.4994,-0.4998,-0.4924,-0.4971,-0.4722,-0.4401,-0.4162,-0.4121,0.0,0.0,-0.4615,-0.4749,-0.4999,-0.5497,-0.5902,-0.5902,-0.6131,-0.6382,-0.6274,-0.6295,-0.6109,0.0,-0.5246,-0.5079,-0.4706,0.0,-0.4289,-0.4449,-0.458,-0.4794,-0.5121,-0.5351,-0.5502,-0.5491,-0.5436,-0.5358,-0.5186,-0.5078,-0.4838,-0.4416,-0.4184,-0.3722,-0.2938,-0.2306,-0.1877,-0.1616,-0.1342,0.0,0.0,0.0,0.0,0.0,0.0,0.0,0.0,0.0,0.0,0.0,0.0,0.0,0.0,0.0,0.0,0.0,0.0,0.0,0.0,0.0,0.0,0.0,0.0,0.0,0.0,0.0,0.0,0.1468,0.1536,0.0,0.1551,0.155,0.1566,0.1606,0.1693,0.1757,0.1789,0.1838,0.1888,0.1937,0.1997,0.2039,0.2061,0.2102,0.2189,0.2189,0.2189,0.2189,0.2189,0.2189,0.2106,0.2076,0.2056,0.1961,0.1799,0.1527,0.0708,-0.0451,-0.1596,-0.2326,-0.2833,-0.3565,-0.3852,-0.3889,-0.4003,-0.4095,-0.4273,-0.4598,-0.4676,-0.4666,-0.4513,-0.4405,-0.4353,-0.457,-0.463,-0.4686,-0.5,-0.528,-0.5534,-0.5882,-0.6061,-0.614,-0.6144,-0.6149,-0.604,-0.5676,-0.5567,-0.5447,-0.5205,-0.492,-0.48,-0.4915,-0.5007,-0.5099,-0.534,-0.5524,-0.5594,-0.5518,-0.547,-0.5404,-0.5203,-0.5148,-0.4984,-0.4673,-0.4551,-0.4101,-0.3185,-0.244,-0.1851,-0.1407,-0.0976,-0.094,0.0,0.0,0.0,0.0,0.0,0.0,0.0,0.0,0.0,0.0,0.0,0.0,0.0,0.0,0.0,0.0,0.0,0.0,0.0,0.0,0.0,0.0,0.0,0.0,0.0,0.0,0.1634,0.1657,0.1686,0.1727,0.1708,0.175,0.1708,0.1748,0.1816,0.1869,0.1899,0.1949,0.1994,0.2033,0.2074,0.2104,0.2124,0.2144,0.2223,0.2223,0.2223,0.2223,0.2223,0.2223,0.2138,0.2108,0.2089,0.2061,0.2031,0.2003,0.1343,0.0237,-0.0642,-0.1328,-0.1892,-0.2551,-0.2834,-0.2841,-0.2961,-0.3321,-0.3783,-0.4156,-0.4605,-0.4905,-0.4871,-0.4736,-0.463,-0.4692,-0.4683,-0.4724,-0.4929,-0.5092,-0.529,-0.5641,-0.5892,-0.5991,-0.6043,-0.6069,-0.604,-0.5882,-0.5817,-0.5714,-0.5474,-0.5333,-0.5257,-0.5252,-0.5284,-0.5366,-0.5486,-0.5615,-0.5659,-0.5578,-0.5534,-0.5427,-0.5262,-0.5208,-0.5027,-0.4678,-0.4551,-0.4032,-0.309,-0.2315,-0.1665,-0.1199,-0.0813,-0.0776,-0.1173,0.0,0.0,0.0,0.0,0.0,0.0,0.0,0.0,0.0,0.0,0.0,0.0,0.0,0.0,0.0,0.0,0.0,0.0,0.0,0.0,0.0,0.0,0.0,0.1924,0.1898,0.1861,0.1752,0.1764,0.1801,0.1801,0.1829,0.178,0.1783,0.187,0.19,0.1932,0.196,0.2004,0.2127,0.2128,0.2158,0.222,0.2221,0.2223,0.2223,0.2223,0.2223,0.2223,0.2223,0.2138,0.2109,0.2109,0.2093,0.2126,0.2031,0.1829,0.1448,0.0434,-0.0122,-0.0482,-0.1385,-0.1669,-0.1703,-0.2023,-0.2784,-0.3575,-0.3795,-0.4433,-0.5122,-0.5091,-0.4998,-0.4977,-0.4977,-0.4857,-0.4734,-0.4734,-0.4939,-0.514,-0.514,-0.5541,-0.5912,-0.5845,-0.5979,-0.6036,-0.6031,-0.5939,-0.5788,-0.5561,-0.5621,-0.5665,-0.5462,-0.5485,0.0,-0.5513,-0.5615,-0.5691,-0.5691,-0.5583,-0.5464,-0.5424,-0.5262,-0.4956,-0.4416,-0.4147,-0.3546,-0.2606,-0.188,-0.1321,-0.097,-0.0849,-0.0871,-0.1071,0.0,0.0,0.0,0.0,0.0,0.0,0.0,0.0,0.0,0.0,0.0,0.0,0.0,0.0,0.0,0.0,0.0,0.0,0.0,0.0,0.0,0.0,0.2621,0.2426,0.2258,0.2113,0.2224,0.2067,0.1926,0.1926,0.1899,0.1898,0.1936,0.1926,0.1941,0.1992,0.1984,0.2004,0.2127,0.2128,0.2082,0.2121,0.2143,0.2223,0.2223,0.2223,0.2223,0.2223,0.2223,0.2138,0.2109,0.2109,0.2093,0.2126,0.2031,0.1956,0.1763,0.0993,0.0554,0.0307,0.0797,0.0364,-0.0539,-0.1073,-0.1694,-0.2335,-0.2836,-0.3485,-0.4058,-0.4039,-0.3949,-0.3856,-0.3856,-0.3721,-0.3632,-0.3632,-0.3682,-0.3783,-0.3981,-0.4282,-0.4564,-0.4724,-0.4875,-0.4978,-0.4902,-0.4924,-0.5172,-0.5809,-0.5964,-0.5937,-0.5779,-0.5784,0.0,-0.5648,-0.5669,-0.5691,-0.5691,-0.5659,-0.56,-0.5429,-0.538,-0.5007,-0.4244,-0.3795,-0.3177,-0.2281,-0.1469,-0.0814,-0.0274,-0.0385,-0.0478,0.0,0.0,0.0,0.0,0.0,0.0,0.0,0.0,0.0,0.0,0.0,0.0,0.0,0.0,0.0,0.0,0.0,0.0,0.0,0.0,0.0,0.0,0.2892,0.3063,0.3,0.2801,0.2553,0.2428,0.2312,0.216,0.2038,0.1937,0.193,0.1974,0.1948,0.1951,0.1999,0.1996,0.2016,0.2127,0.2128,0.2084,0.2128,0.2213,0.2223,0.2223,0.2223,0.2223,0.2223,0.2223,0.2211,0.2128,0.2128,0.2119,0.2165,0.2069,0.2049,0.0,0.0,0.0,0.0,0.0,0.1467,0.0724,0.0241,-0.0354,-0.109,-0.1549,-0.2215,-0.2854,-0.2832,-0.2774,-0.2704,-0.2717,-0.2651,-0.2593,-0.2593,-0.2593,-0.2598,-0.2716,-0.2972,-0.3157,-0.3245,-0.3424,-0.3506,-0.3465,-0.3584,0.0,-0.4805,-0.5442,-0.5821,-0.5747,-0.5812,-0.586,-0.5702,-0.5691,-0.5691,-0.5691,-0.5691,-0.5632,-0.5435,-0.5413,0.0,0.0,0.0,-0.2913,-0.17,-0.1044,0.0,0.0,0.0,0.0,0.0,0.0,0.0,0.0,-0.2573,-0.3083,0.0,0.0,0.0,0.0,0.0,0.0,0.0,0.0,0.0,0.0,0.0,0.0,0.0,0.0,0.0,0.0,0.312,0.3409,0.3575,0.3434,0.3104,0.259,0.2508,0.2406,0.2099,0.1985,0.1917,0.1977,0.1954,0.1951,0.1985,0.0,0.0,0.0,0.0,0.2157,0.2216,0.222,0.2223,0.2223,0.2223,0.2223,0.2223,0.2223,0.2223,0.2223,0.2223,0.2223,0.222,0.2121,0.209,0.2053,0.1999,0.1977,0.1977,0.1977,0.1959,0.1875,0.1573,0.0,0.0,-0.023,-0.0911,-0.1623,-0.1595,-0.1565,-0.1532,-0.1587,-0.1549,-0.1524,-0.1524,-0.1524,-0.1481,-0.1457,-0.1613,-0.1803,-0.1674,-0.1789,-0.1954,-0.1954,-0.2145,-0.2541,-0.3125,-0.4463,-0.5437,-0.5474,-0.5752,-0.5882,-0.5723,-0.5696,-0.5691,-0.5691,0.0,0.0,-0.5409,-0.5388,-0.5031,-0.421,-0.3657,-0.2653,-0.1084,-0.068,-0.034,0.0,-0.0121,-0.0239,-0.0359,-0.0759,-0.1209,-0.1753,-0.2591,-0.343,0.0,0.0,0.0,0.0,0.0,0.0,0.0,0.0,0.0,0.0,0.0,0.0,0.0,0.0,0.0,0.3364,0.3488,0.3564,0.3649,0.3739,0.3661,0.3314,0.2833,0.2467,0.2406,0.2125,0.1947,0.2005,0.1984,0.199,0.2109,0.2029,0.2033,0.2127,0.2128,0.2082,0.2117,0.2143,0.2223,0.2223,0.0,0.0,0.2223,0.2223,0.2223,0.2223,0.2223,0.2223,0.222,0.2121,0.2076,0.2023,0.199,0.1977,0.1977,0.1977,0.1973,0.1906,0.1598,0.1214,0.0775,0.0412,0.0,-0.0342,-0.0336,-0.0328,0.0,-0.037,-0.036,-0.0351,-0.0351,-0.0351,-0.0301,-0.0303,-0.0505,-0.0706,-0.0653,-0.084,-0.0974,-0.0974,-0.117,-0.1562,-0.2106,-0.3719,-0.507,-0.5446,-0.5831,-0.6007,-0.5888,-0.5745,-0.5691,-0.5691,-0.5691,-0.5632,-0.5486,-0.5475,-0.5183,-0.4462,-0.324,-0.2106,-0.1112,-0.0709,-0.0344,0.0,-0.0032,-0.0064,-0.0066,-0.0434,-0.0808,-0.1277,-0.2396,-0.3366,0.0,0.0,0.0,0.0,0.0,0.0,0.0,0.0,0.0,0.0,0.0,0.5866,0.5724,0.0,0.4204,0.4102,0.3856,0.3654,0.3714,0.3735,0.3579,0.3271,0.296,0.259,0.2284,0.2084,0.1971,0.2015,0.2019,0.2096,0.2127,0.2064,0.2071,0.2086,0.2087,0.2101,0.2132,0.2214,0.2223,0.2223,0.2223,0.2223,0.2223,0.2223,0.2223,0.2223,0.2223,0.2223,0.222,0.2121,0.2082,0.2038,0.2009,0.1989,0.1977,0.1977,0.1977,0.1977,0.1791,0.159,0.1446,0.1255,0.1056,0.0917,0.0902,0.0881,0.0914,0.0845,0.0831,0.0871,0.0871,0.0814,0.081,0.0818,0.0712,0.0606,0.0606,0.0501,0.0448,0.0448,0.0249,-0.01,-0.0647,-0.2004,-0.3393,-0.4461,-0.5067,-0.5374,-0.5299,-0.5365,-0.5435,-0.5557,-0.5641,-0.5642,-0.5518,-0.5173,-0.4718,-0.4242,-0.2994,-0.1956,-0.1187,-0.0757,-0.0365,0.0,0.0,0.0,0.0,-0.0284,-0.0536,-0.0821,-0.1874,-0.2946,0.0,0.0,0.0,0.0,0.0,0.0,0.0,0.0,0.7102,0.7272,0.7296,0.7272,0.6978,0.5948,0.5086,0.4839,0.4188,0.3714,0.3822,0.3691,0.3455,0.3024,0.296,0.2718,0.2169,0.2047,0.1999,0.2034,0.2059,0.2075,0.2147,0.2105,0.2119,0.2119,0.2119,0.2129,0.2221,0.2223,0.2223,0.2223,0.2223,0.2223,0.2223,0.2223,0.2223,0.2223,0.2223,0.2223,0.222,0.2128,0.2097,0.2126,0.2037,0.2007,0.1977,0.1977,0.1977,0.1977,0.1977,0.196,0.1939,0.1933,0.1838,0.1793,0.1814,0.1782,0.1802,0.1747,0.1728,0.1722,0.1722,0.1652,0.1639,0.171,0.1643,0.1624,0.1618,0.1617,0.1617,0.1617,0.1364,0.1061,0.0555,-0.0353,-0.1595,-0.3223,-0.3974,-0.4415,-0.4497,-0.4754,-0.5036,-0.5295,-0.5552,-0.5648,-0.5551,-0.4864,-0.4279,-0.3907,-0.2917,-0.1968,-0.1202,-0.0785,-0.0395,0.0,0.0,0.0,0.0,-0.0149,-0.0297,-0.0407,-0.1289,-0.2439,0.5953,0.6326,0.689,0.7058,0.7472,0.7837,0.0,0.0,0.8371,0.8344,0.8413,0.8338,0.7855,0.67,0.5682,0.5202,0.4375,0.3819,0.3827,0.3814,0.364,0.3086,0.2714,0.2543,0.2452,0.2202,0.2038,0.2095,0.2102,0.2116,0.221,0.2214,0.2217,0.2217,0.2217,0.2218,0.2223,0.2223,0.2223,0.2223,0.2223,0.2223,0.2223,0.2223,0.2223,0.2223,0.2223,0.2223,0.2221,0.2218,0.2182,0.2128,0.206,0.2024,0.1977,0.1977,0.1977,0.1977,0.1977,0.1974,0.1967,0.194,0.1866,0.185,0.1795,0.1814,0.1783,0.1804,0.172,0.17,0.17,0.1697,0.1689,0.1719,0.1712,0.165,0.1622,0.1617,0.1617,0.1617,0.1364,0.1112,0.0808,0.005,-0.0902,-0.201,-0.2786,-0.3376,-0.3839,-0.4192,-0.4576,-0.4978,-0.5419,-0.5686,-0.5669,-0.5054,-0.4458,-0.3919,-0.2959,-0.202,-0.1163,-0.072,-0.0349,0.0,0.0,0.0,0.0,-0.004,-0.004,-0.0078,-0.0958,-0.2129,0.6661,0.7061,0.7618,0.0,0.8325,0.8796,0.8796,0.8999,0.9187,0.9308,0.9538,0.9515,0.8912,0.7612,0.6434,0.0,0.4732,0.3841,0.3877,0.3683,0.3532,0.3286,0.2757,0.2342,0.2236,0.2072,0.2037,0.2079,0.2116,0.2142,0.2221,0.2223,0.2223,0.2223,0.2223,0.2223,0.2223,0.2223,0.2223,0.2223,0.2223,0.2223,0.2223,0.2223,0.2223,0.2223,0.2223,0.2223,0.2223,0.2223,0.2129,0.2089,0.2071,0.2038,0.1999,0.1982,0.1977,0.1977,0.1977,0.1977,0.1974,0.1962,0.1945,0.1866,0.1841,0.1859,0.1819,0.1806,0.178,0.1757,0.1757,0.1744,0.1781,0.177,0.174,0.1711,0.1647,0.1629,0.1617,0.1617,0.1516,0.1415,0.1263,0.0858,0.04,-0.0048,-0.1315,-0.236,-0.279,-0.3222,-0.3778,-0.4445,-0.4754,-0.4879,-0.4879,-0.4308,-0.3764,-0.3268,-0.2441,-0.1586,-0.0858,-0.0533,-0.0269,0.0,0.0,0.0,0.0,0.0,0.0,0.0,-0.0785,-0.1643,0.7167,0.0,0.0,0.8455,0.9094,0.9624,0.9624,0.9721,0.9876,0.9949,1.0217,1.0206,0.9564,0.81,0.6911,0.6417,0.4875,0.3849,0.3913,0.3693,0.3514,0.3439,0.2884,0.2465,0.2248,0.21,0.2014,0.2124,0.2113,0.2213,0.2221,0.2223,0.2223,0.2223,0.2223,0.2223,0.2223,0.2223,0.2223,0.2223,0.2223,0.2223,0.2223,0.2223,0.2223,0.2223,0.2223,0.2223,0.2223,0.2223,0.2136,0.2108,0.2086,0.2053,0.2016,0.1996,0.1984,0.1977,0.1977,0.1977,0.1977,0.1977,0.1962,0.1941,0.1933,0.1895,0.1851,0.1786,0.1819,0.1795,0.1795,0.1779,0.1815,0.1807,0.1764,0.1724,0.1717,0.1639,0.1617,0.1617,0.1617,0.1617,0.1617,0.1364,0.1197,0.1199,0.0,-0.1097,-0.1524,-0.2166,-0.2903,-0.3765,-0.3882,-0.3916,-0.3894,-0.3376,-0.2872,-0.2435,-0.1712,-0.107,-0.0464,-0.0313,-0.0158,0.0,0.0,0.0,0.0,0.0,0.0,0.0,-0.0635,-0.1231,0.0,0.0,0.8677,0.8982,0.9608,1.0188,1.0188,1.0282,1.0363,1.0245,1.0306,1.0166,0.9422,0.7968,0.6741,0.619,0.4836,0.3849,0.3913,0.391,0.3743,0.3442,0.3327,0.3119,0.0,0.2274,0.197,0.2121,0.2093,0.2124,0.222,0.2223,0.2223,0.2223,0.2223,0.2223,0.2223,0.2223,0.2223,0.2223,0.2223,0.2223,0.2223,0.2223,0.2223,0.2223,0.2223,0.2223,0.2223,0.2223,0.2136,0.2109,0.2108,0.2071,0.2019,0.2018,0.2,0.1977,0.1977,0.1977,0.1977,0.1977,0.1975,0.197,0.194,0.1909,0.1879,0.1791,0.1819,0.1795,0.1795,0.1794,0.1786,0.1812,0.1726,0.1696,0.1721,0.1639,0.1617,0.1617,0.1617,0.1617,0.1617,0.1364,0.1197,0.1199,0.0954,0.0514,0.0,-0.1109,-0.2097,-0.2853,-0.2944,-0.2935,-0.2953,-0.2459,-0.1932,-0.1473,-0.0924,-0.0457,-0.0041,0.0,0.0,0.0,0.0,0.0,0.0,0.0,0.0,0.0,-0.0473,-0.0954,0.7724,0.0,0.9007,0.9364,0.99,1.0339,1.0339,1.0477,1.0526,1.0277,1.0111,0.986,0.9127,0.7628,0.6368,0.6013,0.4743,0.3849,0.3913,0.3877,0.3883,0.3741,0.3442,0.0,0.0,0.0,0.0,0.2311,0.2371,0.2289,0.2123,0.2144,0.2223,0.2223,0.2223,0.2223,0.2223,0.2223,0.2223,0.2223,0.2223,0.2223,0.2223,0.2223,0.2223,0.2223,0.2223,0.2223,0.2223,0.2223,0.2216,0.2138,0.2117,0.2084,0.2046,0.2026,0.2001,0.1977,0.1977,0.1977,0.1977,0.1977,0.1977,0.1975,0.1964,0.1926,0.1884,0.1873,0.1834,0.1795,0.1795,0.1795,0.1793,0.1782,0.1741,0.1701,0.1692,0.1651,0.1617,0.1617,0.1617,0.1617,0.1617,0.1516,0.1453,0.1465,0.0884,0.0312,-0.0131,-0.0767,-0.1317,-0.1794,-0.1876,-0.1883,-0.1923,-0.1563,-0.1229,-0.0968,-0.0614,-0.0282,0.0,0.0,0.0,0.0,0.0,0.0,0.0,0.0,0.0,0.0,-0.0354,-0.0665,0.8268,0.8877,0.9453,0.9746,1.0176,1.0509,1.0399,1.0517,1.0485,1.0063,0.977,0.942,0.8766,0.7402,0.6321,0.6158,0.5193,0.4408,0.4384,0.4301,0.4246,0.4222,0.3931,0.0,0.0,0.0,0.0,0.2625,0.2505,0.2439,0.2304,0.2206,0.2223,0.2223,0.2223,0.2223,0.2223,0.2223,0.2223,0.2223,0.2223,0.2223,0.2223,0.2223,0.2223,0.2223,0.2223,0.2223,0.2223,0.2223,0.2223,0.222,0.2133,0.2101,0.2126,0.2042,0.2009,0.1977,0.1977,0.1977,0.1977,0.1977,0.1977,0.1977,0.1977,0.1941,0.1899,0.1889,0.185,0.1809,0.1798,0.1795,0.1795,0.1795,0.1757,0.1718,0.1707,0.1667,0.1629,0.162,0.1617,0.1617,0.1617,0.1607,0.1594,0.1624,0.1062,0.0573,0.0222,0.0,-0.0255,-0.0569,-0.0607,-0.0693,-0.0753,-0.0602,-0.0504,-0.0458,-0.0283,-0.0121,0.0,0.0,0.0,0.0,0.0,0.0,0.0,0.0,0.0,0.0,-0.018,-0.0314,0.8942,0.9518,0.9957,1.0196,1.0444,1.0647,1.0477,1.0383,1.0221,0.9663,0.9307,0.8908,0.8381,0.0,0.654,0.664,0.6033,0.5504,0.5324,0.5118,0.4964,0.0,0.0,0.0,0.0,0.0,0.0,0.3136,0.0,0.2518,0.2629,0.2405,0.2223,0.2223,0.2223,0.2223,0.2223,0.2223,0.2223,0.2223,0.2223,0.2223,0.2223,0.2223,0.2223,0.2223,0.2223,0.2223,0.2223,0.2223,0.2223,0.2223,0.2223,0.2185,0.213,0.2128,0.2029,0.1978,0.1977,0.1977,0.1977,0.1977,0.1977,0.1977,0.1977,0.1955,0.1925,0.1896,0.1865,0.1776,0.1805,0.1795,0.1795,0.1795,0.1828,0.1795,0.1712,0.1684,0.1705,0.1625,0.1618,0.1617,0.1617,0.1592,0.1621,0.1622,0.1495,0.1312,0.1105,0.105,0.094,0.0713,0.069,0.0594,0.0434,0.0341,0.0209,0.0,0.0,0.0,0.0,0.0,0.0,0.0,0.0,0.0,0.0,0.0,0.0,0.0,0.0,0.0,0.9527,0.9981,1.0339,1.0517,1.0623,1.0647,1.0477,1.0383,1.0209,0.9397,0.8836,0.8368,0.7932,0.0,0.0,0.6979,0.6834,0.0,0.6525,0.6047,0.0,0.6093,0.0,0.5892,0.6183,0.5879,0.0,0.0,0.3878,0.3169,0.2982,0.2922,0.2827,0.2559,0.2559,0.2425,0.2223,0.2223,0.2223,0.2223,0.2223,0.2223,0.2223,0.2223,0.2223,0.2223,0.2223,0.2223,0.2223,0.2223,0.2223,0.2223,0.2223,0.2131,0.2095,0.2072,0.2039,0.2005,0.1984,0.1977,0.1977,0.1977,0.1977,0.1977,0.1977,0.1955,0.1929,0.1922,0.1881,0.1782,0.1774,0.1812,0.1795,0.1795,0.1828,0.1802,0.1794,0.1752,0.1712,0.1704,0.1632,0.1617,0.1617,0.1592,0.1579,0.1602,0.1527,0.1371,0.1132,0.1027,0.092,0.0742,0.0675,0.0584,0.0434,0.0341,0.021,0.0,0.0,0.0,0.0,0.0,0.0,0.0,0.0,0.0,0.0,0.0,0.0,0.0,0.0,0.0,1.0006,1.0331,1.0574,1.0672,1.0631,1.0509,1.0249,1.0071,0.973,0.8909,0.8251,0.0,0.761,0.0,0.0,0.0,0.0,0.0,0.7442,0.701,0.678,0.0,0.6954,0.0,0.7286,0.7103,0.6798,0.0,0.4557,0.344,0.3382,0.3258,0.3094,0.2894,0.2761,0.2559,0.2223,0.2223,0.2223,0.2223,0.2223,0.2223,0.2223,0.2223,0.2223,0.2223,0.0,0.2223,0.2223,0.2223,0.2223,0.2223,0.2223,0.2136,0.2105,0.2075,0.2045,0.2014,0.1986,0.1977,0.1977,0.1977,0.1977,0.1977,0.1977,0.1964,0.1948,0.1934,0.1896,0.1857,0.1786,0.1817,0.1795,0.1795,0.1782,0.1821,0.1807,0.1767,0.1673,0.1647,0.1628,0.1617,0.1617,0.1602,0.1598,0.1614,0.1562,0.1453,0.1262,0.1207,0.1142,0.0998,0.0928,0.0841,0.0703,0.0643,0.0465,0.0213,0.0169,0.0128,0.0,0.0,0.0,0.0,0.0,0.0,0.0,0.0,0.0,0.0,0.0,0.0,1.042,1.0615,1.072,1.0672,1.055,1.0278,0.9908,0.9584,0.9118,0.8333,0.0,0.7146,0.7289,0.701,0.7013,0.7843,0.0,0.8716,0.8293,0.8008,0.7892,0.7943,0.811,0.8301,0.846,0.8585,0.8333,0.7765,0.5503,0.4112,0.401,0.367,0.343,0.3295,0.2961,0.2627,0.2356,0.2356,0.2356,0.2356,0.2356,0.2356,0.2356,0.229,0.229,0.229,0.2223,0.0,0.2223,0.2223,0.2223,0.2223,0.2223,0.2139,0.211,0.2076,0.2048,0.202,0.1988,0.1977,0.1977,0.1977,0.1977,0.1977,0.1977,0.1977,0.1971,0.1945,0.1913,0.188,0.1853,0.1821,0.1795,0.1795,0.1795,0.1787,0.1816,0.1729,0.1686,0.1628,0.1617,0.1617,0.1617,0.1617,0.1617,0.1617,0.1591,0.1539,0.1401,0.1408,0.1388,0.1385,0.1317,0.1239,0.1117,0.1039,0.0811,0.0436,0.0386,0.03,0.0,0.0,0.0,0.0,0.0,0.0,0.0,0.0,0.0,0.0,0.0,0.0,1.0858,1.0899,1.085,1.055,1.0461,1.0257,0.9649,0.9169,0.0,0.0,0.0,0.6593,0.6768,0.6897,0.0,0.8305,0.0,0.0,0.0,0.0,0.9013,0.0,0.0,0.0,0.0,0.0,0.0,0.0,0.0,0.7074,0.5526,0.5135,0.4641,0.3701,0.3297,0.3094,0.3026,0.3026,0.3026,0.3026,0.3026,0.3026,0.3026,0.2759,0.2627,0.2627,0.229,0.0,0.2223,0.2223,0.2223,0.2223,0.2223,0.2218,0.2207,0.215,0.2124,0.2049,0.1994,0.1977,0.1977,0.1977,0.1977,0.1977,0.1977,0.1977,0.1975,0.197,0.1929,0.1884,0.1879,0.1836,0.1795,0.1795,0.1795,0.1794,0.1789,0.1744,0.1686,0.1628,0.1617,0.1617,0.1617,0.1617,0.1617,0.1617,0.1591,0.1539,0.1401,0.1408,0.1381,0.1315,0.1286,0.126,0.1115,0.1053,0.083,0.0446,0.04,0.0267,0.0,0.0,0.0,0.0,0.0,0.0,0.0,0.0,0.0,0.0,0.0,0.0,1.085,1.0891,1.0883,1.0526,1.029,0.9957,0.9242,0.0,0.0,0.0,0.6578,0.6197,0.6408,0.0,0.0,0.0,0.0,0.0,0.0,0.0,0.0,0.0,0.0,0.0,0.0,0.0,0.0,0.0,0.0,0.8889,0.7044,0.6156,0.5111,0.3835,0.3633,0.343,0.3228,0.3228,0.3228,0.3228,0.3228,0.3228,0.3228,0.3028,0.2894,0.2694,0.2559,0.0,0.2223,0.2223,0.2223,0.2223,0.2223,0.2223,0.2214,0.2151,0.2128,0.212,0.1997,0.1977,0.1977,0.1977,0.1977,0.1977,0.1977,0.1977,0.1977,0.1977,0.1933,0.1885,0.1885,0.184,0.1795,0.1795,0.1795,0.1791,0.1775,0.1735,0.1692,0.1648,0.1628,0.1617,0.1617,0.1617,0.1617,0.1617,0.1605,0.1568,0.1446,0.1456,0.1414,0.1311,0.1293,0.1283,0.129,0.1274,0.1139,0.0845,0.0838,0.0648,0.0232,0.0185,0.0139,0.0,0.0,0.0,0.0,0.0,0.0,0.0,0.0,0.0,1.0858,1.0915,1.0932,1.0534,1.0128,0.9632,0.8877,0.813,0.0,0.0,0.6148,0.5823,0.6033,0.0,0.0,0.0,0.0,0.0,0.0,0.0,0.0,0.0,0.0,0.0,0.0,0.0,0.0,0.0,0.0,0.0,0.8246,0.6911,0.5644,0.4372,0.4372,0.4238,0.39,0.39,0.39,0.39,0.3833,0.3765,0.3698,0.3497,0.323,0.2828,0.2761,0.0,0.0,0.2223,0.2223,0.2223,0.2223,0.2218,0.2204,0.215,0.206,0.2046,0.1994,0.1977,0.1977,0.1977,0.1977,0.1977,0.1977,0.1977,0.1977,0.1977,0.1933,0.1885,0.1885,0.184,0.1795,0.1795,0.1795,0.1787,0.1811,0.1785,0.1704,0.1721,0.1643,0.1625,0.1618,0.1617,0.1617,0.1617,0.1617,0.1595,0.1486,0.1505,0.1456,0.1323,0.1309,0.135,0.1506,0.1489,0.1406,0.1224,0.1205,0.0954,0.0429,0.0381,0.0286,0.0,0.0,0.0,0.0,0.0,0.0,0.0,0.0,0.0,1.1224,1.1183,1.1078,1.0512,0.9987,0.9421,0.8536,0.0,0.0,0.6375,0.5774,0.543,0.5628,0.5815,0.6204,0.6947,0.0,0.0,0.0,0.0,0.0,0.0,0.0,0.0,0.0,0.0,0.0,0.0,0.0,0.0,0.8651,0.7784,0.6982,0.6183,0.6183,0.6116,0.6116,0.6116,0.6116,0.6116,0.5778,0.551,0.5178,0.4507,0.3835,0.3161,0.2827,0.0,0.0,0.2223,0.2223,0.2223,0.2223,0.2138,0.2109,0.2076,0.2046,0.2018,0.1988,0.1977,0.1977,0.1977,0.1977,0.1977,0.1977,0.1977,0.1977,0.1977,0.1933,0.1885,0.1885,0.184,0.1795,0.1795,0.1795,0.1787,0.1811,0.1802,0.1783,0.1725,0.1712,0.165,0.1622,0.1617,0.1617,0.1617,0.1617,0.1595,0.1486,0.1524,0.1487,0.1396,0.1321,0.1342,0.1478,0.1457,0.1338,0.1223,0.1205,0.0954,0.0429,0.0381,0.0286,0.0,0.0,0.0,0.0,0.0,0.0,0.0,0.0,0.0,1.0714,1.0907,1.0915,1.0266,0.9778,0.9202,0.8245,0.0,0.6669,0.6131,0.5624,0.5321,0.5413,0.5575,0.5921,0.653,0.7139,0.7789,0.0,0.0,0.0,0.0,0.0,0.0,0.0,0.0,0.0,0.0,0.0,0.0,1.0585,0.9643,0.8712,0.7779,0.7712,0.7712,0.7712,0.7712,0.7712,0.7712,0.7312,0.6777,0.5979,0.551,0.4504,0.3161,0.3028,0.0,0.0,0.2223,0.2144,0.2128,0.2128,0.2109,0.2078,0.2048,0.2029,0.2014,0.1986,0.1977,0.1977,0.1977,0.1977,0.1977,0.1977,0.1977,0.1977,0.1977,0.1945,0.1909,0.1891,0.184,0.1795,0.1795,0.1795,0.1791,0.1779,0.1818,0.1797,0.1773,0.1739,0.1711,0.1647,0.1629,0.1617,0.1617,0.1617,0.1609,0.1584,0.1549,0.1505,0.1451,0.1401,0.1395,0.1449,0.1397,0.1428,0.1418,0.1462,0.1268,0.0888,0.0879,0.0679,0.0243,0.024,0.0144,0.0,0.0,0.0,0.0,0.0,0.0,1.0342,1.0696,1.0865,1.0188,0.9575,0.898,0.0,0.711,0.6384,0.5904,0.5535,0.5297,0.5297,0.5422,0.5664,0.618,0.6634,0.7236,0.7951,0.0,0.0,0.0,0.0,0.0,0.0,0.0,0.0,0.0,0.0,0.0,0.0,1.1372,1.0439,0.9244,0.9244,0.9244,0.9244,0.9244,0.9244,0.9244,0.8712,0.7979,0.7045,0.6581,0.5443,0.3833,0.3698,0.0,0.0,0.2546,0.2462,0.2372,0.2296,0.2207,0.2176,0.2026,0.2014,0.2003,0.1984,0.1977,0.1977,0.1977,0.1977,0.1977,0.1977,0.1977,0.1977,0.1977,0.1955,0.1922,0.1883,0.184,0.1806,0.1797,0.1795,0.1795,0.1795,0.1778,0.1815,0.1807,0.177,0.1735,0.1718,0.1644,0.1628,0.1618,0.1617,0.1617,0.1617,0.158,0.1538,0.1498,0.1456,0.1431,0.1391,0.1391,0.1471,0.1553,0.1566,0.1483,0.1201,0.1193,0.0941,0.0396,0.0391,0.0244,0.0,0.0,0.0,0.0,0.0,0.0,1.0237,1.0696,1.0898,1.0351,0.9486,0.8593,0.0,0.679,0.6011,0.5685,0.5446,0.5297,0.5297,0.5297,0.5446,0.5831,0.6197,0.6676,0.7391,0.0,0.0,0.0,0.0,0.0,0.0,0.0,0.0,0.0,0.0,0.0,0.0,1.2766,1.2107,1.0717,1.0651,1.0651,1.0651,1.0651,1.0651,1.0651,0.9915,0.925,0.8518,0.7851,0.6715,0.0,0.0,0.0,0.0,0.3249,0.3101,0.3029,0.2726,0.2558,0.246,0.2145,0.2001,0.1977,0.1977,0.1977,0.1977,0.1977,0.1977,0.1977,0.1977,0.1977,0.1977,0.1977,0.1955,0.1857,0.1799,0.1783,0.1775,0.1802,0.1795,0.1795,0.1795,0.1794,0.1786,0.1811,0.1804,0.1784,0.1725,0.1714,0.1651,0.1621,0.1617,0.1617,0.1617,0.1615,0.1592,0.1484,0.1478,0.1453,0.1396,0.1391,0.1416,0.1475,0.1554,0.1474,0.1228,0.12,0.0959,0.0404,0.0404,0.0252,0.0,0.0,0.0,0.0,0.0,0.0,0.9415,0.9788,0.9925,0.938,0.8852,0.8227,0.7363,0.6645,0.6073,0.5685,0.5446,0.5297,0.5297,0.5297,0.5446,0.5831,0.6083,0.0,0.0,0.0,0.0,0.0,0.0,0.0,0.0,0.0,0.0,0.0,0.0,0.0,0.0,1.2774,1.2576,1.2173,1.2107,1.2107,1.2107,1.2107,1.2107,1.2107,1.1644,1.0975,1.0041,0.9576,0.8573,0.0,0.0,0.0,0.0,0.4352,0.3711,0.3007,0.2929,0.2707,0.2484,0.236,0.2169,0.1977,0.1977,0.1977,0.1977,0.1977,0.1977,0.1977,0.1977,0.1977,0.1977,0.1977,0.1955,0.1922,0.1881,0.1855,0.1775,0.1802,0.1795,0.1795,0.1795,0.1795,0.1793,0.1782,0.1819,0.1798,0.1778,0.1742,0.1711,0.165,0.163,0.1617,0.1617,0.1599,0.1579,0.156,0.152,0.1479,0.1393,0.1391,0.1407,0.1493,0.1524,0.1502,0.1472,0.1481,0.1288,0.0941,0.0929,0.0734,0.0297,0.0297,0.0199,0.0,0.0,0.0,0.8589,0.8843,0.8901,0.843,0.8048,0.7624,0.6857,0.6318,0.5894,0.5543,0.5369,0.5297,0.5297,0.5297,0.5422,0.5734,0.5929,0.0,0.0,0.0,0.0,0.0,0.0,0.0,0.0,0.0,0.0,0.0,0.0,0.0,0.0,1.2774,1.2774,1.2774,1.2774,1.2774,1.2774,1.2774,1.2774,1.2774,1.2444,1.1909,1.1108,1.0711,0.9908,0.0,0.0,0.0,0.0,0.5656,0.4868,0.4096,0.3821,0.3482,0.3207,0.296,0.2654,0.2346,0.2222,0.216,0.216,0.2038,0.1977,0.1977,0.1977,0.1977,0.1977,0.1977,0.1963,0.1939,0.1896,0.1872,0.1847,0.1805,0.1795,0.1795,0.1795,0.1795,0.1795,0.1795,0.1779,0.1818,0.1807,0.1773,0.174,0.1718,0.1647,0.1629,0.1618,0.16,0.1584,0.1622,0.1586,0.1502,0.1426,0.1404,0.1399,0.1463,0.1502,0.1535,0.1554,0.1576,0.1489,0.1191,0.1177,0.0932,0.0397,0.0298,0.015,0.0,0.0,0.0,0.0,0.7908,0.791,0.7551,0.7216,0.6824,0.6318,0.5886,0.0,0.5337,0.5297,0.5297,0.5297,0.5297,0.5361,0.5591,0.5807,0.0,0.0,0.0,0.0,0.0,0.0,0.0,0.0,0.0,0.0,0.0,0.0,0.0,0.0,1.2774,1.2774,1.2774,1.2774,1.2774,1.2774,1.2774,1.2774,1.2774,1.2503,1.2173,1.1828,1.1497,1.0955,0.0,0.0,0.0,0.0,0.7068,0.6482,0.6085,0.5386,0.4803,0.4376,0.3825,0.3332,0.296,0.2652,0.2529,0.2467,0.2099,0.1977,0.1977,0.1977,0.1977,0.1977,0.1977,0.1977,0.1963,0.1902,0.1885,0.187,0.1809,0.1795,0.1795,0.1795,0.1795,0.1795,0.1795,0.1795,0.1786,0.1812,0.1805,0.1785,0.1729,0.1717,0.1704,0.1624,0.1618,0.1606,0.1624,0.1618,0.1555,0.1525,0.1426,0.1396,0.1396,0.145,0.153,0.153,0.1585,0.1465,0.1213,0.1213,0.096,0.0454,0.0202,0.005,0.005,0.005,0.005,0.7403,0.0,0.7664,0.7174,0.6919,0.6611,0.0,0.5774,0.5535,0.5337,0.5297,0.5297,0.5297,0.5297,0.5442,0.5914,0.6141,0.0,0.0,0.0,0.0,0.0,0.0,0.0,0.0,0.0,0.0,0.0,0.0,0.0,0.0,1.2774,1.2774,1.2774,1.2774,1.2774,1.2774,1.2774,1.2774,1.2774,1.2708,1.2562,1.2434,1.2305,1.2104,0.0,0.0,0.0,0.9569,0.9006,0.8234,0.7408,0.6954,0.6149,0.5107,0.4742,0.3884,0.296,0.2899,0.2714,0.2467,0.2099,0.1977,0.1977,0.1977,0.1977,0.1977,0.1977,0.1977,0.1963,0.1902,0.1885,0.187,0.1809,0.1795,0.1795,0.1795,0.1795,0.1795,0.1795,0.1795,0.1793,0.1786,0.1821,0.1799,0.1785,0.1743,0.1712,0.1704,0.1632,0.1606,0.1624,0.155,0.1524,0.1494,0.15,0.1458,0.1458,0.154,0.1561,0.1561,0.1596,0.1566,0.1516,0.1314,0.1162,0.1011,0.0757,0.0606,0.0606,0.0404,0.0303,0.7679,0.736,0.7016,0.6517,0.6297,0.6099,0.5696,0.5535,0.5438,0.5321,0.0,0.5297,0.5297,0.5361,0.5591,0.6067,0.644,0.0,0.0,0.0,0.0,0.0,0.0,0.0,0.0,0.0,0.0,0.0,0.0,0.0,0.0,1.2596,1.2596,1.2596,1.2596,1.267,1.2766,1.2774,1.2774,1.2774,1.2751,1.2661,1.2628,1.2483,1.2393,0.0,0.0,0.0,1.0535,1.0088,0.9455,0.8714,0.8227,0.7434,0.6517,0.6027,0.5172,0.4312,0.413,0.3761,0.333,0.296,0.2777,0.2716,0.2716,0.2469,0.2222,0.2038,0.1977,0.1963,0.1902,0.1885,0.187,0.1809,0.1795,0.1795,0.1795,0.1795,0.1795,0.1795,0.1795,0.1795,0.1795,0.1782,0.1821,0.1807,0.1764,0.1677,0.1717,0.1624,0.1584,0.1554,0.1523,0.1498,0.1482,0.1509,0.152,0.1506,0.1547,0.1621,0.1621,0.16,0.1617,0.1617,0.1314,0.1213,0.1213,0.091,0.0808,0.0808,0.0505,0.0404,0.8229,0.7483,0.6635,0.609,0.5845,0.5648,0.5454,0.0,0.0,0.0,0.0,0.0,0.0,0.5567,0.0,0.0,0.0,0.0,0.0,0.0,0.0,0.0,0.0,0.0,0.0,0.0,0.0,0.0,0.0,0.0,0.0,1.2304,1.2304,1.2304,1.2304,1.245,1.2751,1.2693,1.2693,1.2685,1.2596,1.2507,1.2475,1.2328,1.2247,1.2215,0.0,0.0,1.1179,1.073,1.0368,1.0065,0.9451,0.8781,0.8111,0.75,0.6823,0.6149,0.5847,0.5356,0.4803,0.4496,0.4189,0.3884,0.3761,0.3268,0.2714,0.2222,0.2038,0.1963,0.1902,0.1885,0.187,0.1809,0.1795,0.1795,0.1795,0.1851,0.1851,0.1908,0.1964,0.1964,0.1964,0.1908,0.1842,0.1815,0.1731,0.1703,0.1731,0.1673,0.1573,0.1543,0.1513,0.1491,0.1482,0.1513,0.152,0.149,0.1545,0.1579,0.1579,0.1603,0.1617,0.1617,0.1364,0.1263,0.1263,0.1011,0.091,0.091,0.0656,0.0505,0.8601,0.82,0.7674,0.6913,0.6507,0.6205,0.588,0.5807,0.0,0.0,0.0,0.0,0.0,0.0,0.0,0.0,0.0,0.0,0.0,0.0,0.0,0.0,0.0,0.0,0.0,0.0,0.0,0.0,0.0,0.0,0.0,1.2304,1.2304,1.2304,1.2304,1.2328,1.2385,1.2385,1.2385,1.2385,1.2361,1.2264,1.2109,1.2085,1.1996,1.1857,0.0,1.1756,1.1696,1.1603,1.1534,1.1466,1.1095,1.0354,0.9444,0.9079,0.8343,0.7551,0.7179,0.6996,0.6874,0.6569,0.6202,0.5774,0.492,0.4429,0.3879,0.2714,0.2222,0.1963,0.1902,0.1885,0.187,0.1809,0.1795,0.1795,0.1795,0.1964,0.2244,0.2524,0.258,0.258,0.258,0.23,0.2074,0.1844,0.1818,0.1795,0.1791,0.1738,0.1637,0.1606,0.1576,0.1584,0.1485,0.1532,0.1551,0.1521,0.1576,0.161,0.161,0.1614,0.1617,0.1617,0.1566,0.1516,0.1516,0.1516,0.1465,0.1465,0.1213,0.1061,0.8932,0.8657,0.8295,0.7944,0.7214,0.6522,0.6351,0.6319,0.0,0.0,0.0,0.0,0.0,0.0,0.0,0.0,0.0,0.0,0.0,0.0,0.0,0.0,0.0,0.0,0.0,0.0,0.0,0.0,0.0,0.0,0.0,1.202,1.202,1.202,1.202,1.202,1.202,1.202,1.2117,1.2304,1.2207,1.2109,1.2028,1.1931,1.1849,1.1776,0.0,1.1776,1.1776,1.1776,1.1776,1.1776,1.1458,1.0906,1.0293,0.9754,0.9329,0.8897,0.8532,0.841,0.8349,0.8039,0.7612,0.7062,0.6451,0.5778,0.4984,0.4066,0.3083,0.2207,0.1961,0.1885,0.187,0.1809,0.1795,0.1795,0.1795,0.2132,0.2636,0.3082,0.3194,0.3197,0.3194,0.2802,0.23,0.1851,0.1825,0.1804,0.1804,0.1752,0.1708,0.1643,0.1614,0.1579,0.1534,0.157,0.159,0.1576,0.1602,0.1617,0.1617,0.1617,0.1617,0.1617,0.1617,0.1617,0.1617,0.1617,0.1617,0.1617,0.1314,0.1213,0.9207,0.8999,0.8734,0.8879,0.7956,0.7034,0.7033,0.7057,0.7028,0.0,0.0,0.0,0.0,0.0,0.0,0.0,0.0,0.0,0.0,0.0,0.0,0.0,0.0,0.0,0.0,0.0,0.0,0.0,0.0,0.0,1.1776,1.1776,1.1776,1.1776,1.1776,1.1776,1.1776,1.1776,1.1914,1.2182,1.2036,1.1971,1.1963,1.1833,1.1776,1.1776,1.1776,1.1776,1.1776,1.1776,1.1776,1.1776,1.1526,1.1277,1.0974,1.049,1.0247,1.0247,0.9943,0.9883,0.9822,0.9572,0.9147,0.8599,0.8105,0.7373,0.6517,0.572,0.4616,0.3427,0.2564,0.2304,0.2223,0.2046,0.1968,0.1851,0.1795,0.23,0.2973,0.3695,0.3863,0.3921,0.4027,0.353,0.2917,0.2298,0.2163,0.209,0.2035,0.1876,0.1789,0.1735,0.165,0.1618,0.1645,0.1607,0.162,0.1626,0.1621,0.1617,0.1617,0.1617,0.1617,0.1617,0.1617,0.1617,0.1617,0.1617,0.1617,0.1617,0.1364,0.1314,0.9398,0.9219,0.914,0.9454,0.8772,0.8002,0.8079,0.8058,0.0,0.7995,0.0,0.0,0.0,0.0,0.0,0.0,0.0,0.0,0.0,0.0,0.0,0.0,0.0,0.0,0.0,0.0,0.0,0.0,0.0,0.0,1.1776,1.1776,1.1776,1.1776,1.1776,1.1776,1.1776,1.1776,1.1792,1.1817,1.1801,1.1792,1.1792,1.1784,1.1776,1.1776,1.1776,1.1776,1.1776,1.1776,1.1776,1.1776,1.1776,1.1776,1.1716,1.1655,1.1655,1.1655,1.1655,1.1595,1.1595,1.1595,1.1345,1.0906,0.993,0.9377,0.8769,0.7545,0.7118,0.6541,0.4343,0.345,0.3106,0.2822,0.2438,0.2076,0.1851,0.2466,0.3362,0.4254,0.4648,0.4927,0.5202,0.476,0.4145,0.3586,0.3192,0.291,0.2688,0.237,0.207,0.1798,0.1746,0.171,0.1708,0.1632,0.1629,0.171,0.1633,0.1617,0.1617,0.1617,0.1617,0.1617,0.1617,0.1617,0.1617,0.1617,0.1617,0.1617,0.1566,0.1566,0.9404,0.9357,0.9436,1.0012,0.9889,0.0,0.0,0.8995,0.8881,0.8948,0.8715,0.0,0.0,0.0,0.0,0.0,0.0,0.0,0.0,0.0,0.0,0.0,0.0,0.0,0.0,0.0,0.0,0.0,0.0,0.0,0.0,1.1776,1.1776,1.1776,1.1776,1.1776,1.1776,1.1776,1.1776,1.1776,1.1776,1.1776,1.1776,1.1776,1.1776,1.1776,1.1776,1.1776,1.1776,1.1776,1.1776,1.1776,1.1776,1.1776,1.1776,1.1776,1.1776,1.1776,1.1776,1.1776,1.1776,1.1776,1.1587,1.1209,1.0604,1.0179,0.9754,0.8836,0.8593,0.8077,0.597,0.5029,0.4384,0.3637,0.2972,0.2441,0.1912,0.2634,0.3754,0.4864,0.5425,0.5931,0.6376,0.5982,0.5425,0.4808,0.4309,0.381,0.3304,0.2843,0.2335,0.1833,0.1795,0.177,0.177,0.1725,0.165,0.1714,0.1633,0.1617,0.1617,0.1617,0.1617,0.1617,0.1617,0.1617,0.1617,0.1617,0.1617,0.1617,0.1617,0.1617,0.9458,0.9472,0.966,1.0485,0.0,0.0,1.0884,1.044,1.0036,1.0141,0.987,0.0,0.0,0.0,0.0,0.0,0.0,0.0,0.0,0.0,0.0,0.0,0.0,0.0,0.0,0.0,0.0,0.0,0.0,0.0,0.0,1.1776,1.1776,1.1776,1.1776,1.1776,1.1776,1.1776,1.1776,1.1776,1.1776,1.1776,1.1776,1.1776,1.1776,1.1776,1.1776,1.1776,1.1776,1.1776,1.1776,1.1776,1.1776,1.1776,1.1776,1.1776,1.1776,1.1776,1.1776,1.1776,1.1776,1.1776,1.1647,1.1398,1.1216,1.0974,1.0671,1.0247,1.0065,0.9734,0.8239,0.7045,0.5856,0.474,0.3989,0.3319,0.2549,0.3263,0.4369,0.5477,0.6149,0.6765,0.7265,0.6988,0.6543,0.6033,0.5481,0.4868,0.425,0.3642,0.3022,0.2394,0.2379,0.231,0.2242,0.2088,0.1954,0.1849,0.1714,0.1636,0.1618,0.1617,0.1617,0.1617,0.1617,0.1617,0.1617,0.1617,0.1617,0.1617,0.1617,0.1617,0.9588,0.9603,0.9863,1.0872,0.0,0.0,1.324,1.2482,1.1528,1.1599,0.0,1.0742,1.0555,0.0,0.0,0.0,0.0,0.0,0.0,0.0,0.0,0.0,0.0,0.0,0.0,0.0,0.0,0.0,0.0,0.0,0.0,1.1776,1.1776,1.1776,1.1776,1.1776,1.1776,1.1776,1.1776,1.1776,1.1776,1.1776,1.1776,1.1776,1.1776,1.1776,1.1776,1.1776,1.1776,1.1776,1.1776,1.1776,1.1776,1.1776,1.1776,1.1776,1.1776,1.1776,1.1776,1.1776,1.1776,1.1776,1.1776,1.1776,1.1776,1.1776,1.1776,1.1776,1.1776,1.1716,1.1398,0.9587,0.7508,0.6253,0.5518,0.4875,0.3908,0.4368,0.521,0.6154,0.6821,0.7376,0.7931,0.7771,0.7549,0.7265,0.671,0.6093,0.5481,0.4871,0.4228,0.3613,0.355,0.3506,0.3119,0.2789,0.2516,0.2242,0.1882,0.1678,0.162,0.1618,0.1618,0.1618,0.1618,0.1618,0.1618,0.1618,0.1618,0.1618,0.1618,0.1618,0.9892,1.0126,0.0,1.1794,0.0,0.0,0.0,1.3504,0.0,0.0,0.0,0.0,0.0,0.0,0.0,0.0,0.0,0.0,0.0,0.0,0.0,0.0,0.0,0.0,0.0,0.0,0.0,0.0,0.0,0.0,0.0,1.1386,1.1386,1.1386,1.1386,1.1386,1.1386,1.1386,1.1386,1.1386,1.1386,1.1524,1.1776,1.1776,1.1776,1.1776,1.1776,1.1776,1.1776,1.1776,1.1776,1.1776,1.1776,1.1776,1.1776,1.1776,1.1776,1.1776,1.1776,1.1776,1.1776,1.1776,1.1776,1.1776,1.1776,1.1776,1.1776,1.1776,1.1776,1.1716,1.1398,1.0748,0.984,0.8301,0.7444,0.6706,0.5639,0.593,0.6458,0.6776,0.7376,0.7937,0.8546,0.8553,0.8491,0.838,0.7881,0.7154,0.6149,0.5477,0.5075,0.4886,0.4849,0.4634,0.4114,0.3537,0.3021,0.2514,0.1969,0.1675,0.1678,0.1678,0.1678,0.1678,0.1678,0.1678,0.1678,0.1678,0.1678,0.1678,0.1678,0.1678,1.0141,1.0536,0.0,1.2555,1.376,1.4864,1.5749,0.0,0.0,0.0,0.0,0.0,0.0,0.0,0.0,0.0,0.0,0.0,0.0,0.0,0.0,0.0,0.0,0.0,0.0,0.0,0.0,0.0,0.0,0.0,0.0,1.1454,1.1397,1.1397,1.1282,1.1224,1.1224,1.1224,1.1224,1.1224,1.1224,1.1338,1.1557,1.1557,1.1557,1.1557,1.1557,1.1598,1.1663,1.1663,1.1711,1.1776,1.1776,1.1776,1.1776,1.1776,1.1776,1.1776,1.1776,1.1776,1.1776,1.1776,1.1776,1.1776,1.1776,1.1776,1.1776,1.1776,1.1776,1.1776,1.1526,1.1518,1.1133,0.958,0.8856,0.8219,0.7085,0.7184,0.7511,0.7454,0.7875,0.8325,0.883,0.8885,0.8885,0.8885,0.838,0.7709,0.6932,0.6427,0.6089,0.6089,0.6089,0.5866,0.5258,0.4586,0.3952,0.3364,0.2745,0.235,0.2281,0.1877,0.1704,0.1704,0.1704,0.1704,0.1704,0.1704,0.1704,0.1704,0.1704,0.1704,1.0388,0.0,0.0,1.3184,1.4579,0.0,0.0,0.0,0.0,0.0,0.0,0.0,0.0,0.0,0.0,0.0,0.0,0.0,0.0,0.0,0.0,0.0,0.0,0.0,0.0,0.0,0.0,0.0,0.0,0.0,0.0,1.1805,1.1691,1.1634,1.1347,1.1175,1.1175,1.1175,1.1175,1.1175,1.1175,1.1175,1.1175,1.1208,1.1224,1.1224,1.1224,1.1321,1.1476,1.1492,1.1598,1.1752,1.1768,1.1776,1.1776,1.1776,1.1776,1.1776,1.1776,1.1776,1.1776,1.1776,1.1776,1.1776,1.1776,1.1776,1.1776,1.1776,1.1776,1.1776,1.1776,1.1776,1.1474,1.0247,0.9961,0.9571,0.8476,0.8405,0.8439,0.8239,0.8429,0.8706,0.8885,0.894,0.894,0.8885,0.8436,0.7992,0.7771,0.7493,0.7376,0.7376,0.7376,0.7099,0.6487,0.5781,0.5162,0.4697,0.4024,0.3523,0.3248,0.2285,0.1766,0.1766,0.1712,0.1712,0.1712,0.1712,0.1712,0.1712,0.1712,0.1712,1.0667,1.1385,0.0,0.0,1.5633,0.0,0.0,0.0,0.0,0.0,0.0,0.0,0.0,0.0,0.0,0.0,0.0,0.0,0.0,0.0,0.0,0.0,0.0,0.0,0.0,0.0,0.0,0.0,0.0,0.0,1.1742,1.1632,1.1521,1.1245,1.1134,1.1023,1.081,1.081,1.081,0.0,1.081,1.081,1.0818,1.1094,1.1224,1.1224,1.1224,1.1248,1.1289,1.1443,1.1524,1.1573,1.1719,1.1776,1.1776,1.1776,1.1776,1.1776,1.1776,1.1776,1.1776,1.1776,1.1776,1.1776,1.1776,1.1776,1.1776,1.1776,1.1776,1.1776,1.1776,1.1776,1.1716,1.1466,1.1382,1.1144,1.0368,1.0213,1.0102,0.9536,0.9485,0.9485,0.932,0.9272,0.9217,0.894,0.8774,0.8663,0.8608,0.8546,0.8546,0.8546,0.8546,0.8269,0.7709,0.704,0.6478,0.5922,0.5288,0.4673,0.4198,0.3117,0.2387,0.2109,0.1886,0.1775,0.1775,0.1775,0.1775,0.1775,0.1775,0.1775,1.0902,0.0,0.0,1.5233,0.0,0.0,0.0,0.0,0.0,0.0,0.0,0.0,0.0,0.0,0.0,0.0,0.0,0.0,0.0,0.0,0.0,0.0,0.0,0.0,0.0,0.0,0.0,0.0,0.0,1.211,1.2001,1.1837,1.1728,1.1564,1.14,1.1291,1.1126,1.1126,1.1126,1.1126,1.1126,1.1126,1.1135,1.0995,1.0964,1.0964,1.0964,1.1021,1.111,1.1208,1.1297,1.1378,1.1476,1.1508,1.1508,1.1508,1.1508,1.1508,1.1508,1.1508,1.1508,1.1508,1.1573,1.1646,1.1646,1.1703,1.1776,1.1776,1.1776,1.1776,1.1776,1.1776,1.1776,1.1776,1.1776,1.1643,1.1067,1.0946,1.0751,1.0156,1.0047,0.9934,0.9659,0.949,0.9293,0.9105,0.9042,0.9015,0.8892,0.8885,0.8885,0.8885,0.8885,0.8712,0.8263,0.7756,0.7296,0.6927,0.6439,0.5877,0.5369,0.448,0.353,0.2468,0.202,0.1795,0.1795,0.1795,0.1795,0.1795,0.1795,0.1795,1.1004,0.0,1.3674,0.0,0.0,0.0,0.0,0.0,0.0,0.0,0.0,0.0,0.0,0.0,0.0,0.0,0.0,0.0,0.0,0.0,0.0,0.0,0.0,0.0,0.0,0.0,0.0,0.0,0.0,1.2382,1.2382,1.2164,1.2055,1.2001,1.1782,1.1627,1.1618,1.1618,1.1618,1.1618,1.1618,1.1618,1.1564,1.1072,1.0798,1.0743,1.0743,1.0833,1.0923,1.1012,1.1053,1.1183,1.1208,1.1224,1.1224,1.1224,1.1224,1.1224,1.1224,1.1224,1.1224,1.1256,1.137,1.1508,1.1541,1.1654,1.1776,1.1776,1.1776,1.1776,1.1776,1.1776,1.1776,1.1776,1.1776,1.1667,1.1244,1.1146,1.1032,1.0562,1.0416,1.0301,1.0077,0.9787,0.9507,0.9382,0.9341,0.9222,0.9043,0.8954,0.8885,0.8885,0.8885,0.8823,0.8595,0.8272,0.798,0.782,0.75,0.71,0.6594,0.6038,0.4927,0.3365,0.2524,0.2074,0.2018,0.1964,0.1908,0.1851,0.1795,0.1795,0.0,0.0,0.0,0.0,0.0,0.0,0.0,0.0,0.0,0.0,0.0,0.0,0.0,0.0,0.0,0.0,0.0,0.0,0.0,0.0,0.0,0.0,0.0,0.0,0.0,0.0,0.0,0.0,1.2382,1.2382,1.2382,1.2382,1.2219,1.2001,1.1946,1.1837,1.1618,1.1618,1.1618,1.1618,1.1618,1.1618,1.1618,1.1518,1.1291,1.1072,1.1072,1.0924,1.0745,1.0907,1.098,1.1021,1.1167,1.1224,1.1224,1.1224,1.1224,1.1224,1.1224,1.1224,1.1248,1.1411,1.1484,1.1533,1.1695,1.176,1.1776,1.1776,1.1776,1.1776,1.1776,1.1776,1.1776,1.1776,1.1776,1.1727,1.1481,1.1441,1.1385,1.1141,1.0878,1.0705,1.0705,1.0416,1.0178,1.0156,0.9802,0.9539,0.9518,0.9126,0.8885,0.8885,0.8885,0.8885,0.883,0.8809,0.8748,0.8719,0.8699,0.8361,0.782,0.721,0.6543,0.5815,0.4201,0.3194,0.2914,0.2692,0.2412,0.2132,0.1908,0.1795,1.1033,0.0,0.0,0.0,0.0,0.0,0.0,0.0,0.0,0.0,0.0,0.0,0.0,0.0,0.0,0.0,0.0,0.0,0.0,0.0,0.0,0.0,0.0,0.0,0.0,0.0,0.0,0.0,1.2382,1.2382,1.2382,1.2382,1.2327,1.2219,1.2219,1.2164,1.2055,1.2055,1.2055,1.2055,1.2055,1.2055,1.2055,1.2055,1.1782,1.1345,1.1181,1.1017,1.0916,1.0833,1.081,1.0826,1.0899,1.0923,1.0923,1.0923,1.0923,1.0923,1.0923,1.0997,1.1094,1.1175,1.1338,1.1516,1.1598,1.1695,1.1776,1.1776,1.1776,1.1776,1.1776,1.1776,1.1776,1.1776,1.1776,1.1752,1.1671,1.1654,1.163,1.1549,1.1288,1.111,1.111,1.0814,1.0547,1.0457,1.015,0.9838,0.9803,0.9396,0.9184,0.9184,0.911,0.9055,0.9055,0.9055,0.9055,0.9055,0.9137,0.8917,0.8389,0.7989,0.7561,0.7049,0.5425,0.4365,0.3866,0.3415,0.297,0.2468,0.202,0.1795,0.0,0.0,0.0,0.0,0.0,0.0,0.0,0.0,0.0,0.0,0.0,0.0,0.0,0.0,0.0,0.0,0.0,0.0,0.0,0.0,0.0,0.0,0.0,0.0,0.0,0.0,0.0,0.0,1.2307,1.2288,1.2231,1.2222,1.2222,1.2222,1.2222,1.2222,1.2222,1.2278,1.2335,1.2382,1.2382,1.2382,1.2382,1.2382,1.2164,1.1782,1.1455,1.1291,1.1181,1.1017,1.0852,1.0798,1.0798,1.0743,1.0688,1.0688,1.0688,1.0688,1.0688,1.081,1.1028,1.1021,1.1248,1.1508,1.1557,1.1663,1.1776,1.1776,1.1776,1.1776,1.1776,1.1776,1.1776,1.1776,1.1776,1.1776,1.1776,1.1776,1.1776,1.1776,1.1587,1.1458,1.1458,1.1216,1.0997,1.0934,1.0584,1.0332,1.0208,0.9866,0.9613,0.9613,0.941,0.9334,0.9375,0.9291,0.9228,0.9268,0.932,0.9218,0.8876,0.8666,0.837,0.7991,0.6882,0.5866,0.4983,0.4365,0.3751,0.3141,0.2524,0.2242,0.0,0.0,0.0,0.0,0.0,0.0,0.0,0.0,0.0,0.0,0.0,0.0,0.0,0.0,0.0,0.0,0.0,0.0,0.0,0.0,0.0,0.0,0.0,0.0,0.0,0.0,0.0,0.0,1.21,1.2015,1.186,1.185,1.185,1.185,1.185,1.185,1.185,1.1996,1.2194,1.2382,1.2382,1.2382,1.2382,1.2382,1.2382,1.2327,1.2055,1.1782,1.1573,1.1573,1.1345,1.1072,1.1072,1.0907,1.0688,1.0688,1.0688,1.0688,1.0688,1.081,1.0997,1.1159,1.1338,1.1533,1.1711,1.1768,1.1776,1.1776,1.1776,1.1776,1.1776,1.1776,1.1776,1.1776,1.1776,1.1776,1.1776,1.1776,1.1776,1.1776,1.1776,1.1776,1.1776,1.1776,1.1776,1.176,1.1316,1.1028,1.102,1.058,1.0243,1.0243,0.9867,0.966,0.9816,0.9467,0.9268,0.9361,0.9374,0.9374,0.9367,0.9232,0.915,0.9144,0.8841,0.7875,0.6204,0.5592,0.4979,0.4369,0.381,0.3533,0.0,0.0,0.0,0.0,0.0,0.0,0.0,0.0,0.0,0.0,0.0,0.0,0.0,0.0,0.0,0.0,0.0,0.0,0.0,0.0,0.0,0.0,0.0,0.0,0.0,0.0,0.0,0.0,0.0,1.226,1.1831,1.1813,1.1813,1.1813,1.1813,1.1888,1.1968,1.2043,1.2184,1.2382,1.2382,1.2382,1.2382,1.2382,1.2382,1.2382,1.2273,1.211,1.1837,1.1673,1.1509,1.14,1.1181,1.1017,1.0962,1.0743,1.0688,1.0688,1.0688,1.0883,1.1143,1.12,1.1427,1.1687,1.176,1.1776,1.1776,1.1776,1.1776,1.1776,1.1776,1.1776,1.1776,1.1776,1.1776,1.1776,1.1776,1.1776,1.1776,1.1776,1.1776,1.1776,1.1776,1.1776,1.1776,1.1776,1.1471,1.1243,1.1243,1.089,1.0614,1.0614,1.0178,0.9938,0.9994,0.9652,0.9469,0.9523,0.9612,0.9625,0.953,0.9476,0.9354,0.9214,0.9103,0.8525,0.7376,0.6765,0.6204,0.5648,0.5031,0.4752,0.916,0.0,0.0,0.0,0.0,0.0,0.0,0.0,0.0,0.0,0.0,0.0,0.0,0.0,0.0,0.0,0.0,0.0,0.0,0.0,0.0,0.0,0.0,0.0,0.0,0.0,0.0,0.0,0.0,0.0,1.1624,1.1605,1.1605,1.1605,1.1605,1.1709,1.1874,1.1883,1.2015,1.2288,1.2288,1.2316,1.2382,1.2382,1.2382,1.2382,1.2382,1.2273,1.211,1.1946,1.1846,1.1728,1.1509,1.1345,1.1236,1.1072,1.0907,1.0852,1.0852,1.098,1.1224,1.1224,1.1476,1.1776,1.1776,1.1776,1.1776,1.1776,1.1776,1.1776,1.1776,1.1776,1.1776,1.1776,1.1776,1.1776,1.1776,1.1776,1.1776,1.1776,1.1776,1.1776,1.1776,1.1776,1.1776,1.1776,1.1587,1.1458,1.1458,1.1277,1.1156,1.1156,1.0711,1.0458,1.0509,1.0168,0.993,0.9979,1.0009,0.9902,0.9866,0.9692,0.9517,0.9313,0.9262,0.8934,0.8388,0.7733,0.7154,0.671,0.626,0.5977,0.0,0.0,0.0,0.0,0.0,0.0,0.0,0.0,0.0,0.0,0.0,0.0,0.0,0.0,0.0,0.0,0.0,0.0,0.0,0.0,0.0,0.0,0.0,0.0,0.0,0.0,0.0,0.0,1.2854,1.2302,1.1306,1.1247,1.1247,1.1247,1.1247,1.1302,1.152,1.152,1.1676,1.209,1.209,1.2194,1.2382,1.2382,1.2382,1.2382,1.2382,1.2382,1.2382,1.2382,1.2273,1.2001,1.2001,1.1837,1.1627,1.1618,1.14,1.1126,1.1072,1.1148,1.1224,1.1224,1.1476,1.1776,1.1776,1.1776,1.1776,1.1776,1.1776,1.1776,1.1776,1.1776,1.1776,1.1776,1.1776,1.1776,1.1776,1.1776,1.1776,1.1776,1.1776,1.1776,1.1776,1.1776,1.1776,1.1776,1.1776,1.1776,1.1776,1.1776,1.1776,1.1776,1.1375,1.1157,1.1322,1.089,1.0688,1.0778,1.0482,1.0308,1.0308,0.9866,0.9612,0.9612,0.9313,0.9214,0.9207,0.8388,0.7881,0.7604,0.7376,0.7265,0.8663,0.0,0.0,0.0,0.0,0.0,0.0,0.0,0.0,0.0,0.0,0.0,0.0,0.0,0.0,0.0,0.0,0.0,0.0,0.0,0.0,0.0,0.0,0.0,0.0,0.0,0.0,0.0,1.38,1.3204,1.2381,1.237,1.2273,1.2078,1.1883,1.1796,1.1771,1.162,1.1676,1.209,1.209,1.2194,1.2382,1.2382,1.2382,1.2382,1.2382,1.2382,1.2382,1.2382,1.2382,1.2273,1.2055,1.1946,1.1891,1.1673,1.1509,1.1455,1.1181,1.1316,1.1512,1.1282,1.1476,1.1776,1.1776,1.1776,1.1776,1.1776,1.1776,1.1776,1.1776,1.1776,1.1776,1.1776,1.1776,1.1776,1.1776,1.1776,1.1776,1.1776,1.1776,1.1776,1.1776,1.1776,1.1776,1.1776,1.1776,1.1776,1.1776,1.1776,1.1776,1.1776,1.1479,1.1282,1.1329,1.0929,1.074,1.0785,1.0482,1.0308,1.0308,0.9963,0.9713,0.9612,0.9415,0.9323,0.9207,0.8841,0.8608,0.8553,0.8436,0.8436,0.8888,0.8833,0.0,0.0,0.0,0.0,0.0,0.0,0.0,0.0,0.0,0.0,0.0,0.0,0.0,0.0,0.0,0.0,0.0,0.0,0.0,0.0,0.0,0.0,0.0,0.0,1.5967,1.5202,1.4765,1.4218,1.3485,1.3426,1.3281,1.3039,1.2554,1.2227,1.2133,1.1636,1.1548,1.1827,1.1827,1.1977,1.226,1.226,1.2307,1.2382,1.2382,1.2382,1.2382,1.2382,1.2382,1.2382,1.2219,1.2164,1.2164,1.2001,1.1837,1.1728,1.1564,1.1595,1.1684,1.1454,1.1593,1.1776,1.1776,1.1776,1.1776,1.1776,1.1776,1.1776,1.1776,1.1776,1.1776,1.1776,1.1776,1.1776,1.1776,1.1776,1.1776,1.1776,1.1776,1.1776,1.1776,1.1776,1.1776,1.1776,1.1776,1.1776,1.1776,1.1776,1.1776,1.1776,1.1647,1.1526,1.1526,1.1345,1.1224,1.1224,1.0914,1.0732,1.0732,1.0247,0.9963,0.988,0.9548,0.9279,0.9062,0.8981,0.8885,0.8885,0.8885,0.8885,0.9407,0.9219,0.0,0.0,0.0,0.0,0.9936,1.0975,0.0,0.0,0.0,0.0,0.0,0.0,0.0,0.0,0.0,0.0,0.0,0.0,0.0,0.0,0.0,0.0,0.0,1.7106,1.6683,1.5947,1.5615,1.514,1.4507,1.4459,1.4328,1.4052,1.327,1.2737,1.2516,1.1785,1.15,1.1661,1.1661,1.1891,1.2293,1.2293,1.2354,1.2545,1.2491,1.2491,1.2436,1.2436,1.2382,1.2382,1.2382,1.2382,1.2382,1.2382,1.2273,1.2055,1.2001,1.193,1.1799,1.1742,1.177,1.1837,1.1837,1.1776,1.1776,1.1776,1.1776,1.1776,1.1776,1.1776,1.1776,1.1776,1.1776,1.1776,1.1776,1.1776,1.1776,1.1776,1.1776,1.1776,1.1776,1.1776,1.1776,1.1776,1.1776,1.1776,1.1776,1.1776,1.1776,1.1776,1.1776,1.1776,1.1776,1.1776,1.1776,1.1776,1.1458,1.1269,1.1269,1.0671,1.0308,1.0308,0.9707,0.9245,0.8905,0.8892,0.8885,0.8885,0.8885,0.8885,1.1198,1.0493,0.9794,0.9515,0.0,0.0,0.0,1.0141,0.0,0.0,0.0,0.0,0.0,0.0,0.0,0.0,0.0,0.0,0.0,0.0,0.0,0.0,0.0,0.0,0.0,1.7106,1.6838,1.648,1.6008,1.5689,1.5534,1.5486,1.5296,1.4854,1.4292,1.3763,1.3281,1.2759,1.2583,1.2804,1.2804,1.3057,1.3456,1.3456,1.3476,1.3423,1.3207,1.2989,1.2772,1.2491,1.2382,1.2382,1.2382,1.2382,1.2382,1.2382,1.2382,1.2273,1.2055,1.2209,1.2316,1.1857,1.1879,1.2062,1.1897,1.1776,1.1776,1.1776,1.1776,1.1776,1.1776,1.1776,1.1776,1.1776,1.1776,1.1776,1.1776,1.1776,1.1776,1.1776,1.1776,1.1776,1.1776,1.1776,1.1776,1.1776,1.1776,1.1776,1.1776,1.1776,1.1776,1.1776,1.1776,1.1776,1.1776,1.1776,1.1776,1.1776,1.1458,1.1269,1.1269,1.0671,1.0308,1.0308,0.9707,0.9293,0.9166,0.8994,0.8885,0.8885,0.8885,0.8885,1.2743,1.1971,1.1056,1.031,0.0,0.0,0.0,0.0,0.0,0.0,0.0,0.0,0.0,0.0,0.0,0.0,0.0,0.0,0.0,0.0,0.0,0.0,0.0,0.0,0.0,1.72,1.7106,1.6965,1.6716,1.6527,1.6527,1.6527,1.6386,1.6069,1.5391,1.4854,1.4472,1.3848,1.3579,1.3693,1.3693,1.3849,1.4225,1.4225,1.4275,1.4316,1.3731,1.3419,1.3251,1.2654,1.2382,1.2382,1.2382,1.2382,1.2382,1.2382,1.2382,1.2382,1.2273,1.2376,1.2545,1.2259,1.229,1.2414,1.2303,1.213,1.1949,1.1837,1.1776,1.1776,1.1776,1.1776,1.1776,1.1776,1.1776,1.1776,1.1776,1.1776,1.1776,1.1776,1.1776,1.1776,1.1776,1.1776,1.1776,1.1776,1.1776,1.1776,1.1776,1.1776,1.1776,1.1776,1.1776,1.1776,1.1776,1.1776,1.1776,1.1776,1.1647,1.1526,1.1526,1.1095,1.0695,1.0434,1.0162,0.9787,0.9377,0.93,0.9119,0.8885,0.8885,0.8885,0.0,0.0,0.0,0.0,0.0,1.0512,0.0,0.0,0.0,1.0849,0.0,0.0,0.0,0.0,0.0,0.0,0.0,0.0,0.0,0.0,0.0,0.0,0.0,0.0,0.0,1.7016,1.7077,1.7135,1.715,1.7165,1.7238,1.725,1.72,1.7026,1.6339,1.5805,1.5581,1.4902,1.4603,1.4603,1.4603,1.4703,1.4924,1.4924,1.5018,1.5227,1.4391,1.3996,1.3889,1.3088,1.2762,1.2708,1.2491,1.2382,1.2382,1.2382,1.2382,1.2382,1.2382,1.2543,1.266,1.2602,1.2642,1.2724,1.2724,1.2475,1.2174,1.1949,1.1837,1.1776,1.1776,1.1776,1.1776,1.1776,1.1776,1.1776,1.1776,1.1776,1.1776,1.1776,1.1776,1.1776,1.1776,1.1776,1.1776,1.1776,1.1776,1.1776,1.1776,1.1776,1.1776,1.1776,1.1776,1.1776,1.1776,1.1776,1.1776,1.1776,1.1776,1.1776,1.1776,1.1458,1.1094,1.0666,1.0628,1.0303,0.9695,0.9631,0.9356,0.8885,0.8885,0.8885,0.0,0.0,0.0,0.0,1.148,0.0,0.0,0.0,1.0482,1.0462,0.0,0.0,0.0,0.0,0.0,0.0,0.0,0.0,0.0,0.0,0.0,0.0,0.0,0.0,0.0,1.6082,1.6184,1.6507,1.6521,1.6653,1.6947,1.7179,1.72,1.7026,1.6683,1.6386,1.6089,1.5771,1.5642,1.5642,1.5642,1.5787,1.6015,1.6015,1.6082,1.611,1.5487,1.5065,1.4826,1.4223,1.4008,1.39,1.2817,1.2382,1.2382,1.2382,1.2382,1.2382,1.2382,1.2655,1.3012,1.2717,1.2642,1.2724,1.2724,1.2475,1.2174,1.2182,1.201,1.1776,1.1776,1.1776,1.1776,1.1776,1.1776,1.1776,1.1776,1.1776,1.1776,1.1776,1.1776,1.1776,1.1776,1.1776,1.1776,1.1776,1.1776,1.1776,1.1776,1.1776,1.1776,1.1776,1.1776,1.1776,1.1776,1.1776,1.1776,1.1776,1.1776,1.1776,1.1776,1.1458,1.114,1.0763,1.0688,1.0421,1.003,0.9738,0.9356,0.8885,0.8885,0.8885,0.0,0.0,0.0,0.0,0.0,0.0,1.084,0.0,1.1009,0.0,0.0,0.0,0.0,0.0,0.0,0.0,0.0,0.0,0.0,0.0,0.0,0.0,0.0,0.0,0.0,0.0,0.0,0.0,1.5716,1.6038,1.6595,1.7047,1.7246,1.72,1.7059,1.6951,1.6857,1.6716,1.6669,1.6669,1.6669,1.6739,1.6818,1.6818,1.6961,1.7204,1.6431,1.6161,1.614,1.5488,1.5179,1.5125,1.4632,1.4051,1.3467,1.3467,1.3305,1.3152,1.2989,1.3109,1.3336,1.3285,1.3245,1.3264,1.3024,1.2904,1.2724,1.2535,1.2423,1.2303,1.2062,1.2001,1.201,1.1837,1.1776,1.1776,1.1776,1.1776,1.1776,1.1776,1.1776,1.1776,1.1776,1.1776,1.1776,1.1776,1.1776,1.1776,1.1776,1.1776,1.1776,1.1776,1.1776,1.1776,1.1776,1.1776,1.1776,1.1776,1.1776,1.1776,1.1776,1.1647,1.1526,1.1405,1.1335,1.1069,1.0673,1.0529,1.0154,0.9559,0.9141,0.8885,1.8318,0.0,0.0,0.0,0.0,0.0,0.0,0.0,0.0,0.0,0.0,0.0,0.0,0.0,0.0,0.0,0.0,0.0,0.0,0.0,0.0,0.0,0.0,0.0,0.0,0.0,0.0,0.0,0.0,1.5218,1.5935,1.6667,1.7106,1.7194,1.7235,1.7279,1.7279,1.7279,1.7279,1.7279,1.7279,1.7279,1.7279,1.7279,1.75,1.7875,1.715,1.7034,1.7305,1.667,1.6393,1.6393,1.6393,1.5873,1.5072,1.4804,1.4439,1.4116,1.3694,1.3497,1.3423,1.3611,1.3693,1.3624,1.3384,1.3264,1.3144,1.2904,1.2784,1.2655,1.2414,1.2294,1.2174,1.1949,1.1837,1.1776,1.1776,1.1776,1.1776,1.1776,1.1776,1.1776,1.1776,1.1776,1.1776,1.1776,1.1776,1.1776,1.1776,1.1776,1.1776,1.1776,1.1776,1.1776,1.1776,1.1776,1.1776,1.1776,1.1776,1.1776,1.1776,1.1776,1.1776,1.1776,1.1776,1.1591,1.1157,1.111,1.0755,1.0114,0.951,0.9141,0.0,0.0,0.0,1.552,0.0,0.0,0.0,0.0,1.1806,0.0,0.0,0.0,0.0,0.0,0.0,0.0,0.0,0.0,0.0,0.0,0.0,0.0,0.0,0.0,0.0,0.0,0.0,0.0,0.0,0.0,1.49,1.5877,1.6595,1.6903,1.7165,1.7279,1.7279,1.7279,1.7279,1.7279,1.7279,1.7279,1.7279,1.7279,1.75,1.7875,1.7612,1.7659,1.7964,1.7635,1.7529,1.7529,1.7529,1.7529,1.7371,1.6234,1.5648,1.5232,1.4439,1.3709,1.3193,1.3551,1.3693,1.3693,1.3684,1.3444,1.3204,1.3204,1.2964,1.2724,1.2715,1.2414,1.2174,1.2174,1.201,1.1776,1.1776,1.1776,1.1776,1.1776,1.1776,1.1776,1.1776,1.1776,1.1776,1.1776,1.1776,1.1776,1.1776,1.1776,1.1776,1.1776,1.1776,1.1776,1.1776,1.1776,1.1776,1.1776,1.1776,1.1776,1.1776,1.1776,1.1776,1.1776,1.1776,1.1647,1.1261,1.1165,1.0817,1.0293,1.0122,0.9797,0.0,0.0,1.8046,1.675,0.0,0.0,0.0,0.0,0.0,0.0,0.0,0.0,0.0,0.0,0.0,0.0,0.0,0.0,0.0,0.0,0.0,0.0,0.0,0.0,0.0,0.0,0.0,0.0,1.2409,0.0,0.0,1.5423,1.6213,1.6565,1.7047,1.7279,1.7279,1.7279,1.7279,1.7279,1.7279,1.7279,1.7279,1.7279,1.7644,1.8158,1.8059,1.8369,1.8855,1.875,1.875,1.875,1.875,1.875,1.8593,1.7463,1.6723,1.6135,1.545,1.4796,1.4329,1.4557,1.4461,1.4282,1.4112,1.3813,1.3504,1.3504,1.3444,1.3324,1.3084,1.2964,1.2724,1.2294,1.2122,1.2001,1.1837,1.1776,1.1776,1.1776,1.1776,1.1776,1.1776,1.1776,1.1776,1.1776,1.1776,1.1776,1.1776,1.1776,1.1776,1.1776,1.1776,1.1776,1.1776,1.1776,1.1776,1.1776,1.1776,1.1776,1.1776,1.1776,1.1776,1.1776,1.1776,1.1716,1.1647,1.1591,1.1347,1.0878,1.0872,1.0296,2.0918,2.0255,0.0,1.8305,1.721,0.0,1.4672,0.0,0.0,0.0,0.0,0.0,0.0,0.0,0.0,0.0,0.0,0.0,0.0,0.0,0.0,0.0,0.0,0.0,0.0,0.0,1.1019,1.1224,1.1399,0.0,0.0,0.0,1.5643,1.6184,1.693,1.7279,1.7279,1.7279,1.7279,1.7279,1.7279,1.7337,1.7501,1.7501,1.7852,1.8482,1.8482,1.8774,1.9272,1.9272,1.9272,1.9272,1.9272,1.9272,1.922,1.8475,1.7687,1.6972,1.66,1.6053,1.5569,1.5722,1.5402,1.4927,1.458,1.4172,1.3693,1.3693,1.3693,1.3624,1.3444,1.3264,1.3084,1.2664,1.2354,1.2174,1.201,1.1897,1.1776,1.1776,1.1776,1.1776,1.1776,1.1776,1.1776,1.1776,1.1776,1.1776,1.1776,1.1776,1.1776,1.1776,1.1776,1.1776,1.1776,1.1776,1.1776,1.1776,1.1776,1.1776,1.1776,1.1776,1.1776,1.1776,1.1776,1.1776,1.1776,1.1776,1.1622,1.1321,1.1321,1.0734]}]]